GFSMW_sfc_thetae_000.txt.gz
Theta_e
300 301 301 301 300 300 301 301 301 301 301 299 299 298 298 300 300 302 308 307 306 306 302 301 304 303 300 300 299 298 298 297 297 295 296 296 296 297 298 299 301 307 312
300 301 301 298 300 300 300 300 301 301 301 299 299 299 298 299 300 301 301 306 305 304 302 301 301 301 300 299 299 299 297 297 297 295 293 291 294 296 297 299 299 299 303
299 300 302 299 299 300 300 301 301 301 301 301 299 298 298 298 298 299 299 302 304 304 303 301 300 299 299 298 298 297 296 294 296 296 294 290 288 294 296 297 299 298 299
300 299 299 299 300 301 300 300 302 301 302 301 299 298 300 299 301 301 298 300 303 303 302 302 300 299 299 298 298 298 296 295 293 295 298 296 294 290 290 295 298 300 300
298 298 297 299 300 301 301 302 302 302 303 303 301 299 298 300 301 297 297 297 299 301 302 301 300 299 299 297 295 295 293 295 293 293 292 292 292 292 290 288 291 296 299
297 300 300 301 301 302 302 303 303 303 304 303 302 300 298 300 298 299 298 298 296 296 298 298 297 296 295 294 294 294 291 292 292 291 292 291 289 289 289 288 288 289 293
298 298 299 300 301 301 301 302 302 303 305 302 302 302 301 300 299 299 299 298 296 295 295 295 295 294 293 294 293 295 294 292 291 289 290 292 292 293 292 290 289 289 292
299 299 300 301 301 301 301 302 303 301 302 301 301 300 300 300 299 297 296 294 295 294 294 293 294 295 295 295 295 295 295 293 291 290 291 292 292 293 292 290 289 287 288
298 299 301 301 300 299 300 300 300 301 301 300 298 295 294 295 292 291 293 293 293 294 294 295 296 297 297 296 294 292 291 292 292 291 290 291 292 293 293 292 291 288 284
298 300 300 300 300 299 300 301 300 300 300 295 295 293 292 292 292 292 291 291 293 295 296 297 297 297 295 294 293 292 290 290 290 291 290 290 291 292 292 292 291 290 288
297 298 301 302 303 302 302 300 299 298 294 293 293 292 291 291 290 290 291 291 292 294 294 294 294 293 293 292 291 289 289 289 288 288 288 288 289 289 289 290 290 289 289
297 298 299 300 300 299 298 299 298 294 293 293 292 291 290 289 288 289 290 291 291 292 291 291 291 291 291 290 289 288 288 286 285 286 286 286 288 287 287 287 287 287 287
298 298 298 299 299 298 298 299 298 293 293 292 290 288 288 287 288 288 289 290 290 290 290 290 289 290 290 289 288 287 286 286 286 285 285 285 285 283 284 283 283 284 287
299 298 298 298 298 298 298 298 293 293 293 292 288 287 287 287 287 288 288 289 289 289 289 289 290 289 288 287 286 286 284 283 283 283 283 283 283 282 281 282 282 283 282
298 297 297 297 297 297 297 294 294 294 293 289 289 289 290 290 289 288 289 291 290 289 289 288 287 286 285 286 284 283 281 281 281 282 282 282 283 286 286 284 283 282 281
298 298 298 298 297 297 295 294 294 294 294 294 294 294 293 293 292 292 292 291 289 288 286 284 284 283 285 287 287 285 281 281 281 280 280 281 283 283 284 285 285 284 280
296 296 298 297 296 294 293 292 293 294 295 295 295 294 294 293 292 292 291 287 285 283 282 282 281 281 281 286 286 285 282 281 280 280 279 280 281 282 281 283 284 284 285
297 297 297 295 294 293 292 292 293 293 293 293 293 293 292 290 289 286 285 282 282 281 280 280 281 280 282 285 285 284 281 280 280 280 280 280 280 281 281 281 280 281 281
298 297 294 293 292 291 291 291 291 292 290 286 286 286 286 286 285 283 281 281 280 279 279 280 280 280 280 283 283 282 278 278 279 281 281 281 281 283 284 282 281 281 282
295 292 292 291 290 291 289 285 285 285 285 286 286 287 286 284 283 281 280 280 278 279 279 280 279 280 277 281 282 281 280 278 278 279 280 282 281 283 283 281 280 280 281
292 292 291 290 291 293 290 284 284 284 286 287 286 285 285 283 282 280 279 278 278 277 272 271 274 276 278 277 281 282 279 278 278 278 279 280 282 282 283 283 281 281 282
290 291 290 290 292 287 285 283 282 286 286 285 284 284 283 282 281 279 278 278 277 273 272 268 270 273 273 279 280 281 281 281 279 279 280 281 283 283 284 283 282 283 282
288 289 289 290 289 285 285 283 284 285 284 283 282 282 281 280 279 278 277 276 275 271 271 274 271 274 276 276 280 280 280 282 281 281 281 282 281 281 281 282 282 281 281
287 288 290 288 287 285 284 283 284 284 282 281 281 281 279 279 278 278 277 276 271 270 275 273 274 275 275 276 277 279 280 281 281 279 278 277 278 277 276 277 279 279 280
287 289 290 289 286 284 283 284 283 283 282 281 281 280 279 277 277 277 277 276 275 274 273 272 276 274 273 276 280 280 280 281 280 278 275 275 274 274 275 276 276 278 279
289 289 289 285 285 284 283 284 283 282 281 280 279 276 275 274 276 276 276 280 280 280 280 280 278 276 278 280 280 280 281 281 280 277 273 272 273 273 274 273 274 276 277

GFSMW_sfc_thetae_003.txt.gz
Theta_e
298 298 299 298 299 299 300 299 299 299 300 299 298 298 298 298 300 300 303 307 308 306 303 302 303 302 300 300 299 298 296 296 296 294 294 295 295 295 296 297 298 299 302
298 298 298 296 298 298 299 299 300 300 299 298 298 298 297 298 298 299 300 305 307 307 304 301 302 303 301 299 299 298 296 296 296 293 291 289 292 294 297 296 298 298 299
298 298 299 297 297 297 298 299 299 299 300 300 298 297 297 297 297 298 298 300 304 307 305 302 301 301 301 300 298 297 296 294 294 295 293 288 287 290 293 294 296 296 297
297 298 299 298 298 298 298 299 299 299 300 300 299 297 298 298 301 301 300 300 300 303 305 304 300 300 298 296 296 296 295 294 291 292 296 294 292 285 284 290 291 292 295
296 297 298 297 297 298 298 299 301 302 302 301 301 300 298 300 301 301 297 298 298 300 302 303 301 298 299 299 298 295 293 292 291 290 290 289 289 290 287 283 286 290 291
297 299 299 300 300 300 300 301 301 302 303 302 302 300 298 299 298 299 297 298 296 296 298 299 299 296 296 294 291 292 292 292 291 291 292 290 287 286 285 284 285 287 289
296 297 297 299 300 299 299 300 300 300 300 300 300 300 299 298 297 298 298 296 293 292 292 294 293 293 293 294 295 294 294 293 292 290 290 291 290 289 288 287 287 286 287
298 298 300 299 298 298 299 299 299 299 300 299 298 297 296 296 297 296 294 293 291 290 292 293 296 296 296 297 297 297 295 295 293 293 291 289 289 289 289 287 286 285 286
297 297 297 298 298 298 299 299 299 299 299 297 294 294 294 294 294 291 291 290 291 293 293 295 296 296 296 296 297 295 293 293 292 291 289 288 289 289 290 291 290 287 283
295 297 298 298 299 299 298 298 298 298 297 292 293 294 293 292 291 290 290 290 292 294 295 296 296 296 296 296 295 293 292 291 291 291 289 288 289 289 289 290 290 289 286
295 297 298 299 299 299 298 297 297 297 294 292 292 292 293 290 289 289 289 290 293 294 293 292 294 294 293 293 292 290 289 289 288 287 287 287 287 286 286 287 288 288 288
297 298 298 298 298 298 297 297 296 295 292 293 292 293 291 289 287 288 289 290 291 292 291 291 291 291 290 290 288 287 287 286 285 285 285 285 287 285 285 285 285 286 286
298 299 298 299 299 298 297 297 297 292 292 292 292 290 287 286 286 288 290 290 290 290 290 289 288 289 289 288 287 286 285 285 285 284 284 284 284 283 283 283 282 283 285
298 298 298 297 297 297 297 296 293 293 292 291 288 285 285 285 286 287 289 290 291 289 289 289 289 288 287 286 285 284 282 281 282 282 282 281 281 281 281 281 281 282 281
297 297 298 297 296 296 295 294 293 293 293 291 288 288 290 290 288 291 292 291 291 291 289 288 286 285 285 285 283 282 282 281 281 281 281 281 282 285 284 283 282 281 281
296 297 296 296 296 296 294 293 292 292 293 291 292 294 294 293 293 293 292 291 292 291 287 284 283 283 284 287 286 285 281 281 280 279 280 280 282 282 283 283 284 283 280
295 295 295 295 295 293 292 291 291 292 291 291 293 294 293 293 292 292 292 291 286 284 283 282 282 282 282 286 286 285 281 280 280 279 279 280 281 282 281 282 283 283 284
296 295 296 294 293 292 291 290 290 290 291 290 287 288 289 288 286 285 284 282 282 281 280 281 281 281 282 284 284 284 280 278 279 279 280 279 280 280 281 280 280 281 281
295 296 294 292 291 289 288 286 285 286 286 286 286 287 286 284 283 282 281 281 279 279 280 281 280 279 279 282 282 281 275 276 277 279 280 279 279 281 283 280 279 280 281
296 293 292 291 289 290 286 287 285 285 284 287 286 285 284 283 281 280 279 279 279 279 280 279 279 279 276 280 281 280 278 277 278 278 279 281 280 282 282 280 279 278 279
293 292 290 289 289 289 286 283 283 283 285 285 285 284 284 283 281 279 279 278 278 277 273 271 273 275 277 276 281 281 279 277 277 278 278 280 282 282 282 283 281 281 281
290 289 288 288 289 285 284 282 281 283 283 284 283 282 282 281 280 278 278 277 276 274 272 268 270 273 272 278 279 280 281 280 278 278 280 280 281 281 281 281 282 282 282
287 287 286 288 289 285 284 283 283 283 282 282 281 281 281 280 279 277 277 276 275 272 271 274 272 274 275 275 278 279 280 281 280 281 280 280 279 279 278 279 280 278 279
286 285 287 287 287 289 285 284 284 283 282 281 281 280 279 278 277 277 277 276 272 271 275 273 273 274 273 274 275 278 279 280 281 279 278 276 277 275 275 276 277 277 278
286 287 287 287 287 286 282 283 282 282 281 281 281 279 278 277 277 277 277 276 275 273 273 271 274 273 272 274 279 279 279 280 279 277 275 274 273 272 273 274 274 275 276
286 288 287 286 284 282 281 282 283 281 280 280 280 276 274 274 276 275 276 279 279 279 279 279 276 276 278 279 279 279 280 280 278 276 273 271 271 270 272 271 271 273 274

GFSMW_sfc_thetae_006.txt.gz
Theta_e
296 296 297 298 299 300 299 299 300 300 299 299 299 298 299 298 299 300 302 303 306 307 306 304 303 303 301 301 298 297 297 296 296 295 294 294 296 295 296 297 298 300 301
296 297 297 296 298 299 299 298 298 298 297 297 297 297 296 297 297 298 299 300 302 305 306 305 303 302 302 299 298 297 295 295 295 293 291 289 291 293 296 297 296 297 298
296 296 297 296 296 297 296 297 297 297 298 298 297 297 297 297 297 299 298 300 300 302 305 305 304 302 302 302 300 298 296 295 294 294 292 288 286 289 292 292 294 293 294
296 297 297 295 297 297 297 298 299 299 301 300 299 298 296 296 299 299 299 300 300 299 302 305 304 302 301 301 299 298 297 294 292 293 296 293 291 285 284 290 292 292 293
295 294 295 297 298 297 298 299 300 301 300 300 299 299 298 298 299 299 298 299 299 297 298 300 301 300 297 297 298 296 294 294 292 290 290 289 290 290 286 284 286 290 292
296 297 298 299 298 298 298 299 299 300 300 299 298 297 295 295 296 297 296 297 297 295 295 296 296 295 293 292 292 294 293 290 292 292 291 290 288 287 286 285 285 286 289
295 295 297 297 298 298 298 299 298 299 299 298 296 294 294 294 294 295 296 295 293 290 290 291 292 293 293 294 296 294 294 294 294 293 293 293 292 292 290 288 286 285 287
297 297 298 297 297 298 298 298 298 298 298 297 294 294 295 294 295 295 294 292 290 290 292 293 294 294 294 294 295 294 295 295 294 292 292 291 291 292 291 289 286 284 285
295 296 298 299 298 299 299 298 297 297 298 296 292 293 294 294 295 294 290 290 290 293 293 293 294 294 296 296 295 293 292 291 291 291 291 291 291 291 291 291 289 286 282
296 298 298 299 299 298 298 298 297 297 297 293 293 294 293 294 294 291 289 289 290 293 293 293 293 293 293 293 294 294 294 292 292 292 290 290 290 290 290 289 289 288 286
295 296 297 298 298 298 297 297 296 296 296 292 292 292 294 293 291 288 288 289 291 292 291 292 292 292 293 293 292 291 290 289 289 288 287 286 287 286 286 286 286 286 286
296 296 297 297 297 297 297 297 296 296 293 293 292 292 290 288 287 287 288 289 289 289 289 290 290 290 289 289 288 287 287 286 285 284 284 284 286 285 285 285 284 285 285
296 297 298 298 297 297 297 297 296 294 293 293 291 288 286 284 285 286 288 289 289 290 290 290 290 290 289 288 287 285 284 284 283 283 283 283 283 282 282 282 282 283 284
296 296 296 297 297 297 296 296 294 293 293 292 289 287 286 285 286 289 289 290 290 291 291 291 289 288 286 286 285 285 283 282 282 282 281 281 281 280 280 281 281 281 281
296 295 296 298 297 297 297 294 293 293 292 291 291 289 292 291 290 290 290 291 291 291 292 291 287 285 285 285 283 282 282 281 280 281 281 281 282 284 283 282 281 280 280
294 296 295 295 296 296 293 292 292 292 292 291 291 293 294 294 292 292 291 291 291 291 291 287 282 282 283 287 286 285 282 282 281 279 280 280 282 282 283 283 283 283 280
293 292 292 294 295 293 291 291 291 291 291 291 289 289 290 291 290 291 290 288 285 283 281 281 281 282 282 285 285 285 282 281 280 279 279 280 281 281 281 282 282 282 283
293 293 294 294 292 292 290 288 287 287 286 286 287 288 287 285 284 283 282 281 281 280 280 280 281 280 280 283 283 282 280 278 278 279 279 279 279 280 281 281 280 281 281
294 294 294 292 290 289 286 284 284 284 285 286 286 286 284 282 282 281 280 280 279 279 279 281 279 278 278 281 282 281 277 276 276 279 279 279 279 281 282 280 279 279 280
294 293 292 290 289 289 287 286 285 284 283 284 283 283 282 281 279 278 278 279 278 279 279 278 278 278 276 279 281 280 277 276 277 278 280 280 280 282 282 280 279 278 280
293 292 290 287 289 289 286 284 282 282 283 283 282 282 281 280 279 278 278 277 277 277 273 271 273 275 276 276 280 281 279 278 278 278 278 279 281 281 281 281 279 279 281
290 290 287 287 289 289 284 283 282 283 283 282 281 280 280 280 279 277 277 277 275 273 271 268 270 273 272 278 278 280 280 280 279 278 279 280 280 280 280 279 279 280 280
289 288 285 286 288 287 286 285 286 283 282 281 280 280 280 279 279 277 276 276 274 271 271 274 273 274 275 274 277 278 280 280 279 280 281 280 279 278 277 278 278 278 277
287 285 285 286 286 287 287 283 282 282 281 281 280 280 279 278 277 277 277 276 272 271 274 272 272 273 273 273 275 278 278 279 280 279 278 277 277 274 274 275 276 276 276
285 285 286 286 285 285 284 282 281 281 280 281 281 279 278 277 277 277 276 276 275 272 274 271 271 272 272 274 279 278 278 279 278 278 276 274 273 272 273 273 273 274 275
286 285 286 285 285 284 282 281 281 280 280 280 279 275 274 274 276 275 275 279 278 279 278 278 275 275 277 278 279 278 279 278 277 275 272 271 270 270 271 271 271 272 272

GFSMW_sfc_thetae_009.txt.gz
Theta_e
303 304 305 307 308 311 313 314 314 314 312 310 310 310 310 310 310 311 311 311 312 313 315 315 316 316 313 313 313 311 309 307 308 306 306 306 308 308 307 307 307 305 308
303 303 305 307 308 310 310 307 306 307 307 307 308 308 308 309 308 309 311 311 310 311 310 312 312 313 312 313 313 310 309 307 308 304 304 300 303 304 305 305 305 307 305
304 304 305 306 306 306 305 305 306 307 308 309 309 309 309 309 309 308 308 309 310 310 310 310 310 311 311 310 313 312 309 307 307 307 304 300 297 301 303 303 302 303 302
304 304 305 305 305 306 308 309 309 309 308 309 307 306 304 303 305 306 306 307 309 309 308 308 308 309 310 309 310 311 310 308 306 304 303 303 301 297 297 299 300 300 299
303 302 304 305 305 307 307 308 308 308 308 307 305 305 304 305 305 305 304 305 306 307 306 305 305 306 307 308 308 308 306 306 304 302 301 299 298 298 294 293 295 296 297
302 303 305 305 306 307 308 308 308 307 308 307 305 304 304 303 303 304 303 304 304 304 303 302 303 302 302 301 301 300 301 300 300 299 298 297 295 293 293 291 292 293 296
303 303 304 304 305 306 306 307 306 306 306 306 303 303 304 304 303 302 302 301 301 301 300 300 301 301 301 301 301 300 299 298 297 295 294 294 293 293 291 290 291 292 294
303 303 303 304 304 305 306 306 305 305 306 306 303 303 303 302 301 301 301 301 299 299 300 301 301 301 301 301 301 300 295 294 293 291 290 289 290 291 291 291 290 289 291
302 303 304 305 305 305 306 305 305 305 305 305 302 302 301 300 300 300 299 298 297 299 301 301 301 301 301 300 298 298 294 292 291 291 291 291 293 293 294 293 292 289 285
303 304 305 305 305 306 305 306 306 304 304 303 300 300 300 300 298 296 295 296 297 300 300 299 297 297 297 297 296 296 296 295 295 295 294 294 293 293 293 292 292 291 288
303 304 304 305 304 305 305 305 305 303 303 299 299 299 298 295 293 294 295 295 298 297 295 295 295 294 293 294 295 294 294 293 293 293 292 290 291 290 290 291 291 289 289
303 303 303 304 304 304 304 304 303 301 299 298 299 297 294 292 292 293 294 295 295 295 294 294 294 293 293 294 292 291 291 290 289 289 289 289 289 289 290 289 289 289 290
302 303 303 302 302 301 302 302 301 299 299 298 297 294 293 292 294 295 295 296 296 295 296 294 293 293 292 291 290 289 289 289 289 288 288 287 287 286 287 287 286 286 287
301 301 301 299 299 300 300 299 298 298 297 297 296 294 294 294 295 295 295 295 295 294 293 292 293 292 291 289 289 289 288 288 287 287 286 286 285 285 285 284 285 285 285
300 299 297 296 297 298 298 297 297 297 297 296 296 295 296 296 294 293 294 294 294 294 294 293 292 288 287 287 288 288 287 287 286 286 286 285 285 284 284 284 284 284 284
295 295 295 294 296 297 296 295 295 295 296 295 292 291 292 293 292 293 293 293 291 289 287 287 286 286 286 286 287 286 286 285 284 283 284 284 283 284 283 283 283 284 282
293 293 294 295 296 296 295 294 294 294 294 291 291 291 292 290 289 288 288 287 287 287 286 286 286 285 285 283 284 283 284 283 283 282 282 282 282 283 283 283 282 282 282
292 293 294 296 297 296 294 293 292 291 291 290 291 291 289 287 287 287 286 285 285 285 284 285 284 283 283 282 282 282 283 283 282 282 282 282 282 283 282 281 282 282 283
294 294 297 297 295 293 294 290 290 289 289 290 289 288 287 286 286 285 284 284 284 284 284 283 282 282 282 281 281 281 282 281 281 282 282 282 282 282 283 282 281 282 283
295 295 297 295 293 293 294 292 291 290 289 288 287 287 286 285 284 284 283 284 283 283 282 281 282 281 281 280 280 281 281 279 280 281 282 282 282 282 282 282 281 280 281
293 296 296 292 292 294 293 290 288 287 289 287 286 286 285 285 285 283 284 283 282 282 281 280 281 280 280 280 280 280 280 280 280 280 281 283 282 281 281 281 280 280 281
293 294 293 292 292 293 291 289 288 291 291 287 286 285 285 284 283 283 283 282 282 281 280 279 280 280 280 279 279 279 280 280 280 280 281 283 280 279 279 279 279 279 279
293 293 292 291 291 293 292 289 291 291 289 286 285 285 285 284 283 282 282 281 281 280 279 278 278 278 279 279 278 279 280 280 280 281 280 279 279 278 278 277 278 278 279
291 292 290 290 290 293 291 290 290 288 286 285 285 285 284 284 284 283 282 281 281 279 278 278 276 276 277 278 279 279 280 279 281 280 280 278 277 277 277 278 278 278 279
290 290 290 290 291 291 290 288 286 286 285 285 285 284 284 283 282 282 281 281 281 279 278 277 277 275 275 277 278 278 278 279 278 278 278 276 275 276 276 277 277 277 277
289 289 288 288 287 286 285 285 285 284 284 283 283 283 282 282 281 280 280 280 279 279 278 278 277 277 277 278 278 277 277 277 276 276 274 273 273 274 274 275 275 276 276

GFSMW_sfc_thetae_012.txt.gz
Theta_e
313 313 315 316 317 321 321 322 321 317 320 319 315 316 316 316 317 318 318 318 318 318 318 317 318 319 318 319 319 318 317 316 316 312 311 311 313 313 312 312 311 310 311
311 312 315 316 317 316 316 314 313 314 314 316 316 316 316 317 317 317 317 316 315 315 314 315 314 315 314 316 317 317 315 315 316 311 309 305 308 311 311 312 310 311 310
310 310 311 313 315 315 315 314 315 315 316 315 316 316 316 315 313 312 312 312 312 312 312 312 312 313 313 312 314 314 314 312 315 316 310 304 302 306 310 310 309 310 309
309 310 311 312 314 315 316 315 315 314 314 314 313 312 310 309 310 310 311 310 311 310 310 310 311 312 311 311 311 311 312 312 309 312 313 313 311 304 302 306 308 308 307
309 310 310 312 313 314 315 315 314 313 313 312 312 311 310 310 310 310 309 309 309 309 308 309 309 310 310 311 311 311 311 311 309 308 308 307 308 308 302 301 301 305 305
308 310 311 312 312 315 315 314 313 312 313 313 310 310 309 309 308 307 305 305 306 306 307 307 308 308 308 308 307 307 305 305 304 304 303 301 296 297 297 299 302 302 302
310 309 309 310 311 312 313 313 312 311 311 311 309 309 309 308 307 306 304 303 303 304 305 306 307 307 307 307 304 301 298 297 294 293 293 292 291 291 292 292 293 294 298
308 309 309 310 311 311 312 312 311 310 309 309 309 309 309 308 305 304 303 302 302 303 305 306 305 305 304 304 303 301 299 295 293 292 292 291 292 292 291 291 290 288 292
307 308 309 310 311 311 311 312 311 311 310 309 309 308 308 305 303 302 302 302 303 302 305 304 303 302 301 300 299 297 296 297 296 295 295 294 294 294 293 293 293 289 286
307 308 309 310 310 311 312 312 311 310 310 309 307 306 305 303 301 301 300 301 302 303 302 301 300 299 298 298 296 296 296 295 295 295 294 295 295 294 294 293 293 291 289
307 308 308 309 310 310 310 309 309 308 306 306 305 304 302 300 300 300 300 300 300 299 298 298 298 297 295 295 295 295 295 294 293 293 293 292 293 293 293 293 292 291 290
307 308 308 308 308 308 307 306 306 305 304 304 303 301 300 300 299 299 299 300 299 299 298 297 296 295 295 296 293 293 293 292 291 291 291 290 290 291 292 291 291 291 292
306 307 307 307 305 304 303 303 303 303 303 302 301 300 300 299 298 298 298 298 297 297 297 296 294 294 295 295 294 293 292 292 291 291 290 290 290 289 290 290 289 289 289
305 306 305 304 302 301 301 302 302 302 301 300 299 299 298 298 298 297 297 297 296 295 295 295 294 293 292 291 291 291 291 290 290 290 290 289 289 288 288 287 287 287 287
303 302 301 299 299 299 301 302 300 299 300 299 299 297 297 297 296 295 295 295 295 293 292 291 291 291 290 289 289 289 289 289 288 289 288 289 288 286 286 285 285 286 286
299 296 296 297 297 299 300 298 297 298 300 298 296 296 295 295 294 294 293 292 291 291 291 290 290 289 289 284 284 285 286 287 287 287 287 287 287 286 286 284 284 284 284
294 295 296 296 298 300 298 297 297 298 297 296 295 294 294 293 292 291 290 289 290 290 289 289 289 288 288 283 283 282 285 285 286 286 286 285 285 286 285 285 284 284 283
295 296 297 297 299 300 298 298 297 296 296 295 294 294 292 291 290 289 289 289 289 289 288 288 287 287 286 283 282 281 284 285 285 285 285 285 285 285 284 283 282 283 285
297 297 298 299 300 299 298 298 297 296 295 293 292 292 291 290 289 288 288 289 288 288 287 287 286 285 285 283 281 281 283 283 283 283 283 283 283 283 283 283 282 283 284
297 297 297 299 300 299 299 297 296 295 293 293 293 292 291 289 288 288 288 289 288 287 287 285 286 284 284 282 281 281 282 280 281 282 283 283 284 283 283 283 283 281 282
296 297 297 297 298 299 298 296 295 293 293 293 293 292 291 289 289 289 289 288 287 286 284 284 283 284 283 282 281 280 280 280 280 280 282 284 283 281 281 280 281 280 282
295 296 295 295 296 297 296 295 294 294 294 294 293 291 290 289 288 288 288 288 287 284 283 283 283 283 284 281 281 280 280 281 280 280 282 284 280 280 279 279 279 279 280
295 295 294 294 295 295 296 294 294 294 293 291 291 290 289 289 289 288 287 286 285 282 281 280 280 281 282 282 280 280 280 280 280 282 281 280 279 279 279 279 278 279 281
293 294 293 291 292 294 294 293 293 292 291 291 289 290 289 288 289 288 286 284 282 281 280 279 279 279 280 279 279 280 280 280 281 280 282 280 279 279 280 280 280 281 281
293 292 291 291 291 292 291 292 290 289 288 288 288 288 288 287 287 286 285 284 283 281 279 279 279 278 277 277 278 278 278 279 278 279 280 278 277 278 279 279 279 280 280
292 291 291 290 290 290 290 289 289 288 286 286 287 287 287 287 285 285 284 281 279 278 278 277 277 278 277 277 277 277 277 277 277 278 276 275 275 276 277 277 278 278 278

GFSMW_sfc_thetae_015.txt.gz
Theta_e
320 319 319 320 322 326 327 328 326 321 321 320 317 317 317 318 319 320 320 320 319 318 317 316 317 318 316 318 320 319 319 317 320 318 317 317 318 318 316 317 315 314 314
314 315 318 319 320 320 320 319 318 318 318 318 318 319 318 318 319 319 318 318 316 315 314 314 313 314 312 316 317 317 315 316 318 314 314 310 312 316 316 316 315 316 314
311 313 315 317 319 318 318 317 317 318 317 318 318 317 317 317 316 315 315 315 315 314 313 312 312 313 314 312 315 315 314 311 314 317 312 306 305 310 315 317 315 315 314
312 313 314 315 317 317 318 317 317 316 316 317 315 315 313 311 313 314 314 313 313 311 310 310 312 313 312 312 313 311 314 312 309 312 311 314 312 305 304 312 312 312 311
312 312 313 315 316 317 318 318 316 316 316 316 315 313 312 312 313 312 311 310 310 310 308 309 311 310 310 310 310 309 309 308 307 306 306 306 306 306 301 301 306 307 308
312 312 313 314 315 317 318 317 316 315 315 315 315 312 311 310 309 309 307 307 307 306 307 306 308 309 308 308 308 306 305 302 302 300 298 296 295 295 295 293 300 300 305
312 311 312 313 313 314 315 316 315 314 315 313 313 313 311 310 308 307 306 304 303 304 306 306 307 306 307 306 304 302 300 298 297 294 293 293 292 291 290 290 290 292 296
311 311 311 313 313 313 315 315 314 313 314 314 313 312 311 309 307 305 303 302 302 304 304 305 306 304 304 302 300 298 296 295 296 295 294 293 294 294 293 291 290 289 291
309 310 311 312 312 313 313 314 313 312 312 312 312 310 308 307 304 303 302 302 303 303 304 304 303 301 299 300 300 299 298 298 297 297 296 295 295 295 294 294 292 289 286
309 310 311 312 312 312 313 313 312 310 310 308 308 307 306 305 303 302 301 301 302 302 301 301 300 299 298 298 298 296 297 296 297 297 296 295 295 295 295 294 293 292 289
309 309 310 311 311 312 311 310 309 308 307 307 306 305 304 303 302 301 301 300 300 300 299 299 298 297 296 296 296 295 296 294 294 294 293 293 293 292 293 293 293 292 291
308 308 308 308 309 309 309 307 306 305 305 304 303 302 302 301 301 300 298 299 298 299 299 299 296 296 296 296 295 295 294 293 292 293 293 292 291 291 292 291 291 291 292
306 306 307 307 306 306 306 304 304 304 304 302 301 300 300 300 298 298 297 297 297 296 297 297 296 295 295 293 292 292 292 291 291 291 290 290 290 289 290 290 290 289 289
304 304 305 305 305 303 302 302 303 303 301 300 300 299 299 298 297 297 297 296 295 294 293 293 292 292 292 291 291 291 290 290 290 290 290 290 289 289 289 288 288 288 287
304 303 303 302 301 300 301 302 302 301 300 299 299 298 298 297 296 296 295 294 293 292 292 292 292 292 291 290 289 288 287 287 287 288 289 290 290 288 287 286 285 285 285
301 301 299 299 298 299 300 301 300 300 299 298 297 298 297 295 295 294 293 292 292 291 291 291 291 290 289 285 284 284 285 285 285 286 287 288 288 288 288 287 286 285 283
297 299 298 299 299 299 300 300 299 300 298 297 297 296 296 295 294 292 291 291 290 291 290 290 290 289 289 284 283 283 284 284 285 286 286 286 287 287 286 286 286 285 285
299 299 299 298 299 300 300 301 300 299 298 297 296 296 295 294 292 292 290 290 290 290 289 289 289 288 287 285 283 282 283 284 284 285 285 285 285 286 285 284 284 284 285
300 299 299 298 298 299 299 299 298 297 297 296 294 294 294 293 291 290 290 290 290 289 288 288 287 286 286 285 283 282 282 282 282 283 284 284 283 284 284 283 282 283 284
299 298 298 298 298 297 298 297 296 295 295 295 294 295 293 292 291 290 290 290 290 288 288 287 286 285 285 285 283 282 282 280 281 282 282 283 284 284 284 283 283 281 282
297 298 298 296 297 297 296 294 294 294 295 295 295 295 294 292 291 290 290 289 289 288 287 286 286 285 285 284 283 282 281 281 281 281 282 284 282 281 281 281 281 280 282
297 297 296 295 296 295 294 293 293 295 296 296 294 293 293 291 290 290 290 289 288 287 285 285 284 285 286 284 282 281 281 281 280 280 282 283 281 281 280 280 280 280 280
295 295 294 294 294 294 293 291 293 294 294 293 292 292 291 291 290 289 288 287 287 284 283 282 282 282 283 283 282 280 280 280 280 282 281 281 281 280 280 281 280 280 281
293 293 293 292 292 293 293 292 292 292 291 290 290 290 289 289 289 289 288 286 285 282 281 280 280 280 279 281 280 280 280 279 279 279 280 281 280 280 281 282 282 282 282
292 293 292 292 292 292 292 292 291 290 289 288 288 288 289 288 288 287 287 286 285 282 280 280 279 278 277 278 278 278 278 278 277 277 280 279 278 277 279 280 280 281 281
292 292 292 292 292 291 290 290 291 289 287 286 287 288 288 287 286 286 285 282 280 279 278 277 278 278 277 277 277 277 277 277 277 278 276 276 276 276 277 277 278 279 279

GFSMW_sfc_thetae_018.txt.gz
Theta_e
316 318 319 322 324 327 324 326 322 322 320 319 316 317 316 317 318 318 320 318 317 316 314 312 312 311 310 310 311 310 309 309 311 310 310 311 313 313 313 312 310 309 310
313 316 317 318 319 319 319 318 318 318 317 317 317 317 316 317 317 318 317 317 315 314 312 312 310 309 308 307 307 308 308 307 309 307 306 303 306 309 311 312 311 309 311
311 313 315 317 319 318 318 316 317 317 317 317 316 315 316 315 314 313 313 315 314 312 311 310 308 308 308 306 305 305 305 304 305 306 304 300 298 302 306 307 309 311 311
311 313 314 315 316 317 318 317 317 316 316 317 314 314 312 309 312 312 312 311 311 310 308 307 307 306 306 305 305 306 305 304 301 303 303 300 300 297 297 303 306 308 309
312 312 313 314 315 318 318 318 317 316 316 315 315 312 310 310 310 309 309 308 307 306 306 305 304 304 305 304 305 304 302 300 298 297 296 295 295 297 294 292 296 301 305
312 312 314 315 315 318 318 318 316 315 316 314 313 312 310 309 307 307 305 303 303 303 303 304 303 304 304 302 302 300 299 297 297 296 295 293 292 290 290 290 290 291 296
312 312 312 312 314 314 316 315 315 313 314 315 313 312 310 308 305 304 301 300 300 300 300 302 303 302 302 300 299 297 295 295 294 294 292 293 291 292 291 290 289 288 291
311 311 312 312 313 314 314 314 313 311 311 312 311 311 309 306 304 302 300 300 299 300 302 301 302 299 299 299 299 298 296 294 295 295 295 293 293 292 291 290 289 286 289
310 311 312 313 312 312 313 313 311 310 310 310 309 308 306 305 302 301 300 300 300 300 299 300 299 298 298 298 297 296 295 295 295 295 295 294 293 293 292 291 291 287 283
309 310 310 311 311 312 312 312 310 308 308 306 305 304 303 303 302 300 299 299 298 299 298 298 298 298 297 296 295 294 294 295 295 295 294 294 294 294 293 293 293 291 288
308 309 309 310 310 311 309 308 307 305 304 304 304 303 302 301 301 300 298 298 297 297 297 298 297 296 295 295 295 294 293 293 292 293 293 292 292 291 291 291 291 291 290
307 307 308 309 308 307 307 306 304 303 303 303 301 300 300 300 299 298 297 297 296 296 296 295 295 294 294 294 293 292 292 291 290 291 291 291 292 290 289 289 288 287 287
306 306 306 306 305 305 304 303 303 302 302 300 299 298 299 298 297 296 297 296 295 294 294 292 291 290 290 289 289 289 288 287 287 287 287 287 288 286 287 287 286 286 287
304 304 304 304 303 302 302 301 301 303 300 299 298 297 298 297 295 295 296 295 294 292 291 291 291 291 290 290 289 288 286 285 285 285 285 286 286 285 285 285 284 285 283
303 302 302 301 300 300 300 300 301 301 300 299 297 297 298 297 295 295 295 294 293 291 291 290 290 290 289 287 285 285 284 283 283 283 284 285 287 289 287 285 282 282 280
300 300 300 300 299 299 299 299 300 300 300 298 297 298 297 297 295 294 294 293 291 290 290 289 289 288 288 285 285 283 281 283 282 281 282 284 287 287 288 288 288 285 280
298 299 299 299 298 297 298 297 298 300 299 298 298 297 297 295 295 294 292 291 289 289 288 288 288 287 286 285 285 283 281 281 280 281 281 282 285 285 285 284 285 285 285
298 299 299 298 298 297 297 297 297 296 296 297 296 296 296 295 294 293 291 290 289 288 287 287 286 285 286 287 285 284 280 280 280 280 280 280 281 282 283 282 281 282 282
300 298 297 297 297 297 296 295 295 294 294 294 294 295 295 293 293 292 290 288 288 287 287 287 285 283 283 286 286 284 280 280 279 280 280 281 280 283 284 282 280 281 282
297 296 297 297 296 295 295 293 293 292 292 295 295 295 295 294 291 290 289 288 288 287 286 285 284 285 283 286 286 283 279 277 278 279 280 282 282 282 281 280 280 279 279
296 297 296 294 294 294 294 292 291 291 293 294 294 294 294 292 291 290 289 288 286 285 283 283 283 283 283 283 283 282 279 278 277 278 278 280 282 282 282 281 279 278 280
294 294 293 292 294 294 293 291 290 292 293 292 292 292 293 292 291 289 288 287 285 283 281 279 280 281 281 283 282 281 280 279 277 277 279 280 281 281 281 280 281 281 280
292 293 292 292 293 293 292 290 291 292 291 290 289 290 290 290 290 288 285 283 283 281 280 280 278 278 279 279 280 279 279 279 277 278 278 280 281 280 280 281 282 281 279
291 292 291 291 291 293 293 292 291 291 290 288 288 288 288 288 287 287 285 283 281 280 280 278 277 276 277 276 276 276 277 278 277 277 277 279 279 278 279 280 281 280 280
292 292 291 291 291 292 292 291 290 290 288 287 287 286 286 286 285 285 283 282 281 279 278 277 276 273 272 274 277 277 276 276 277 276 278 277 276 275 276 277 278 279 279
291 291 291 291 291 291 290 290 290 289 286 284 284 284 284 284 284 283 282 283 281 281 280 278 275 274 277 278 278 278 278 278 278 276 274 273 273 274 275 275 275 276 277

GFSMW_sfc_thetae_021.txt.gz
Theta_e
311 312 313 314 315 313 314 313 313 311 311 310 308 308 308 309 310 311 311 312 311 310 308 307 306 306 304 304 304 303 303 303 305 303 304 304 306 307 310 311 308 308 308
309 311 312 311 310 309 310 310 310 310 310 309 308 309 308 309 309 310 310 311 308 307 306 304 303 304 303 303 302 301 300 300 302 300 301 297 300 302 304 305 307 307 309
308 310 310 308 308 308 308 309 310 310 309 309 309 308 308 307 307 307 307 306 306 304 303 303 302 302 302 301 300 300 300 299 300 300 297 294 294 295 301 302 304 303 306
308 310 309 308 308 308 309 309 309 309 310 309 307 306 304 303 305 304 304 303 303 302 302 301 301 301 300 299 300 302 299 297 295 296 298 296 296 291 290 297 298 297 300
305 306 307 308 309 309 308 309 309 309 309 309 307 305 304 304 304 303 301 300 300 301 301 301 300 300 300 299 299 298 299 298 297 295 294 294 291 291 288 287 290 293 295
305 306 308 309 308 308 308 308 308 308 309 309 307 305 303 302 300 299 297 297 298 298 299 300 299 299 297 297 297 298 296 295 295 295 294 293 290 290 289 287 287 287 290
303 304 305 308 309 305 306 307 307 306 307 307 306 304 301 300 298 296 295 295 295 295 296 297 298 297 297 296 295 295 296 295 293 291 291 290 291 291 290 289 288 287 288
304 304 304 304 305 306 305 306 306 305 306 305 303 302 301 300 298 297 296 295 295 295 295 296 296 298 297 296 295 294 294 293 292 290 291 292 292 293 292 290 288 285 283
304 305 304 304 304 304 305 304 304 303 304 302 301 300 300 299 297 296 295 295 294 296 295 294 295 298 297 295 294 293 291 291 291 291 294 294 294 293 293 293 291 287 282
303 303 303 304 304 304 304 303 303 301 300 299 300 298 297 297 296 295 294 294 293 294 293 293 294 295 294 294 292 291 292 291 290 291 291 290 293 292 293 293 292 291 287
301 302 303 303 303 303 302 302 299 298 298 297 297 295 295 295 295 295 294 293 293 293 293 294 293 292 292 292 291 291 291 291 290 289 289 289 291 290 291 291 290 289 289
301 301 302 301 301 300 300 299 297 297 297 296 296 295 295 295 294 293 293 293 292 292 292 291 289 289 288 288 288 288 286 285 284 284 284 284 287 285 286 287 286 286 286
300 300 299 299 298 298 297 296 296 297 296 296 294 293 293 294 292 292 293 293 292 291 289 288 288 288 288 287 286 286 285 284 284 283 283 283 283 282 283 284 283 283 285
299 298 297 298 297 297 296 295 296 297 296 295 294 294 293 294 292 292 292 292 291 289 287 288 288 288 288 286 285 284 283 282 283 283 282 282 282 282 282 283 282 283 281
298 298 297 296 296 295 295 295 295 296 296 296 295 294 295 295 292 293 294 293 291 289 288 287 287 287 286 285 282 282 281 280 280 281 282 282 283 286 286 285 283 281 279
297 297 297 296 296 294 293 294 293 294 296 295 295 296 295 294 294 293 293 292 290 287 286 286 286 285 286 285 285 282 279 280 280 278 279 280 283 283 284 285 285 285 281
295 296 296 296 294 292 293 291 291 292 292 292 293 294 294 294 294 294 293 291 287 285 285 285 285 284 283 286 285 284 281 279 278 278 278 279 281 281 281 283 284 284 285
296 297 297 295 292 292 291 291 291 290 290 290 292 293 293 292 292 292 291 288 286 285 284 284 283 282 284 286 286 286 280 278 279 278 278 278 279 280 281 280 280 280 281
296 294 292 291 290 290 290 289 289 289 289 291 291 292 292 291 290 289 287 288 286 285 284 283 282 281 281 285 285 282 279 279 279 280 280 279 279 281 283 280 278 279 281
291 291 291 290 289 289 289 288 287 287 289 290 290 291 291 291 290 288 288 287 284 284 283 283 282 283 280 284 284 282 277 274 277 277 278 280 280 282 282 280 276 276 277
291 290 289 287 288 289 289 287 287 287 289 289 290 290 290 290 290 288 287 285 282 281 279 279 280 281 281 279 282 281 277 276 277 276 276 278 280 280 282 281 279 278 279
288 289 287 287 288 289 288 287 286 288 289 288 288 287 288 289 290 287 286 283 280 279 277 270 273 276 277 280 280 279 279 278 275 275 277 278 280 281 280 280 281 282 280
287 288 287 287 288 289 289 287 287 288 288 286 285 285 285 286 286 282 280 280 279 275 275 277 271 274 276 274 278 278 278 278 276 277 278 279 279 279 279 280 281 280 280
286 287 287 287 287 288 289 288 287 288 286 284 284 284 283 284 283 282 281 279 275 273 277 274 272 271 273 272 274 275 272 277 277 276 277 278 278 277 277 278 278 278 278
287 287 287 287 287 288 288 287 287 287 285 283 283 281 281 281 281 281 279 279 277 276 273 272 272 264 263 271 278 277 276 276 277 276 275 275 274 274 275 276 276 276 277
287 287 288 287 287 287 287 287 287 285 283 281 280 279 278 278 280 279 279 283 281 282 282 280 271 268 275 278 279 279 278 278 277 274 272 272 272 272 273 273 274 275 276

GFSMW_sfc_thetae_024.txt.gz
Theta_e
308 310 310 311 310 311 311 312 311 309 309 309 308 307 306 307 308 309 308 306 306 306 304 302 302 302 301 301 301 301 299 299 300 299 301 300 302 302 302 303 304 305 307
307 308 308 308 308 307 309 308 309 308 307 307 306 307 306 307 306 306 305 304 304 303 303 300 300 300 299 299 298 298 297 298 299 297 296 294 298 297 298 299 300 300 302
305 306 307 307 307 305 307 307 307 307 307 307 306 306 305 305 304 302 301 302 303 302 300 300 299 298 298 298 297 298 297 296 297 297 296 292 290 291 295 295 297 295 297
307 307 306 305 305 305 306 306 307 307 308 307 306 304 302 301 301 300 298 298 300 300 299 300 299 299 299 297 297 299 299 299 295 298 297 296 295 288 287 291 293 293 294
306 305 306 306 306 306 306 306 307 307 307 306 305 304 302 301 300 298 297 298 298 299 299 299 298 297 296 295 295 294 293 294 292 291 291 293 291 290 287 285 287 290 291
303 305 306 307 306 305 305 304 305 306 306 305 303 301 299 298 296 295 295 295 296 296 296 297 297 296 295 294 293 293 292 292 292 291 290 289 288 287 288 287 286 287 288
302 303 305 305 305 303 304 304 304 304 305 303 301 300 299 297 295 295 294 293 294 293 293 294 295 295 295 295 296 294 293 291 290 289 289 290 291 292 290 288 287 286 287
302 302 302 302 303 303 303 303 303 303 303 301 300 299 299 297 296 295 294 294 293 293 293 293 295 295 296 295 293 292 290 290 289 288 289 290 293 293 290 289 287 285 284
300 301 302 301 302 302 302 301 303 301 300 302 299 297 298 297 296 294 293 293 293 295 293 292 293 294 294 293 292 290 289 289 289 289 290 290 291 290 292 291 290 286 282
301 301 301 302 302 302 301 300 300 298 298 297 297 296 295 295 295 293 293 293 292 293 292 291 292 292 292 292 291 289 289 289 288 289 287 287 288 288 288 288 289 289 286
300 301 301 301 301 299 298 297 296 296 296 296 295 294 294 294 294 293 293 293 292 292 291 292 291 288 288 288 287 287 287 286 284 283 283 283 284 283 283 284 285 287 288
301 299 299 298 297 296 295 296 295 295 296 295 295 293 293 293 293 292 293 292 291 292 292 292 288 288 286 286 285 284 284 283 282 283 282 282 283 281 281 281 282 283 284
297 297 296 297 296 296 295 294 294 294 295 295 293 292 292 292 292 291 291 292 292 291 292 289 288 288 287 286 284 284 283 281 281 281 281 281 281 280 280 280 281 282 284
296 296 295 295 295 294 294 293 293 293 294 294 293 292 292 293 291 290 292 293 294 292 291 288 288 288 286 285 284 283 281 280 281 281 281 280 280 279 279 281 281 282 280
296 296 295 294 294 293 293 292 292 292 293 292 292 292 293 293 291 291 292 293 292 292 291 289 288 286 284 284 281 281 281 280 280 280 280 280 281 283 282 282 281 280 279
295 294 294 295 295 293 290 291 290 291 291 290 291 293 292 292 292 292 292 290 292 291 287 287 286 284 285 286 285 283 280 280 279 278 279 279 281 280 282 282 283 283 280
293 295 295 295 294 289 290 289 289 290 289 290 292 292 291 291 291 291 291 291 287 287 287 285 284 282 282 286 287 287 282 280 278 278 278 279 280 280 279 281 282 282 283
294 294 292 290 289 288 288 288 288 288 289 290 290 291 291 290 290 288 289 288 286 286 284 283 282 281 283 285 285 284 280 278 279 279 278 278 277 279 279 279 280 280 280
294 290 288 288 287 287 288 288 286 287 288 288 288 289 290 289 289 289 288 285 284 282 283 282 281 280 280 284 283 281 277 277 277 278 278 278 277 279 282 280 279 278 279
289 287 287 287 286 287 287 286 285 286 287 287 288 289 289 288 288 287 285 285 283 283 282 282 280 281 278 281 282 280 276 272 276 277 277 278 279 280 280 279 277 277 277
288 288 287 286 286 286 286 285 286 285 287 288 288 287 287 287 287 287 286 284 281 280 278 277 278 278 278 277 280 279 276 275 276 275 276 277 279 281 281 281 279 278 280
286 287 286 286 286 287 287 285 285 287 287 286 285 285 284 285 285 283 280 280 279 278 276 267 271 274 275 278 278 279 278 278 274 275 276 277 279 280 280 280 280 280 280
285 286 285 286 287 287 287 285 286 287 286 284 283 283 283 283 282 280 279 279 278 274 274 276 269 273 275 273 277 278 278 278 276 277 278 278 278 278 278 279 279 278 278
284 285 285 285 285 287 287 286 286 286 284 283 282 282 281 282 281 280 280 278 273 272 276 273 272 270 272 272 273 275 272 276 277 276 276 276 277 276 277 277 277 277 277
285 285 285 285 286 286 286 286 286 285 283 282 282 280 280 279 280 280 278 278 277 275 273 272 271 263 262 270 278 277 276 275 275 270 272 273 273 273 274 274 275 275 276
285 285 286 286 286 286 285 285 285 285 283 281 280 279 277 276 279 279 278 282 281 283 284 282 271 268 275 279 280 279 277 277 276 269 267 270 270 270 271 271 272 273 274

GFSMW_sfc_thetae_027.txt.gz
Theta_e
306 308 309 310 311 311 311 312 312 310 311 309 309 306 305 304 304 303 303 302 303 303 301 300 299 299 298 298 298 297 297 297 298 297 298 298 298 297 295 297 297 299 300
305 306 307 307 308 309 310 307 307 307 306 306 306 305 304 303 302 301 300 302 301 300 300 299 298 298 298 298 297 296 296 297 296 293 293 290 292 294 295 294 295 293 297
303 305 307 307 307 305 305 306 305 306 306 306 305 304 304 303 300 298 298 299 299 299 299 299 298 297 297 296 295 295 294 293 295 294 291 287 285 290 292 293 292 291 292
305 307 306 304 303 303 304 305 306 305 306 305 304 303 301 300 299 297 296 297 298 298 298 298 298 296 296 294 294 295 293 292 290 292 294 292 290 288 285 289 291 290 291
305 304 304 304 305 304 303 304 305 305 305 304 304 302 300 300 298 297 296 296 296 297 297 297 296 295 294 293 293 292 291 292 291 289 289 288 289 287 288 284 286 290 289
304 304 304 305 305 304 302 302 304 304 304 303 302 301 298 297 295 295 294 294 294 294 294 295 295 294 294 293 292 292 291 290 289 289 288 289 289 288 288 286 286 286 287
302 303 305 305 305 303 301 302 303 303 303 301 300 299 297 296 295 295 293 292 293 292 292 293 294 293 293 293 293 291 290 289 288 287 287 287 288 292 290 287 286 286 285
302 303 302 301 301 302 301 300 302 301 301 300 299 298 298 296 296 295 293 292 293 292 292 291 294 294 294 293 292 290 289 288 288 286 286 287 288 289 289 289 287 283 284
298 299 300 300 300 300 300 299 299 299 299 298 297 297 297 296 295 294 293 292 292 293 292 291 292 292 294 292 291 289 288 287 287 286 286 286 286 286 287 288 288 285 280
298 299 299 300 300 301 299 298 298 298 297 297 296 295 294 295 294 293 292 292 292 292 292 291 291 292 292 291 290 287 287 286 286 286 282 282 283 283 283 283 285 285 284
298 298 298 299 299 297 295 295 295 296 295 295 294 293 293 292 293 292 292 292 291 291 292 293 292 290 288 288 286 286 285 284 282 282 282 282 282 281 281 281 281 281 281
297 297 299 298 297 295 294 294 294 293 294 294 293 292 291 291 291 291 292 291 291 292 291 291 292 291 288 287 286 285 284 282 281 281 281 281 282 279 279 279 279 280 281
295 295 295 295 295 294 294 293 292 291 293 293 291 291 291 291 290 290 291 291 291 290 291 291 292 288 288 287 285 284 282 281 281 281 280 280 279 278 278 279 279 279 282
295 294 294 293 294 294 292 290 291 291 291 290 290 290 290 291 290 290 289 290 291 290 289 291 288 289 288 286 283 282 281 281 281 281 280 280 279 278 278 278 279 281 280
295 294 293 294 293 292 289 289 289 290 290 290 290 290 291 291 291 291 291 291 290 290 292 290 288 287 286 284 282 282 281 280 280 280 280 280 281 283 282 279 278 278 279
295 294 293 294 293 289 288 289 288 289 289 289 290 291 290 290 289 289 289 289 292 289 288 288 286 283 284 286 286 285 281 281 280 279 279 279 281 281 281 281 282 281 278
293 293 293 292 288 287 288 287 287 288 287 289 290 290 290 289 289 288 288 288 287 286 285 284 282 281 282 286 285 284 281 280 279 278 278 278 279 279 278 280 281 281 282
292 291 288 288 287 287 287 287 286 286 288 288 288 289 288 288 288 287 288 288 287 283 282 281 281 280 282 284 283 282 278 277 277 277 277 277 277 278 278 279 280 279 280
292 288 287 287 286 286 286 286 285 286 287 286 286 287 287 287 287 286 285 285 283 281 281 282 280 279 278 281 281 280 276 276 276 277 277 278 277 279 281 279 278 278 279
287 286 286 286 285 285 285 285 285 285 285 286 286 286 286 286 285 285 284 286 284 282 282 281 279 280 277 280 280 279 274 270 275 276 277 278 279 280 281 279 278 276 278
286 286 285 285 284 285 285 285 285 284 286 286 286 285 284 283 283 283 283 282 280 280 278 278 277 278 277 276 279 279 274 275 275 275 275 277 279 280 280 280 279 278 279
285 285 284 285 285 286 286 284 284 286 286 285 284 283 283 283 282 280 280 280 279 279 277 266 270 274 275 278 278 279 279 278 274 275 276 277 279 279 279 278 279 279 278
283 285 284 284 285 285 285 284 285 285 285 284 283 282 282 282 281 279 278 278 278 274 274 275 269 273 276 273 277 278 279 278 274 275 276 277 277 277 277 277 278 277 276
283 284 284 284 284 285 286 285 285 285 284 283 283 282 281 281 281 280 279 278 273 271 275 273 272 270 272 271 272 275 271 276 275 272 272 273 275 274 275 275 275 275 276
284 284 284 284 284 285 285 285 284 284 284 284 283 281 281 279 280 279 278 279 277 276 273 273 272 262 262 270 278 277 273 269 272 267 265 267 270 271 272 272 273 273 274
284 284 284 284 284 284 283 284 284 284 284 283 283 281 279 276 279 279 278 282 281 282 283 283 272 267 275 279 280 279 277 276 274 267 262 260 263 266 270 269 270 271 270

GFSMW_sfc_thetae_030.txt.gz
Theta_e
304 306 308 310 311 313 317 318 314 314 314 311 306 303 302 300 300 300 301 303 302 301 299 299 299 298 297 297 297 296 296 296 296 294 294 295 297 294 294 295 294 296 297
303 306 306 307 309 312 314 314 312 312 308 306 304 303 301 299 298 298 299 299 299 300 299 298 297 296 295 294 295 294 293 294 294 291 290 287 290 292 294 293 294 292 294
303 305 307 308 309 308 305 305 305 305 305 305 304 302 301 300 297 296 296 297 299 299 298 297 296 295 295 294 293 292 291 290 292 292 290 286 284 288 291 292 291 291 291
304 305 305 303 302 301 303 303 304 304 304 304 302 301 299 298 297 296 295 296 297 297 297 297 296 295 294 293 293 294 292 291 289 290 293 291 290 286 285 291 292 291 291
303 303 302 302 302 302 303 302 304 304 304 303 302 301 298 297 296 295 295 295 295 296 296 296 295 294 294 293 292 291 291 291 289 288 288 288 288 289 287 284 287 291 291
301 303 303 303 302 302 303 304 305 303 303 303 302 300 297 296 295 295 294 293 294 294 294 294 294 293 293 292 292 291 290 289 288 288 288 287 287 287 287 285 284 285 287
301 301 302 303 304 303 302 303 302 301 301 300 299 298 297 296 296 295 294 292 292 292 292 291 293 293 293 292 292 291 289 288 287 286 286 286 287 288 287 286 284 285 285
301 302 303 301 301 301 300 301 301 301 300 299 298 298 297 296 295 294 293 292 291 292 292 291 291 292 293 292 293 290 289 289 288 286 285 286 287 287 287 287 284 280 282
300 300 300 299 299 298 298 299 299 299 298 298 297 296 296 295 294 294 292 292 292 293 292 291 290 291 292 294 293 291 289 287 287 286 286 285 285 284 284 284 284 282 277
297 298 298 298 298 297 296 298 298 297 298 296 295 294 293 292 292 292 292 292 291 291 291 291 292 292 291 290 291 290 289 287 286 286 283 282 282 282 282 281 282 282 280
296 296 296 296 296 295 295 294 294 295 294 293 293 292 291 291 290 290 291 291 291 291 291 291 290 289 289 290 287 287 286 285 283 282 282 282 282 281 281 280 280 280 280
295 295 296 295 294 294 294 293 293 293 291 292 291 290 290 290 290 289 289 290 290 290 290 290 289 290 291 289 286 285 285 282 281 281 281 281 282 280 279 279 279 279 280
294 294 294 294 295 292 293 293 291 290 290 290 289 289 289 289 288 288 288 289 289 289 289 289 291 291 288 286 287 284 282 281 281 281 280 280 280 278 278 278 278 279 280
293 293 293 294 292 292 292 289 290 290 289 289 289 289 289 289 288 288 288 289 289 289 288 291 290 289 287 287 284 282 281 281 281 281 281 280 280 279 278 279 279 278 278
293 293 292 292 294 292 289 289 288 288 288 288 288 289 289 289 288 288 288 288 288 289 289 289 288 285 284 283 282 282 282 281 280 280 281 281 282 283 282 280 279 278 277
293 293 293 294 293 289 287 287 287 287 288 287 288 289 289 289 288 287 287 287 288 289 288 286 284 281 283 286 286 284 280 280 280 278 279 279 280 280 281 280 281 280 278
293 294 294 292 288 286 287 286 286 287 286 288 289 288 288 288 287 287 286 286 286 283 283 282 281 280 281 285 284 283 280 278 277 277 276 277 278 278 278 279 280 280 281
293 292 288 287 287 286 285 285 285 285 287 287 287 287 286 286 286 285 288 285 285 286 281 280 280 280 281 282 282 282 278 276 277 277 276 276 277 278 279 279 280 280 280
292 289 287 287 286 285 285 284 284 285 286 285 285 285 285 284 284 284 283 284 284 283 281 281 280 278 277 281 281 279 276 276 276 277 277 277 277 279 282 279 278 278 279
288 286 286 285 284 284 284 284 284 284 284 285 285 285 284 283 282 282 282 283 283 282 281 280 279 280 277 279 280 279 274 270 275 276 277 278 278 280 280 279 277 276 278
285 286 286 284 284 284 285 284 284 283 285 285 285 284 283 282 282 280 281 282 280 280 278 277 278 278 278 276 279 280 275 275 276 275 275 277 278 279 279 279 277 278 278
286 285 284 284 284 284 284 283 283 284 285 284 283 282 282 283 282 280 279 280 278 278 277 267 271 274 276 278 278 280 279 278 272 274 275 275 278 278 278 277 278 278 277
284 284 284 284 285 284 284 283 284 284 284 283 283 284 284 282 281 279 278 278 277 274 273 274 270 272 276 274 277 278 279 277 271 274 275 276 276 276 275 276 277 275 275
283 284 284 283 283 284 284 284 284 284 283 283 283 284 283 281 281 280 280 278 273 271 274 273 272 271 271 271 272 275 272 274 274 271 270 270 273 270 271 273 274 273 273
284 284 284 283 283 284 283 283 283 283 282 282 283 283 283 281 280 280 278 279 278 276 275 274 272 264 263 270 275 276 271 267 271 265 264 266 267 268 270 270 271 272 271
283 283 283 283 283 283 282 282 283 282 282 282 283 283 282 279 279 279 280 282 281 282 283 283 274 268 275 279 280 279 277 276 274 267 261 258 257 261 267 268 268 269 268

GFSMW_sfc_thetae_033.txt.gz
Theta_e
310 314 317 321 322 323 322 322 316 315 316 313 309 308 308 307 307 308 308 308 308 308 307 305 305 304 302 302 303 302 300 300 301 298 297 300 306 302 302 301 301 300 301
312 313 315 319 323 320 317 319 322 317 316 313 313 312 309 308 307 306 306 307 307 306 305 305 304 303 302 302 302 301 298 299 300 295 296 292 294 300 298 299 298 300 299
311 312 315 318 320 319 321 320 317 317 315 313 311 309 308 306 305 305 305 306 306 305 305 304 305 304 304 301 302 301 297 295 298 297 294 290 288 291 296 296 297 297 298
310 311 311 311 311 311 313 315 314 313 312 312 311 310 310 308 307 306 306 305 305 305 304 304 304 304 304 301 301 301 299 298 294 296 297 296 294 287 286 293 294 296 296
309 308 308 308 309 310 311 312 312 311 311 311 311 311 308 307 306 306 304 305 304 304 303 303 303 303 302 301 301 300 299 299 296 294 294 293 293 292 288 285 287 292 294
308 308 308 309 309 310 310 311 312 310 311 310 310 309 308 306 306 306 305 305 304 303 303 302 303 303 302 301 301 300 299 298 297 296 294 292 290 289 287 286 285 286 290
308 307 307 307 308 309 310 311 311 309 309 309 309 308 308 307 306 305 304 303 303 302 303 302 301 301 301 301 300 300 299 298 296 295 294 294 293 293 291 289 286 286 288
307 307 308 309 309 308 308 310 309 307 307 307 307 308 307 306 304 303 302 302 301 301 302 301 300 299 299 300 300 299 298 299 297 296 295 294 294 294 292 288 287 284 285
306 307 308 308 308 307 307 308 307 306 305 306 306 304 303 303 303 302 301 301 301 300 300 301 300 299 299 299 299 297 296 297 296 295 295 294 293 292 291 290 288 285 280
305 306 306 305 305 305 304 306 305 304 304 304 303 301 301 300 300 300 299 299 299 300 299 299 300 299 298 297 295 294 294 293 294 293 292 291 290 289 290 289 288 286 283
303 304 303 304 303 301 302 303 301 302 301 300 300 299 298 298 298 297 298 298 298 298 297 297 297 297 294 295 295 294 292 290 291 290 289 288 289 288 288 287 286 284 284
302 301 301 301 300 300 299 298 299 297 298 299 298 297 297 297 297 296 296 296 295 296 295 296 295 295 294 293 292 290 291 290 288 287 287 287 287 286 286 285 284 284 284
299 300 299 299 299 297 298 298 297 296 296 296 296 296 296 296 295 294 295 295 295 295 296 295 295 293 290 291 291 290 288 287 287 287 286 286 286 285 285 284 283 283 282
298 299 299 298 297 297 297 295 295 296 295 295 295 295 295 295 294 294 294 294 294 294 294 294 293 291 291 290 289 287 287 287 287 286 286 285 284 283 283 282 282 282 281
297 298 298 297 297 297 294 294 294 294 295 293 294 295 295 294 294 293 293 293 293 293 293 291 291 289 288 287 288 288 287 285 284 284 283 282 282 282 282 281 281 280 279
297 297 296 297 297 294 294 293 293 293 293 292 293 294 293 293 293 292 292 292 292 291 291 290 288 287 287 286 285 285 285 283 282 281 281 281 280 281 280 280 281 281 279
297 296 296 296 295 293 292 292 292 292 291 292 293 292 292 291 291 291 291 291 291 290 290 288 287 286 287 283 283 283 283 281 281 280 280 279 280 280 280 280 281 282 282
297 296 295 293 292 292 292 291 290 290 290 292 291 291 291 290 290 290 289 290 291 291 289 286 286 285 283 282 281 281 282 281 280 280 280 280 279 280 280 281 281 281 281
298 296 293 292 292 291 290 289 289 290 290 289 290 290 290 289 288 288 288 289 289 289 287 286 285 283 282 280 281 281 281 280 280 280 280 280 279 279 281 280 279 279 279
296 291 291 291 290 290 289 289 289 289 289 289 290 290 290 288 288 287 287 288 290 289 287 285 284 281 282 279 280 281 282 280 279 280 280 278 278 279 279 279 278 277 278
289 290 290 290 289 289 289 289 288 288 289 289 289 289 289 288 288 287 287 287 287 286 285 283 283 282 281 281 279 280 281 280 279 278 278 278 278 278 278 278 279 278 278
288 289 289 289 289 289 289 288 288 289 289 289 289 288 288 287 287 286 286 285 285 284 283 281 282 283 282 280 280 279 280 280 278 277 278 278 277 277 276 277 277 277 277
287 288 288 288 289 289 289 288 289 289 288 288 288 288 288 287 287 285 285 284 284 283 282 282 282 282 283 282 279 279 279 279 278 278 276 276 275 275 276 275 275 275 276
287 287 287 287 287 288 288 288 288 288 287 287 287 287 287 287 286 285 285 284 283 282 282 281 281 282 282 282 281 281 281 278 278 276 276 274 274 273 274 275 275 275 274
287 287 287 286 286 287 287 287 287 287 286 286 287 287 287 286 285 285 284 284 284 283 282 282 282 281 281 282 280 280 280 280 277 274 275 274 274 273 274 274 274 273 272
286 286 286 285 286 286 286 286 286 286 285 285 286 287 286 286 285 284 284 284 283 283 283 283 282 284 281 280 280 281 279 277 275 275 274 272 272 272 272 273 272 273 271

GFSMW_sfc_thetae_036.txt.gz
Theta_e
319 323 327 328 330 330 329 329 326 319 320 317 316 313 310 311 313 314 314 315 314 312 311 309 309 308 306 305 305 304 303 302 304 301 300 301 304 306 304 303 303 303 303
319 322 326 327 327 328 330 328 327 326 324 323 320 319 317 316 315 314 314 314 312 310 308 308 307 307 305 305 305 305 302 302 302 299 298 294 297 301 301 301 302 302 302
319 322 325 328 327 326 328 328 330 328 325 321 319 318 316 314 313 313 313 312 311 310 310 309 307 307 307 304 305 304 303 299 301 301 297 293 291 294 298 298 299 300 300
321 324 323 325 327 328 330 328 326 324 321 320 318 316 316 313 315 314 314 312 311 310 308 307 308 307 307 306 305 303 303 301 298 299 299 299 297 291 290 295 296 297 296
320 318 318 320 322 325 325 323 321 319 319 318 319 318 315 315 314 314 310 311 312 310 308 308 308 307 306 306 305 304 303 301 298 297 296 294 293 293 289 287 291 294 295
316 315 315 316 316 318 319 318 317 316 317 318 317 317 314 312 311 310 308 307 308 308 308 307 308 308 307 306 305 304 301 301 300 297 295 293 291 290 289 287 290 290 292
314 313 312 313 314 316 317 318 317 315 317 317 316 314 311 309 307 307 306 306 306 306 306 307 306 306 306 305 305 303 301 301 299 297 295 294 293 292 291 289 288 288 291
313 313 313 314 315 315 317 316 316 314 314 314 311 310 309 310 309 308 307 306 305 304 304 303 303 302 302 303 303 302 301 300 299 297 296 294 293 293 292 290 287 286 287
313 313 314 315 315 315 316 316 314 312 310 308 308 307 310 308 307 305 305 303 302 300 301 301 300 300 301 302 302 301 300 299 298 296 295 293 293 293 292 291 290 286 283
313 313 314 314 315 315 314 314 312 310 306 306 308 308 307 305 304 304 301 300 300 300 300 299 299 299 300 301 301 299 298 298 296 295 293 293 292 291 291 290 290 289 286
312 313 313 313 313 312 311 310 307 305 304 304 305 305 303 302 303 302 300 300 300 299 298 298 298 298 298 298 297 296 296 295 293 293 292 292 292 291 291 290 289 288 287
313 312 312 311 309 308 307 306 304 302 302 303 302 301 301 301 301 299 299 299 298 298 298 298 297 297 295 296 295 294 294 292 291 292 292 291 290 290 290 289 288 287 287
310 310 309 308 306 305 304 301 300 300 302 301 300 300 300 300 299 298 299 298 297 297 297 297 294 294 295 294 293 292 292 292 291 291 290 290 289 288 288 287 286 285 284
307 307 307 306 305 303 300 300 301 301 300 299 299 299 299 299 299 298 298 297 297 296 296 296 295 294 294 293 292 291 291 291 290 290 289 288 286 286 285 284 284 283 283
305 306 306 305 303 302 302 302 301 300 299 297 297 297 299 298 297 297 296 296 296 296 296 294 294 294 292 291 291 291 290 290 288 288 286 286 284 282 282 282 283 282 281
305 305 305 304 303 302 301 300 299 298 298 297 296 297 297 296 296 296 295 295 295 295 295 294 293 292 291 285 284 285 288 288 286 285 285 285 284 284 282 282 281 282 281
305 305 304 303 302 302 299 298 297 297 296 296 295 296 295 295 294 294 294 294 294 295 293 292 293 291 291 283 283 282 286 286 285 284 284 283 283 283 282 281 282 283 283
305 305 304 302 302 299 298 297 296 295 295 294 294 294 294 293 293 293 293 293 294 293 292 291 291 291 289 282 281 281 286 286 285 284 284 284 283 282 281 281 281 281 283
307 306 304 300 298 297 296 295 294 294 293 293 293 293 293 293 293 292 292 292 292 292 291 291 291 290 289 281 281 282 285 285 284 284 284 283 282 280 280 279 279 280 281
307 303 298 297 294 296 295 294 293 292 291 292 293 293 293 293 292 292 292 292 292 291 290 290 290 287 287 281 280 281 285 283 283 284 283 281 280 278 279 279 279 278 279
302 297 294 293 294 294 294 292 292 291 292 293 293 292 292 292 292 292 292 291 291 290 290 288 289 288 287 286 280 280 283 283 282 282 282 282 279 278 278 277 279 278 278
294 294 293 293 293 293 292 291 290 292 293 293 292 291 292 291 290 291 291 290 290 288 287 286 286 287 287 284 282 280 280 281 281 281 282 281 277 277 277 277 276 277 278
293 295 295 292 292 292 292 289 291 292 292 291 291 291 291 290 291 290 289 289 288 287 286 284 284 285 286 285 282 280 280 280 281 282 280 277 276 276 277 276 276 277 278
292 291 292 291 290 290 290 291 291 291 290 290 290 290 290 290 290 289 288 287 287 285 284 283 283 283 283 284 285 284 283 282 281 281 281 278 276 277 277 278 278 278 277
290 292 290 290 289 290 290 291 290 291 289 289 289 290 290 290 289 289 288 287 287 286 284 284 284 283 282 283 283 282 283 283 281 278 280 280 279 278 278 278 278 278 277
291 290 289 288 288 289 289 290 290 289 288 288 288 289 289 289 288 288 286 285 284 284 284 283 284 286 284 283 282 281 281 280 278 279 279 279 279 277 277 277 277 277 276

GFSMW_sfc_thetae_042.txt.gz
Theta_e
316 320 322 324 327 331 328 328 325 325 323 321 318 317 315 314 314 313 314 316 316 313 310 310 308 307 305 304 304 302 301 300 301 297 297 297 298 297 298 298 297 298 299
315 321 323 325 328 329 330 327 326 325 325 323 321 320 317 314 314 314 316 317 314 311 310 308 307 306 304 304 304 302 300 299 300 295 295 290 293 296 297 296 296 295 297
317 320 323 325 328 329 328 327 326 325 326 322 324 322 318 316 315 314 314 314 313 311 309 308 306 305 304 302 303 302 301 297 298 298 295 290 287 291 293 293 294 294 294
320 321 323 325 328 329 328 329 328 327 327 326 320 317 314 312 313 313 314 312 312 311 309 307 306 305 305 303 303 302 301 299 295 297 298 295 293 287 287 290 292 293 293
319 320 323 326 326 327 328 329 328 325 324 321 320 317 316 315 314 314 313 312 312 311 309 308 306 305 304 303 302 302 300 299 297 295 294 294 293 292 288 285 287 291 291
319 322 325 327 325 328 328 327 324 322 320 320 320 318 317 314 312 312 310 310 308 306 307 307 305 303 302 300 299 299 297 297 297 296 295 293 292 290 288 287 286 286 288
320 322 322 323 323 323 325 324 321 318 319 319 319 318 315 312 308 308 307 305 304 304 303 302 300 300 299 299 298 297 297 297 296 295 295 295 293 293 291 289 286 285 287
321 319 321 320 320 322 321 320 318 316 317 319 317 316 312 309 308 309 306 303 302 301 301 300 299 299 298 297 297 296 296 296 296 294 295 295 295 294 291 290 286 283 284
317 317 318 318 318 318 319 318 317 316 317 316 313 311 309 308 306 304 304 302 301 300 299 299 297 297 297 297 297 295 295 295 295 294 293 292 293 292 290 289 288 284 281
316 316 315 316 316 318 318 320 318 315 315 312 310 309 308 306 305 304 303 300 299 299 298 297 296 297 297 297 296 295 295 293 293 293 292 292 291 290 289 288 288 287 285
315 315 314 316 317 318 318 318 317 313 311 310 309 307 305 304 303 302 300 299 298 298 297 296 296 296 295 295 293 293 293 292 291 291 290 290 290 289 289 288 287 285 284
316 315 315 316 316 316 317 316 315 311 310 308 306 305 304 303 302 301 299 298 297 298 296 296 296 296 294 293 292 292 292 290 289 289 289 289 289 286 285 284 283 283 283
315 315 315 315 315 315 315 314 312 309 307 304 303 303 303 301 301 299 298 298 297 296 296 296 295 294 294 292 292 291 291 290 289 289 288 286 285 283 283 281 280 281 283
314 314 314 314 315 315 313 312 309 307 305 304 303 301 302 301 299 298 297 297 297 296 295 296 296 294 293 293 293 292 289 288 287 287 286 286 284 282 280 280 279 280 279
311 312 314 314 314 313 312 309 307 305 305 303 301 300 301 300 299 298 297 297 296 296 296 295 295 293 293 292 289 288 286 286 285 286 286 285 286 287 284 281 279 278 278
310 312 314 314 313 312 309 308 305 305 304 301 300 300 299 299 297 296 297 296 296 295 295 294 293 291 292 286 286 285 283 285 284 283 284 284 286 285 286 285 283 282 277
308 311 312 312 312 310 308 305 305 304 301 299 299 298 298 297 296 296 295 294 294 294 293 293 292 291 291 286 285 283 283 283 283 283 282 283 285 282 280 281 281 281 282
308 310 311 312 312 309 307 306 303 300 298 298 297 297 296 295 295 294 294 294 294 293 292 291 291 290 291 286 285 283 281 282 283 283 283 282 281 278 279 278 277 278 279
309 310 311 311 310 308 304 301 299 298 296 295 295 294 294 294 293 293 293 293 292 291 290 291 290 289 288 285 284 282 281 282 282 283 283 283 280 280 281 277 276 276 277
309 309 310 310 306 302 300 298 295 295 294 294 293 294 294 293 292 292 292 292 292 291 290 289 289 289 286 285 284 283 281 280 281 281 282 281 279 279 279 274 274 273 276
309 310 307 303 300 300 298 296 294 293 294 294 294 293 293 292 292 292 291 290 290 289 288 286 287 286 287 287 285 284 281 280 280 279 279 280 281 280 280 279 275 275 277
303 302 299 296 295 296 295 292 292 293 294 293 293 292 292 291 291 291 290 290 289 287 286 285 284 284 285 287 286 285 283 283 278 279 279 280 281 281 280 278 279 279 278
299 298 295 293 293 293 292 290 291 293 293 292 290 290 291 291 291 290 289 288 288 284 284 284 283 284 285 285 287 285 284 283 278 279 281 282 281 282 280 281 280 277 275
294 294 293 292 291 291 291 292 292 291 290 289 290 290 290 290 290 290 289 287 285 284 284 283 284 284 283 282 283 281 282 283 281 280 281 279 278 276 276 276 278 277 275
292 292 291 290 290 291 291 292 291 291 289 289 289 289 289 289 289 290 289 285 286 285 284 284 285 284 283 283 283 282 283 283 282 276 276 275 278 277 276 276 276 276 276
290 289 290 290 291 291 291 291 291 290 289 288 288 287 287 287 287 287 286 288 286 286 286 286 284 283 285 285 285 285 284 283 282 276 273 273 275 276 274 273 274 274 274

GFSMW_sfc_thetae_045.txt.gz
Theta_e
313 317 318 322 324 325 323 321 319 319 319 315 313 311 309 309 308 308 310 311 311 308 307 305 304 302 301 299 300 299 297 297 297 294 293 294 295 294 294 294 293 295 295
311 313 313 323 324 323 322 321 319 319 319 317 314 313 309 308 308 308 309 311 310 307 305 303 302 301 300 300 299 298 296 296 296 293 291 289 291 292 294 292 293 292 293
311 314 316 323 323 323 322 321 321 320 321 320 316 314 310 308 307 307 308 308 308 307 305 304 302 301 300 299 298 298 297 294 295 295 293 288 285 288 291 291 291 291 291
314 316 316 320 323 322 323 323 323 321 322 321 317 312 308 307 307 308 308 306 307 306 305 303 302 301 300 299 298 300 296 296 293 294 297 292 290 286 285 288 290 291 291
315 316 317 321 324 323 323 323 323 322 322 322 317 313 308 308 309 309 308 307 308 307 305 303 301 300 299 297 296 294 294 294 293 292 292 291 291 290 287 285 285 289 289
315 317 320 323 324 324 324 323 323 322 320 317 313 311 310 309 309 310 309 308 307 304 301 300 297 297 296 295 294 294 293 293 293 293 293 291 291 291 291 286 284 284 286
312 317 320 320 321 321 322 322 322 317 315 312 311 311 307 306 305 306 305 303 300 298 298 296 296 295 295 294 294 293 292 292 291 291 293 295 293 293 293 291 286 283 285
315 318 320 319 320 321 320 320 317 316 314 312 311 308 305 303 303 303 302 301 300 299 296 296 295 294 294 294 293 293 292 292 291 291 292 293 294 292 293 290 287 283 281
312 314 316 317 317 315 314 314 314 312 312 311 307 304 303 303 301 301 302 300 299 298 297 296 293 293 294 294 293 292 291 291 291 290 289 289 290 292 290 291 288 285 280
311 312 312 313 313 313 313 312 311 310 310 306 305 303 303 301 302 300 300 299 298 297 296 293 293 293 293 293 291 291 291 290 289 289 288 289 289 289 289 287 287 286 284
310 309 309 312 312 312 312 312 310 310 307 305 303 302 300 302 303 301 299 298 296 296 294 293 293 293 293 292 290 290 290 289 288 288 288 287 287 285 284 283 282 280 280
310 309 308 310 310 311 312 311 308 308 306 305 303 302 303 303 301 300 297 297 296 295 293 294 293 294 292 290 290 290 290 289 288 288 287 286 287 283 281 280 279 278 278
309 309 308 310 310 311 314 313 309 307 304 303 303 304 303 302 299 299 298 295 294 293 293 294 293 293 291 290 290 290 289 288 287 286 285 284 283 280 279 279 278 278 280
311 309 309 310 312 313 313 312 306 304 303 302 302 301 301 300 298 296 296 294 294 293 294 293 294 294 292 291 292 290 287 286 285 285 284 284 281 280 279 279 277 278 277
307 307 308 308 309 310 309 308 305 303 303 302 301 300 301 298 297 296 295 295 294 294 294 293 293 292 291 291 288 287 285 284 283 284 284 283 285 288 283 280 277 277 276
303 307 309 310 309 309 305 305 302 302 303 301 299 298 298 296 296 295 295 294 294 293 293 292 292 291 291 288 288 286 283 283 282 281 282 282 285 284 284 283 282 280 276
302 306 307 308 308 307 305 302 302 303 301 298 297 297 297 296 295 294 293 292 291 291 291 291 291 290 288 288 287 285 282 281 281 280 281 281 283 281 279 279 280 279 280
303 304 305 305 304 304 302 302 300 298 297 295 295 294 294 294 293 292 292 291 292 291 290 289 290 289 290 287 287 285 281 281 281 281 281 280 279 278 278 277 276 276 277
302 303 304 302 300 299 298 297 296 295 295 294 293 293 293 292 292 291 291 291 290 290 289 289 288 288 287 287 286 283 281 281 280 282 281 281 278 280 280 277 276 275 276
301 300 297 296 295 294 294 294 293 292 291 292 292 293 293 292 291 291 290 290 290 290 289 288 287 288 284 286 286 284 280 279 280 280 280 281 279 280 280 274 273 272 274
294 293 292 292 292 293 293 291 292 291 292 293 293 293 293 292 291 290 289 289 288 287 286 285 285 285 285 283 287 286 280 280 279 279 278 279 281 281 281 280 275 273 276
292 291 290 289 290 291 291 290 289 292 292 292 292 292 291 290 291 289 288 288 287 285 284 280 282 282 284 286 287 287 285 282 277 279 278 279 283 282 282 280 280 280 278
291 291 290 289 290 290 291 289 290 292 292 291 290 289 290 290 290 287 286 285 285 282 283 282 279 281 283 282 286 286 285 284 280 278 279 282 283 282 281 281 282 278 274
289 290 290 290 289 290 291 290 290 290 288 287 287 288 287 287 287 287 286 284 280 279 281 280 280 279 280 279 279 281 283 284 282 279 279 277 278 275 276 276 278 276 274
290 290 289 288 288 290 290 290 289 289 287 287 287 286 286 285 285 286 285 282 282 281 280 280 280 277 277 281 283 281 280 279 279 278 278 276 273 274 276 276 275 275 274
289 288 288 288 288 289 287 288 288 287 286 285 284 282 282 282 283 283 283 285 285 286 286 286 282 282 285 286 286 286 285 285 283 276 271 267 266 270 275 275 273 271 272

GFSMW_sfc_thetae_048.txt.gz
Theta_e
317 317 317 318 318 322 322 320 318 316 316 314 311 310 309 309 308 308 309 310 309 308 305 303 301 300 299 298 299 297 296 295 295 292 292 292 293 292 292 292 291 293 293
313 315 316 317 321 321 321 319 318 317 316 315 312 312 309 308 307 307 308 309 306 305 304 302 300 300 299 298 297 296 295 295 295 292 290 288 291 291 293 291 291 290 291
311 313 316 319 320 319 319 318 318 317 317 316 313 309 307 306 304 304 305 308 306 305 304 302 300 300 299 297 296 296 295 293 293 293 292 287 285 286 290 291 290 290 290
312 313 317 319 320 320 320 319 318 318 318 317 313 309 306 305 305 305 306 306 305 305 304 302 300 300 299 297 297 296 293 293 290 292 295 291 290 286 286 288 290 290 290
310 314 319 320 321 321 320 320 319 318 319 318 315 311 306 306 306 306 306 304 304 304 302 301 299 297 296 295 294 292 291 291 290 289 290 289 289 288 285 284 284 288 289
310 313 320 321 321 321 320 320 320 319 320 319 315 312 308 306 306 305 304 303 302 301 300 298 296 295 295 294 293 291 291 290 290 290 290 290 289 288 290 289 289 288 286
311 312 318 320 320 320 320 320 320 320 320 318 315 311 308 307 307 307 305 300 299 299 298 297 295 295 295 293 292 291 290 290 289 289 290 292 291 292 293 291 289 286 284
312 314 318 320 320 321 321 321 320 319 317 314 311 308 306 305 305 304 303 301 299 298 297 297 296 295 294 292 292 291 291 290 289 289 289 290 290 291 290 291 288 285 281
312 315 317 319 320 320 320 320 321 317 313 312 309 304 302 302 301 301 301 300 299 298 296 294 294 294 292 293 291 290 289 289 288 288 288 287 288 290 290 290 288 287 279
312 314 316 316 318 317 315 312 314 312 312 309 307 305 305 304 302 301 300 299 298 296 296 295 294 292 292 293 291 290 289 288 287 288 287 287 287 286 285 284 284 283 281
310 312 313 314 315 314 310 309 310 311 308 305 305 303 302 304 304 301 300 297 298 297 295 293 292 292 292 292 290 289 289 288 287 287 286 286 286 284 283 281 281 280 278
309 311 312 312 312 312 311 309 308 306 304 303 302 302 303 304 302 300 299 299 297 296 294 294 293 293 292 290 289 289 289 288 287 287 286 285 287 282 281 280 279 278 278
308 309 310 311 312 312 311 309 308 306 304 303 302 303 304 302 301 299 298 298 295 293 292 293 292 292 292 290 289 289 289 288 286 285 284 283 283 281 280 279 278 277 279
309 308 308 310 311 311 312 310 307 306 304 303 302 303 303 301 298 298 294 293 293 292 291 292 293 292 292 291 292 291 289 286 285 286 285 284 282 280 279 278 277 277 276
307 307 306 306 307 309 308 306 304 303 303 303 302 302 302 298 297 295 294 293 293 292 292 293 292 293 292 292 290 288 286 285 284 284 284 284 284 287 284 279 277 277 275
303 305 307 307 308 308 305 304 303 302 303 302 301 300 297 297 296 294 293 294 293 292 292 292 292 291 291 290 289 287 284 284 283 281 282 282 284 285 285 284 283 280 276
302 306 306 307 307 306 304 302 301 302 298 298 297 297 296 295 294 293 293 291 291 291 291 290 290 290 290 289 289 288 283 282 281 281 281 281 283 282 279 281 280 279 280
301 302 303 303 301 300 299 298 297 296 295 293 293 294 294 293 293 292 292 291 292 290 290 289 289 288 290 289 289 287 281 280 281 281 282 280 279 279 278 277 276 277 276
296 295 295 295 296 296 296 294 293 292 292 292 292 292 292 292 292 292 291 291 289 289 289 289 287 286 287 289 288 285 280 280 281 283 282 280 279 280 282 278 276 276 276
292 291 292 292 291 291 292 291 291 291 290 291 291 292 293 293 292 291 289 289 288 287 287 286 286 287 285 287 288 286 279 279 280 281 280 283 280 281 281 275 274 272 274
290 291 290 289 290 292 292 290 290 289 292 294 294 294 293 291 289 288 287 287 286 285 284 284 284 284 284 283 288 287 280 280 280 280 279 279 282 281 281 282 276 274 277
289 290 289 290 291 291 291 290 290 292 293 293 292 290 289 289 289 286 286 285 284 283 282 278 281 281 283 285 286 287 286 283 279 279 281 279 282 282 283 281 281 281 279
289 290 289 289 290 291 290 288 289 290 291 290 288 287 287 287 287 285 284 283 282 280 281 281 280 280 282 283 286 286 287 286 280 280 280 281 282 282 281 282 282 278 275
290 291 290 288 288 289 289 289 289 289 287 286 285 285 285 285 285 284 284 282 278 277 280 280 280 279 280 280 281 281 283 286 283 280 281 278 278 274 275 275 278 277 274
289 289 288 288 288 288 287 287 287 287 286 285 285 284 284 283 283 284 284 283 282 281 280 280 280 277 277 280 283 283 281 280 282 278 277 278 275 275 275 276 276 276 275
288 288 288 287 286 286 286 286 286 286 284 283 283 282 281 281 282 282 283 285 285 285 285 286 282 282 284 285 286 286 286 285 283 279 275 276 272 273 273 273 274 275 273

GFSMW_sfc_thetae_051.txt.gz
Theta_e
321 322 322 321 317 317 320 319 317 316 317 314 311 309 309 309 307 307 308 309 307 306 303 301 300 298 298 298 297 296 295 294 294 292 292 291 292 291 291 291 290 292 292
317 319 317 317 316 318 320 318 318 316 317 316 311 311 309 308 307 307 307 308 307 305 303 300 299 298 298 297 296 295 294 294 293 291 288 287 289 290 292 291 291 289 290
315 316 314 315 315 318 319 319 318 317 316 315 311 307 306 305 304 304 305 307 305 305 303 301 299 298 298 296 295 295 294 291 292 293 290 285 283 286 289 289 290 289 289
314 314 313 313 316 318 320 320 319 317 316 315 311 308 306 304 304 304 304 306 305 303 302 300 299 298 298 296 295 294 292 293 289 290 293 290 289 285 284 287 288 288 289
311 312 313 314 317 318 318 318 318 317 317 315 313 309 306 305 304 304 304 304 302 302 301 300 299 297 296 293 292 292 291 291 289 288 288 288 287 286 285 282 284 288 290
310 312 314 316 318 318 318 317 317 317 318 316 314 310 307 305 304 303 303 301 300 299 299 298 297 297 296 293 291 291 290 289 288 289 288 288 288 287 286 284 286 289 289
307 309 313 316 318 318 318 319 317 317 317 317 315 312 308 306 305 304 304 299 297 295 296 297 297 296 295 294 292 291 290 290 288 289 289 290 289 290 290 288 288 286 286
308 311 316 318 318 319 319 320 318 318 317 317 316 313 309 307 306 305 302 299 298 297 296 298 297 296 295 295 294 291 289 288 288 288 287 288 288 288 289 288 288 284 281
307 312 316 318 318 319 320 320 319 319 318 317 316 308 307 305 302 301 301 299 298 298 297 296 295 295 295 294 290 289 288 288 288 288 287 286 287 287 288 288 286 285 276
307 310 316 318 319 319 320 319 320 319 316 312 308 305 303 303 302 302 300 298 298 296 296 296 296 294 294 292 290 288 288 288 287 288 287 286 287 286 284 283 283 283 281
309 312 314 317 319 319 319 318 318 315 308 307 304 303 303 302 302 300 298 297 297 297 298 296 294 293 292 291 289 288 288 288 288 287 286 285 285 283 282 282 281 279 278
310 313 314 315 315 316 316 316 314 312 308 307 305 303 303 301 299 298 297 299 299 298 296 295 293 293 291 290 290 289 288 287 287 287 285 285 286 283 282 280 279 279 278
308 310 311 312 313 314 314 311 308 307 305 304 303 301 301 300 298 299 300 299 296 296 294 293 292 291 291 291 289 288 288 287 287 286 284 284 283 282 281 280 278 277 279
307 306 308 310 312 312 310 308 307 306 304 303 302 301 302 301 301 300 298 295 293 293 292 292 292 292 292 291 290 290 289 288 287 285 284 284 283 281 280 279 278 277 276
306 306 305 307 308 308 308 305 304 304 303 303 303 302 302 300 298 296 293 293 294 293 293 292 292 291 291 291 289 289 286 285 284 284 284 283 284 285 283 280 277 276 275
302 305 305 306 306 307 304 303 302 303 304 303 303 299 297 296 296 295 294 293 293 293 292 292 291 290 290 290 290 288 284 284 282 282 281 282 284 285 287 286 284 279 276
302 304 303 304 305 303 302 300 301 303 300 298 297 297 296 295 294 293 292 292 292 292 291 290 290 289 288 290 290 289 283 282 281 280 280 281 283 283 281 283 282 281 281
297 297 300 299 299 298 298 297 296 295 295 295 294 293 293 292 293 293 293 293 293 290 289 288 288 287 288 289 290 288 283 281 281 280 282 282 281 280 279 278 277 277 277
291 291 292 293 294 293 293 293 292 292 292 291 292 292 293 292 292 293 292 291 289 288 287 287 286 285 285 288 289 287 282 280 280 281 281 282 280 282 283 278 277 277 277
290 290 290 290 290 290 291 291 289 289 290 291 292 293 293 294 293 291 289 288 287 286 285 284 284 286 284 287 289 287 280 279 280 280 281 284 282 282 282 276 275 273 276
289 290 290 289 289 290 291 290 290 290 293 294 294 295 294 291 290 287 286 285 284 283 282 283 283 283 283 284 288 288 281 281 280 280 280 280 283 283 282 282 276 274 277
288 289 289 288 289 290 292 291 291 293 294 293 292 290 290 288 287 285 284 284 283 282 282 278 281 281 282 285 286 288 287 284 280 280 281 281 283 283 283 282 281 282 279
286 288 288 289 290 290 290 289 289 289 289 289 287 286 286 286 285 283 283 282 281 280 280 281 280 281 281 281 285 287 287 286 282 282 282 282 283 284 282 283 283 279 276
287 289 288 288 288 289 289 289 288 287 286 284 284 284 283 283 283 283 283 281 280 279 281 280 280 280 280 279 280 280 281 285 285 282 283 281 281 279 278 277 279 276 275
288 288 288 288 287 287 286 285 284 285 283 283 283 283 283 282 282 282 283 283 283 283 283 283 282 281 280 281 283 281 279 279 281 281 281 279 278 278 277 277 276 275 274
288 287 286 285 284 283 284 284 285 284 283 283 282 281 280 280 281 281 282 285 285 285 286 286 284 285 284 285 286 286 286 286 285 280 278 277 277 277 276 275 276 274 273

GFSMW_sfc_thetae_054.txt.gz
Theta_e
317 318 318 318 319 315 319 319 316 315 315 315 313 310 310 309 309 311 311 308 305 304 303 301 299 298 297 297 296 295 294 294 294 293 292 292 292 292 292 292 292 293 293
317 319 318 318 316 316 319 318 318 316 316 317 310 311 309 309 308 310 308 308 305 303 302 300 298 297 297 296 296 295 294 294 293 291 289 286 289 291 292 292 292 292 291
315 318 318 316 316 315 318 319 318 316 317 315 311 307 308 307 307 304 305 306 305 304 302 300 298 297 297 295 295 295 294 291 291 292 289 283 283 286 290 290 291 290 291
317 317 318 315 316 316 318 319 318 316 316 314 311 308 307 305 305 304 304 305 304 303 301 299 298 297 297 296 294 294 292 291 288 290 293 290 289 285 285 289 289 290 291
314 316 317 317 316 316 317 319 318 316 316 314 313 310 308 308 307 306 304 304 302 301 300 299 298 296 295 293 293 292 291 290 290 288 288 288 288 287 286 285 286 291 292
310 314 316 314 314 314 315 316 317 316 316 315 313 310 309 308 307 303 303 301 299 299 298 298 296 295 294 293 294 292 292 291 289 289 289 288 288 287 286 284 285 288 288
307 309 310 311 312 314 315 316 316 316 316 316 314 313 311 311 307 304 304 299 297 295 295 295 296 295 295 295 293 294 293 292 291 290 290 289 290 290 289 288 288 284 286
306 308 310 312 314 315 316 316 316 317 316 317 316 313 313 309 306 304 303 301 298 295 296 295 295 296 296 295 295 294 292 291 289 288 287 289 289 289 289 288 287 284 285
302 306 309 312 315 316 316 316 317 318 318 317 317 313 311 307 305 303 301 298 296 297 295 296 296 296 297 295 294 292 291 290 288 288 289 287 287 287 288 288 287 284 280
302 305 309 313 316 317 317 317 318 318 318 317 316 314 310 307 304 301 299 298 298 296 296 295 297 297 295 294 293 291 290 288 288 288 287 286 286 286 285 285 285 285 283
304 306 311 315 316 316 317 318 319 318 317 315 313 309 305 303 302 301 299 298 298 298 297 297 296 294 294 293 291 290 289 288 287 288 287 286 285 284 283 283 282 281 280
306 308 310 313 314 316 316 318 318 318 314 311 307 304 303 303 303 299 300 299 299 300 299 297 294 294 293 292 291 289 289 288 287 287 286 285 286 283 282 281 281 279 279
306 308 310 311 314 315 315 315 315 313 307 307 305 304 303 302 301 299 299 301 300 298 295 295 294 293 292 291 291 290 289 288 287 287 285 284 283 281 282 282 280 279 280
306 306 307 309 310 311 310 310 307 306 306 305 305 303 302 302 299 300 301 299 296 294 293 293 293 293 292 292 291 289 288 287 287 286 285 283 282 281 282 280 279 279 277
304 305 305 306 307 308 306 305 304 303 304 302 302 302 302 301 300 299 296 295 294 292 293 293 293 293 292 291 289 288 287 286 285 284 283 283 284 286 284 280 279 278 276
301 302 304 304 306 305 304 302 301 301 303 302 301 301 300 298 295 294 294 294 293 293 293 293 292 291 291 290 291 289 285 285 283 283 282 282 285 285 287 288 287 280 277
297 300 301 302 303 301 300 299 300 301 299 298 298 297 296 295 294 293 292 292 293 294 292 292 290 289 288 289 290 290 285 284 283 282 281 281 283 285 283 283 286 284 283
291 292 295 295 295 296 295 295 295 295 294 294 293 293 293 292 293 294 294 294 294 293 291 288 287 286 287 289 289 289 285 283 282 282 281 280 281 281 282 280 278 278 279
289 288 289 290 291 291 292 291 291 291 291 292 292 293 293 293 293 293 293 293 291 289 286 286 285 284 284 287 288 287 284 282 282 282 281 281 281 284 285 280 278 278 278
288 288 288 289 288 289 290 290 290 291 291 292 292 294 295 295 294 293 291 289 287 286 285 284 284 285 283 286 288 287 282 281 282 281 281 284 283 284 284 279 277 275 277
287 288 288 288 288 290 291 290 291 291 293 295 296 295 294 292 290 287 286 284 283 283 282 282 282 283 283 283 287 288 284 283 282 281 281 281 284 285 284 283 278 276 278
287 288 287 287 288 289 290 290 291 293 293 292 290 289 288 287 286 284 283 283 282 281 281 279 281 282 283 284 285 287 287 285 282 281 281 282 284 285 285 283 282 281 279
286 287 287 287 288 288 289 288 288 288 287 286 285 284 284 284 283 283 282 282 281 280 281 281 281 282 283 281 285 286 286 286 283 283 282 283 284 285 283 284 283 281 279
285 286 287 286 286 286 286 286 286 286 284 283 282 283 282 283 282 282 282 281 279 279 281 281 281 282 282 282 281 281 281 284 284 282 284 282 282 281 282 281 282 282 279
286 287 285 285 284 286 285 285 284 284 283 282 282 282 281 281 281 281 281 281 281 281 281 282 282 282 282 283 285 283 282 282 282 281 281 281 280 280 279 279 279 279 278
286 284 284 284 283 282 281 282 282 281 280 280 280 279 279 278 279 279 279 283 283 284 284 284 282 283 284 286 286 287 287 286 285 281 280 280 279 278 278 278 277 278 276

GFSMW_sfc_thetae_057.txt.gz
Theta_e
320 321 322 323 325 326 326 327 327 326 324 322 320 320 321 323 323 321 321 319 317 314 313 309 308 309 308 308 308 306 306 305 306 304 303 303 303 302 302 303 304 302 303
319 320 321 322 322 324 325 325 326 325 324 324 323 323 322 322 323 321 319 318 315 314 312 308 309 308 307 307 307 307 305 305 304 300 299 296 298 300 302 302 302 303 303
318 320 320 321 323 322 324 324 325 325 324 324 321 319 319 318 317 317 318 316 314 312 310 309 309 308 308 307 307 306 305 302 302 301 297 293 292 295 299 300 301 301 302
318 321 322 321 322 322 325 325 325 325 324 322 321 319 319 319 318 317 317 316 311 309 308 309 308 308 307 306 306 304 303 301 297 299 300 300 297 292 291 298 299 300 299
318 320 322 324 324 324 323 325 325 324 324 322 322 321 320 322 316 315 315 314 313 311 308 308 307 307 307 305 304 302 301 300 297 297 297 297 298 297 293 290 294 297 298
318 320 323 325 323 323 323 324 324 323 323 322 321 320 320 317 313 313 312 312 311 309 309 307 307 307 305 303 300 299 297 296 299 297 297 296 295 294 294 292 292 292 294
317 317 320 321 322 320 322 323 323 323 323 322 320 318 317 317 315 314 310 311 309 307 307 307 305 303 302 301 298 296 296 296 297 298 298 298 297 297 296 294 292 290 292
317 316 318 321 321 320 321 322 322 323 322 321 320 317 316 317 317 313 310 310 310 308 306 304 303 301 300 298 297 296 295 296 299 298 297 297 297 297 295 293 292 289 289
314 314 316 319 320 319 321 322 322 322 322 321 322 318 317 317 315 310 311 312 311 305 302 301 301 301 300 298 296 296 294 295 297 297 297 296 297 296 295 295 294 290 286
306 310 313 316 318 320 322 322 323 322 323 322 321 320 318 318 315 312 311 308 305 302 300 301 301 300 299 299 298 295 294 294 296 296 296 296 295 295 295 295 294 293 289
309 309 311 315 318 321 321 321 321 322 322 322 321 320 319 318 314 310 307 304 300 300 299 300 300 300 297 296 295 294 294 295 296 295 295 295 295 294 294 293 292 290 289
310 312 312 316 319 320 321 321 322 322 322 321 319 319 317 313 310 306 303 301 299 300 301 301 298 296 295 294 293 294 295 295 294 295 294 294 293 293 293 292 290 289 290
313 313 314 316 318 320 321 321 320 320 320 317 316 312 310 308 306 303 301 301 301 301 301 297 296 297 296 296 297 297 296 295 295 295 294 294 294 292 292 291 289 290 289
308 313 314 315 317 318 319 318 318 317 313 310 309 307 306 305 304 303 301 301 302 299 297 296 295 296 295 295 297 296 296 296 295 295 294 294 293 292 292 290 289 289 287
306 308 311 314 316 316 315 314 311 309 308 307 306 304 304 302 302 302 301 297 297 296 296 296 295 295 295 295 295 296 296 295 295 295 294 294 293 291 290 289 289 287 286
304 306 307 310 312 311 310 307 307 307 309 307 304 302 301 300 298 297 296 296 296 295 294 294 294 294 294 292 291 292 296 295 293 293 294 293 289 289 288 289 288 287 287
300 302 302 304 306 306 305 304 305 305 304 303 301 298 297 296 296 294 294 293 293 297 296 294 294 293 296 291 291 290 294 294 294 293 292 291 289 288 289 287 286 286 286
296 297 299 299 300 301 301 300 300 299 298 296 295 295 294 293 296 296 296 296 296 295 296 294 295 294 293 289 289 289 294 294 293 293 292 291 291 290 289 287 287 287 287
292 293 295 296 296 297 297 297 296 296 294 293 294 295 295 295 296 295 294 295 295 294 294 293 293 292 292 289 288 288 292 291 291 292 291 291 290 288 286 286 285 285 285
292 292 293 294 294 295 296 295 294 294 294 296 297 298 297 296 295 294 293 294 294 292 291 291 291 290 290 289 288 288 291 290 290 291 291 287 288 286 285 286 286 283 284
291 293 293 292 293 295 296 294 295 294 296 297 295 293 292 292 293 292 292 291 291 290 290 289 290 290 290 290 288 288 289 290 290 289 289 290 286 285 285 285 286 285 286
291 292 292 292 294 296 296 294 292 293 293 291 290 290 290 289 289 290 290 289 289 288 288 288 288 290 289 288 288 288 287 288 288 288 290 290 287 285 285 286 285 284 283
290 292 291 290 291 292 292 289 289 290 290 289 288 288 288 288 288 288 287 287 287 286 285 285 285 285 288 288 287 286 285 285 287 289 289 287 286 285 285 285 285 283 283
289 290 289 287 287 288 288 287 287 288 288 287 286 286 285 284 285 284 284 284 283 283 282 282 282 283 283 285 286 287 288 286 287 286 287 286 285 285 286 285 285 285 286
288 288 287 286 286 285 284 284 284 286 285 284 283 282 282 281 281 282 282 281 282 282 281 282 281 281 281 282 282 283 283 284 284 285 286 285 285 283 283 284 284 285 285
287 287 285 283 282 281 281 282 283 282 282 280 280 279 280 280 280 279 279 280 280 280 281 281 280 281 280 279 280 280 282 283 284 284 283 284 284 283 283 283 283 283 282

GFSMW_sfc_thetae_060.txt.gz
Theta_e
323 326 326 328 327 326 327 328 329 331 333 331 326 324 324 326 329 331 333 331 330 328 326 322 317 316 315 314 315 313 312 310 313 310 309 308 307 307 306 306 306 305 305
322 324 326 326 328 326 327 328 330 333 332 330 327 325 325 327 328 331 331 331 328 327 324 321 317 314 316 315 314 313 311 312 311 307 305 304 305 305 305 306 304 306 305
320 323 324 326 327 327 328 328 330 332 332 332 328 326 326 327 327 327 327 328 326 324 322 318 315 314 316 314 314 313 311 309 308 306 302 302 301 301 304 303 303 304 304
320 323 325 326 327 328 329 329 330 331 331 333 328 325 322 320 325 327 328 328 325 323 320 315 314 315 314 314 314 313 312 309 305 302 301 303 302 298 296 301 302 304 302
321 322 325 326 328 329 330 330 329 330 332 331 330 327 324 323 326 328 326 325 322 318 315 315 313 313 314 315 313 311 309 303 299 300 300 301 301 300 296 293 296 300 301
322 323 324 328 329 331 331 331 330 330 331 331 331 330 328 326 325 324 323 323 322 319 316 312 312 313 314 314 312 310 304 301 298 298 298 297 297 297 296 295 296 296 298
322 323 323 325 328 330 331 331 331 329 331 332 331 331 330 328 324 322 323 321 318 315 312 311 311 313 314 312 308 303 302 299 298 298 299 299 299 299 298 296 295 294 296
321 323 324 325 327 329 330 331 329 329 330 331 330 330 329 327 323 321 323 322 315 310 312 311 313 313 311 304 303 299 303 302 298 299 299 298 299 299 298 296 294 292 293
317 321 324 326 328 329 330 330 329 328 329 330 330 328 327 324 320 322 322 320 314 312 312 314 312 304 302 305 300 301 300 298 298 299 299 298 300 300 299 298 297 294 290
314 317 320 324 327 329 330 332 331 330 331 331 329 325 324 324 323 321 321 317 313 315 313 309 301 304 303 303 300 298 297 296 296 297 299 300 299 299 299 298 297 296 293
315 315 318 320 323 327 328 328 329 329 329 329 329 324 323 323 323 321 317 314 313 311 309 302 302 301 302 299 297 297 295 294 297 299 299 299 300 298 298 298 297 295 294
316 318 318 319 321 323 325 326 327 327 327 328 327 323 323 321 321 318 313 311 307 303 302 301 302 301 298 296 295 295 296 298 298 299 299 298 297 298 298 297 296 295 295
316 318 319 320 321 323 324 325 326 326 327 325 322 320 319 317 313 308 304 302 301 300 300 302 300 296 296 295 295 297 299 300 299 299 298 298 298 297 297 296 295 295 293
309 317 319 321 323 324 325 324 323 322 319 317 314 310 309 307 304 303 302 301 302 301 302 298 297 296 296 297 298 298 299 300 299 299 298 298 298 297 296 295 295 294 292
310 312 318 321 323 324 324 320 315 312 311 309 308 307 306 305 303 302 301 302 302 299 299 297 296 297 297 297 298 298 299 299 298 299 298 299 297 295 295 295 294 293 292
310 312 315 319 318 319 318 317 315 314 312 308 305 303 303 302 301 301 302 303 301 299 297 296 295 295 295 293 292 293 299 298 297 297 298 298 295 294 291 289 289 290 291
309 310 312 314 314 314 314 313 312 312 310 306 304 304 305 304 303 302 298 295 296 295 295 295 296 296 297 293 293 291 296 297 297 297 297 296 295 294 295 290 288 288 287
306 308 309 310 310 311 310 310 309 307 305 303 303 302 301 299 298 299 298 297 297 296 297 298 296 298 299 291 290 289 295 295 295 296 296 295 295 295 294 293 292 292 291
304 305 307 307 308 307 307 306 304 302 300 300 301 301 301 300 298 297 297 297 297 297 296 298 297 297 297 291 289 289 294 294 294 295 295 295 294 292 291 292 291 290 290
302 303 304 305 305 305 305 303 301 301 301 301 300 301 302 300 297 295 295 299 299 297 296 294 295 293 294 291 290 290 293 292 293 294 294 290 291 290 288 291 290 288 289
301 302 303 302 303 303 303 301 301 300 300 301 299 298 296 297 297 296 296 296 295 294 294 293 294 294 293 293 289 289 290 290 290 290 291 293 289 288 287 287 290 290 290
299 300 300 300 302 303 302 300 298 299 299 297 294 294 294 293 293 294 294 294 294 292 292 292 290 291 291 288 288 287 287 287 287 287 288 290 288 288 287 287 287 286 286
299 300 299 299 299 299 299 296 295 296 295 294 293 292 292 292 291 291 291 290 289 287 287 286 286 287 288 288 286 285 283 283 285 287 287 286 286 286 286 286 285 285 288
297 297 295 294 293 294 294 293 293 294 293 291 290 290 287 288 287 287 287 286 286 285 284 284 284 284 284 285 284 283 284 283 284 285 288 286 284 284 285 286 287 286 287
296 296 294 292 291 291 290 290 291 291 289 288 286 286 286 285 286 285 284 284 284 282 282 283 282 281 281 281 279 279 280 282 282 282 285 286 286 286 286 287 286 288 287
294 293 291 289 287 286 285 285 287 288 286 284 284 283 284 284 284 284 284 280 279 279 280 279 279 280 278 277 278 278 278 279 280 283 283 284 285 285 285 286 286 286 285

GFSMW_sfc_thetae_063.txt.gz
Theta_e
322 324 325 324 324 325 324 324 324 326 328 327 324 322 322 324 325 328 331 333 333 332 331 329 326 322 320 319 320 318 315 313 314 311 312 311 311 309 309 309 308 307 307
321 322 324 323 324 323 324 325 324 325 328 328 327 324 323 323 325 327 331 333 332 331 329 329 325 322 320 320 319 318 314 314 314 310 309 306 307 308 308 308 308 308 307
320 322 322 324 324 324 325 326 327 328 329 329 328 324 324 324 324 325 327 332 332 330 329 329 324 322 320 318 319 317 315 311 312 310 307 304 300 304 308 308 307 307 306
320 323 324 325 327 326 327 327 328 329 330 331 328 325 320 318 322 324 327 328 329 328 327 326 324 321 319 318 316 317 317 315 310 309 305 303 302 299 299 305 304 305 304
319 321 324 326 328 329 329 330 328 328 330 330 330 327 324 323 324 325 327 328 329 328 326 324 320 319 318 318 316 317 315 314 311 303 300 303 303 305 299 297 300 302 303
319 320 323 326 327 329 331 331 329 329 330 331 331 331 328 327 323 324 327 327 327 325 324 321 319 319 316 315 314 317 315 308 304 300 301 299 299 298 297 297 298 298 300
321 321 320 323 326 327 329 331 330 328 330 331 331 331 331 330 328 326 326 325 325 322 322 320 317 315 313 312 313 314 310 302 301 302 301 299 300 299 298 297 296 296 298
319 321 323 322 325 327 329 330 330 329 330 332 332 333 333 332 331 325 323 324 324 324 324 322 315 311 312 311 311 306 301 303 301 299 299 298 299 299 299 298 296 294 294
316 320 323 325 324 327 330 333 331 330 331 333 334 334 335 333 332 330 328 323 325 320 316 313 311 310 310 305 304 300 302 300 298 299 299 297 299 301 301 300 298 294 290
316 319 322 325 327 328 332 334 333 331 331 332 333 332 332 330 330 328 325 324 323 318 313 311 310 305 303 301 302 301 298 297 298 297 296 298 301 301 300 300 298 297 294
316 318 320 323 326 329 331 332 332 332 332 333 332 332 328 326 325 324 322 322 322 319 314 311 303 302 301 302 302 298 296 295 295 296 298 299 301 300 300 299 298 296 295
315 318 320 321 322 326 328 330 331 332 332 333 333 328 326 324 322 321 321 320 314 309 306 303 302 302 301 300 297 295 296 295 295 298 300 300 299 300 300 298 297 296 296
315 317 320 321 322 324 326 328 329 329 329 329 329 325 322 321 313 308 306 304 303 302 301 302 301 301 298 296 296 296 296 297 299 300 300 300 299 299 299 298 297 297 295
313 316 318 321 324 325 326 327 327 327 326 323 317 313 311 308 305 303 302 301 301 301 301 301 298 298 297 296 296 297 298 299 299 301 300 299 299 298 298 298 298 297 296
311 312 318 321 323 326 324 321 317 315 315 312 309 307 306 305 304 303 302 302 302 301 299 298 297 297 297 297 297 298 297 298 298 300 300 300 299 296 296 296 297 296 295
312 314 317 322 323 324 320 315 312 310 310 307 305 305 305 303 303 302 300 300 299 299 298 298 297 296 297 293 293 294 295 297 298 298 299 300 297 297 293 292 292 293 293
313 315 318 320 320 320 318 315 312 311 308 306 306 306 305 304 304 304 302 300 300 298 296 295 295 296 298 293 293 292 298 297 297 297 297 297 297 295 297 293 290 290 289
312 314 316 316 317 317 316 315 314 312 310 309 308 307 305 303 303 302 302 300 297 296 297 297 298 299 300 295 293 290 295 295 295 296 296 297 297 297 296 296 295 295 294
312 313 314 314 313 313 312 310 309 308 306 305 304 304 304 302 302 300 299 300 298 298 299 300 299 298 298 292 290 290 293 293 293 294 294 294 295 293 292 293 292 293 293
309 310 311 311 310 310 309 307 306 306 305 304 304 304 303 302 301 300 300 300 301 298 298 296 296 291 294 289 289 290 292 290 291 291 292 290 290 288 288 290 291 289 291
307 309 309 308 308 309 308 306 306 304 304 304 303 302 300 299 300 299 298 297 296 295 295 294 295 295 293 292 288 287 287 287 285 286 287 289 287 287 287 287 288 288 291
305 307 306 306 307 307 306 304 302 303 302 301 299 298 297 296 296 296 295 295 295 294 292 291 290 291 291 287 286 284 283 283 283 283 285 286 285 285 285 285 286 286 286
304 305 305 304 305 306 305 302 301 300 299 298 296 295 294 294 293 293 292 292 290 289 288 287 287 287 288 288 285 283 282 282 283 284 284 283 283 284 285 285 285 285 286
303 304 303 302 301 301 300 299 299 298 296 294 293 292 291 290 289 289 289 288 288 287 285 285 285 285 284 285 283 281 281 281 282 281 283 282 282 283 283 284 286 288 286
303 302 300 298 297 297 296 296 296 296 293 291 290 289 288 288 287 287 286 285 284 282 283 284 283 281 281 280 278 278 279 279 279 280 282 284 284 284 285 286 287 287 288
300 299 297 296 294 293 292 293 293 292 290 287 287 287 287 286 286 286 284 280 280 280 280 278 279 280 278 277 277 277 278 278 279 279 280 280 280 280 281 282 283 287 287

GFSMW_sfc_thetae_069.txt.gz
Theta_e
317 317 315 315 315 315 314 314 315 316 317 315 314 318 315 315 316 318 323 323 322 324 321 320 318 315 314 313 311 310 309 307 306 303 303 303 303 302 301 300 300 301 300
315 317 315 315 314 311 312 313 314 315 318 319 319 316 317 316 316 317 319 324 323 324 323 320 319 315 314 313 310 310 308 308 307 302 302 298 300 301 302 301 302 301 301
314 315 313 313 313 310 311 312 314 317 320 319 318 316 316 316 316 315 318 324 326 326 325 323 321 317 316 314 311 310 309 308 309 305 304 298 295 296 300 301 303 302 299
316 316 313 311 313 314 315 316 317 319 320 319 318 316 316 315 316 316 317 324 326 326 326 325 323 319 317 315 313 315 314 310 307 305 303 300 299 294 293 298 301 302 299
314 314 313 314 314 316 318 318 319 319 320 320 319 317 315 315 315 315 317 323 325 325 325 324 321 318 317 315 315 314 312 311 309 304 300 300 299 299 295 292 296 299 297
315 315 316 317 317 318 318 318 318 318 319 320 320 321 318 314 313 315 316 321 324 324 323 324 322 318 315 314 312 312 312 308 305 302 301 300 298 298 296 294 293 292 295
314 315 315 315 316 316 317 318 319 318 319 319 320 320 320 317 314 314 316 320 321 323 322 321 316 315 313 311 312 311 308 304 302 300 300 300 299 298 298 296 294 292 292
313 314 315 317 316 317 318 318 318 320 320 320 321 321 321 320 319 317 318 321 322 321 318 315 313 312 311 310 310 307 302 302 300 300 299 298 298 299 298 296 294 291 288
312 314 317 317 319 318 319 320 319 320 321 322 323 322 322 322 320 320 320 322 321 318 317 316 312 310 309 308 306 303 301 301 300 298 298 297 298 298 298 297 296 293 285
309 312 314 319 320 321 322 322 322 321 321 322 322 324 323 323 323 322 319 319 320 317 315 314 312 310 307 304 303 300 300 299 298 298 297 297 297 297 296 296 295 294 290
307 309 311 316 321 322 322 323 323 323 323 323 323 323 322 323 322 321 321 321 319 316 313 312 310 306 303 302 301 299 298 297 296 297 297 296 297 295 296 295 295 293 291
308 310 311 313 316 320 322 323 324 324 325 325 324 323 321 322 321 321 322 318 316 314 312 308 305 303 301 301 299 297 297 296 296 296 295 295 297 296 296 295 293 291 291
308 310 311 312 313 317 320 322 324 325 329 326 322 321 318 320 319 313 312 311 309 307 306 305 303 301 300 298 297 297 297 296 296 296 296 296 297 294 296 295 293 291 293
306 309 310 311 315 319 318 316 316 325 322 316 312 310 309 307 307 306 305 303 304 303 302 302 300 298 298 298 297 297 296 297 297 298 298 298 296 296 292 292 291 291 288
305 307 309 312 315 313 311 310 310 310 310 308 306 304 304 305 304 302 302 301 301 300 300 298 298 298 297 297 297 297 296 297 297 297 297 297 296 296 294 295 291 288 287
306 308 314 317 314 312 309 308 307 307 307 305 304 303 302 302 301 300 300 299 299 298 298 297 296 296 297 293 294 296 296 296 295 293 293 293 294 293 292 291 290 289 288
308 311 317 316 312 310 308 305 304 305 305 304 303 303 302 301 300 300 299 297 297 297 296 296 296 295 296 293 294 292 293 291 290 290 289 290 291 289 287 287 287 286 288
308 315 314 312 310 308 306 305 306 305 304 303 303 303 301 300 299 299 298 297 296 294 293 295 295 296 296 292 292 290 290 289 288 287 286 285 284 285 285 283 282 282 284
310 311 313 311 309 308 307 307 306 306 305 304 303 302 301 300 300 298 296 294 293 294 295 296 295 292 288 289 288 288 285 285 283 284 283 283 282 285 285 282 279 279 279
311 311 312 311 309 308 308 305 305 305 303 303 302 301 301 299 296 294 294 295 295 296 296 294 290 288 285 287 287 285 281 279 279 280 281 283 283 284 284 280 279 278 279
309 309 309 307 306 307 306 303 302 301 301 301 301 301 299 297 297 296 295 295 293 290 287 286 287 285 284 284 284 283 279 278 279 278 278 278 281 281 282 283 280 280 282
306 307 305 303 303 304 303 301 299 301 301 300 299 298 298 299 297 293 291 291 289 286 284 283 282 282 281 283 282 282 281 280 278 278 277 278 280 281 282 282 283 283 281
304 304 303 302 302 302 302 299 299 300 299 297 296 294 293 293 291 289 287 286 285 282 281 281 281 279 279 277 279 279 279 279 277 278 278 279 280 280 280 280 280 279 278
301 301 301 300 299 300 300 299 299 297 295 292 290 289 287 286 285 286 285 282 280 279 280 280 278 278 276 275 275 276 274 277 277 277 276 276 278 277 277 276 277 277 276
300 301 300 299 298 298 297 296 295 294 291 289 286 285 284 282 281 281 280 278 278 280 278 277 278 274 272 276 276 276 276 273 277 274 274 275 275 275 274 274 274 274 274
299 299 297 294 293 294 293 294 294 290 286 285 283 281 280 280 280 279 279 281 281 281 281 280 277 278 278 277 277 278 278 278 278 273 270 267 266 269 272 271 271 272 272

GFSMW_sfc_thetae_072.txt.gz
Theta_e
315 314 313 313 314 316 317 318 317 317 318 315 314 315 314 314 315 318 320 321 321 321 319 318 316 314 312 311 310 308 307 307 303 302 301 301 301 299 299 298 300 300 300
313 313 312 311 312 313 314 314 316 315 316 315 313 316 314 313 317 316 319 321 320 321 319 318 316 313 312 311 310 308 307 307 305 301 303 300 301 300 300 298 299 298 299
312 313 312 310 312 312 312 312 315 314 315 316 313 314 314 313 313 313 315 320 321 321 321 319 317 315 313 311 309 308 307 305 306 306 304 299 298 298 301 301 300 300 298
314 314 313 311 311 311 312 312 313 312 315 317 314 314 313 313 314 314 314 318 322 321 322 321 318 316 314 312 311 311 309 309 308 307 303 301 301 297 296 299 300 301 301
313 313 312 313 312 310 310 310 312 313 315 318 316 316 314 316 314 313 313 316 321 323 323 322 320 317 316 315 314 312 310 311 308 305 300 300 300 301 297 296 298 300 299
314 314 313 313 309 309 310 310 311 313 316 318 317 316 315 312 312 314 313 315 320 322 323 323 323 321 316 314 314 312 312 310 308 304 302 301 300 299 298 296 296 295 296
314 313 311 310 310 309 310 312 313 313 316 318 318 317 315 313 313 313 314 314 318 320 321 322 320 317 317 313 312 312 311 308 307 305 302 302 301 300 299 296 295 293 295
313 314 313 312 311 312 313 314 314 315 317 318 318 319 318 317 316 314 315 316 317 320 323 322 319 315 315 311 310 310 306 305 304 303 301 301 300 300 299 298 295 292 292
312 313 314 314 314 314 315 316 316 316 317 317 317 317 318 319 318 317 314 317 318 320 317 318 316 315 312 311 309 306 303 304 302 301 300 300 299 299 299 299 297 293 288
312 314 315 315 316 316 317 317 318 317 317 318 317 317 317 319 320 317 315 317 316 316 317 314 312 311 311 308 307 304 302 301 300 300 299 298 298 298 298 297 296 295 293
308 311 314 316 317 317 317 317 317 317 318 319 319 318 319 320 320 318 318 319 318 318 319 316 312 311 310 307 304 302 300 300 298 298 298 297 298 296 295 296 296 294 291
306 309 313 315 316 317 317 317 318 318 319 321 322 321 320 320 320 320 320 321 319 317 315 314 311 308 306 304 302 300 299 298 297 297 297 297 297 295 295 295 293 290 290
305 307 308 310 314 318 318 319 320 321 323 323 322 321 321 321 320 321 319 315 314 315 311 308 306 304 302 300 300 299 298 298 298 297 296 296 296 295 295 293 293 295 295
306 306 307 310 315 316 317 319 320 322 322 318 316 316 314 315 317 315 313 311 311 307 306 306 304 301 299 299 298 299 298 297 297 297 297 297 297 296 294 294 293 291 287
305 307 307 313 312 313 313 313 312 310 313 310 309 306 306 306 305 305 304 304 304 304 304 300 298 299 298 298 298 298 297 296 297 298 298 297 296 296 294 293 288 287 287
302 305 310 313 311 310 310 310 309 308 309 307 304 304 304 303 303 301 300 300 300 300 299 298 298 297 297 293 294 296 296 297 296 294 293 291 289 289 288 288 287 286 282
307 311 313 314 310 310 309 307 307 308 306 305 304 303 303 301 300 300 299 298 298 298 297 296 296 296 296 293 294 293 295 293 291 287 286 287 286 285 284 284 284 283 285
309 312 313 310 308 308 307 307 307 306 305 304 303 303 302 300 300 299 298 297 297 296 295 295 295 296 296 292 292 290 290 286 285 283 283 281 281 283 282 281 279 279 279
311 311 311 308 306 305 306 306 305 305 304 303 302 302 301 299 299 297 296 295 294 295 295 296 296 293 292 291 289 287 283 282 281 282 281 281 280 283 283 280 278 278 279
311 309 308 308 306 305 305 304 303 303 302 303 302 302 300 300 297 296 295 293 294 295 296 294 290 288 286 288 287 284 280 278 278 279 280 281 280 281 281 279 278 278 279
310 310 309 307 305 305 304 302 302 302 303 303 301 300 298 296 295 294 294 293 292 290 286 285 285 283 283 284 284 283 279 278 278 278 277 277 280 281 282 282 279 279 279
307 308 306 304 305 305 303 300 298 300 300 299 297 296 296 296 295 293 292 290 288 284 283 281 280 280 280 283 282 282 280 279 278 277 277 277 280 281 281 279 280 279 278
304 304 302 300 301 301 301 298 298 298 297 297 295 295 294 293 291 289 287 286 285 283 281 281 278 277 277 277 280 279 279 278 277 278 278 278 279 279 279 278 278 276 275
301 302 301 300 298 299 299 298 297 297 295 291 291 289 285 284 284 284 283 282 280 280 281 280 278 277 276 275 276 276 276 277 277 277 277 276 277 276 276 276 276 275 274
300 301 299 298 296 297 295 296 294 293 290 288 285 283 282 282 280 279 279 279 280 280 280 279 279 275 274 276 277 277 277 275 277 275 275 275 274 273 273 273 273 273 272
299 295 294 291 288 289 290 292 292 289 286 284 282 282 281 280 280 279 279 282 282 282 281 280 279 278 278 278 278 278 277 278 278 275 272 269 267 269 271 270 270 270 270

GFSMW_sfc_thetae_075.txt.gz
Theta_e
314 315 316 316 316 316 317 318 317 317 317 316 315 314 314 317 318 321 320 320 319 318 317 315 314 313 312 312 310 307 306 305 302 300 299 300 300 298 297 298 302 304 304
313 311 310 314 314 314 316 317 315 316 317 317 317 317 315 315 316 317 318 320 319 319 318 316 314 314 312 309 307 307 306 305 303 300 301 298 299 300 301 297 298 299 299
310 311 310 310 313 313 315 315 315 315 317 316 313 315 315 314 313 312 315 317 319 319 318 317 315 312 311 309 308 307 307 304 305 306 303 300 298 299 300 300 300 299 299
312 311 310 308 309 312 313 313 314 314 315 315 311 312 311 310 312 313 313 316 318 318 319 318 316 313 312 309 310 309 308 307 305 305 303 302 303 299 297 300 301 302 301
312 311 310 310 310 312 312 311 312 314 315 315 312 311 309 310 311 312 312 312 316 318 319 319 316 315 313 314 312 311 308 309 309 305 300 300 301 301 299 297 299 301 301
312 312 312 312 311 309 310 310 310 310 313 314 314 311 311 311 311 310 311 311 313 317 319 319 318 318 316 313 313 312 310 309 308 306 303 300 300 300 299 298 298 298 298
311 312 311 310 311 308 308 309 309 309 311 313 315 314 313 312 312 313 313 312 312 315 318 319 319 319 319 316 314 314 312 308 307 306 305 304 304 302 302 299 297 295 296
312 312 312 310 310 308 307 308 309 309 310 312 314 316 315 315 314 314 315 314 314 315 318 319 320 320 317 316 314 313 312 309 308 306 305 305 303 302 301 299 297 293 293
312 312 313 311 310 308 307 308 309 309 311 312 314 316 316 315 315 314 312 314 313 315 317 320 320 317 313 314 313 311 308 307 306 304 304 304 301 301 301 300 298 296 291
311 313 314 313 312 310 309 309 310 311 312 313 315 316 317 317 317 315 313 312 314 315 316 315 313 312 312 310 310 308 306 306 304 303 302 300 300 299 299 298 298 296 294
310 312 313 315 314 313 312 312 312 313 314 315 316 315 314 314 316 316 314 315 316 316 316 316 315 312 310 309 308 306 304 303 301 300 300 299 299 298 297 296 296 295 294
310 312 313 313 314 314 314 313 314 315 317 318 319 317 318 317 317 317 317 317 318 318 318 319 319 313 310 309 307 303 303 302 301 299 298 298 298 296 296 295 294 294 292
307 309 312 313 313 314 314 315 316 316 317 319 319 319 319 318 318 317 318 318 319 319 320 316 313 311 309 306 304 303 301 300 300 299 298 297 296 295 295 295 294 293 295
305 307 308 310 313 314 315 315 315 316 317 318 318 318 318 318 318 318 318 319 320 317 313 313 311 306 303 302 301 301 300 299 298 298 297 297 297 296 295 295 294 293 290
302 305 307 308 310 310 312 313 314 315 318 317 317 316 312 312 312 314 316 312 311 310 308 305 302 301 300 301 300 299 298 297 296 297 298 298 296 293 292 293 287 284 282
301 304 306 311 310 311 309 310 311 310 312 310 311 308 308 307 305 304 303 302 302 302 301 300 299 298 299 296 295 297 297 297 296 295 293 290 289 288 288 287 287 284 280
301 304 308 312 310 309 311 311 309 310 309 308 306 305 305 303 302 302 301 300 301 300 298 297 298 297 296 293 294 293 296 294 292 289 288 286 285 284 282 283 282 282 282
300 303 308 310 308 309 310 308 309 308 307 306 306 305 304 302 301 300 299 298 297 296 296 296 296 296 295 292 292 291 290 287 285 284 283 282 281 282 281 280 278 279 279
304 307 309 308 309 309 308 307 307 306 305 304 304 304 302 300 299 298 296 296 296 296 296 296 296 295 294 290 289 288 285 283 281 281 281 280 279 282 282 279 278 278 279
308 307 306 307 307 307 308 306 305 305 303 303 302 302 301 300 298 296 295 296 297 296 296 291 290 290 289 289 288 285 282 280 279 279 279 281 280 280 281 280 278 277 277
308 307 306 305 305 306 307 305 304 303 304 303 301 301 300 298 297 296 295 295 295 291 286 284 284 284 285 285 285 284 279 279 278 278 277 277 279 281 281 281 279 278 277
306 306 304 303 304 304 303 302 302 303 303 301 299 297 297 296 295 294 293 291 289 285 283 282 280 281 282 283 283 282 281 280 279 277 277 278 279 280 280 278 278 278 276
305 305 304 302 302 302 302 298 298 300 299 297 296 295 294 293 291 291 287 285 285 283 282 281 279 277 278 278 281 280 279 278 278 278 278 278 279 279 278 277 277 276 274
302 302 301 299 297 299 299 298 297 297 296 293 290 289 287 285 285 285 285 284 283 283 282 279 277 276 276 276 277 277 277 278 278 277 278 277 278 277 276 276 275 274 273
300 301 299 296 295 297 296 297 296 294 289 287 286 284 283 281 280 281 282 281 281 283 282 280 279 276 275 276 278 278 277 277 278 276 276 274 273 273 273 273 273 272 272
297 294 291 291 291 291 290 291 291 289 286 284 283 282 281 280 280 279 279 282 282 282 282 281 279 279 279 279 278 278 278 278 278 275 272 269 269 270 271 270 270 270 269

GFSMW_sfc_thetae_078.txt.gz
Theta_e
313 315 316 315 316 317 318 319 317 318 318 318 317 317 317 319 320 320 319 316 316 316 314 313 311 312 311 309 308 307 306 304 302 301 300 300 300 299 298 299 303 304 307
313 315 315 315 315 316 317 317 317 317 317 317 319 318 316 317 320 320 319 319 316 315 315 313 312 313 311 310 308 307 304 304 302 300 299 297 300 301 301 299 300 302 305
312 313 313 313 314 314 316 317 316 317 317 318 317 315 315 316 315 314 316 317 318 316 316 315 314 313 311 310 307 306 306 304 303 303 302 298 297 299 302 302 300 300 301
312 312 312 311 312 313 315 317 316 316 317 317 316 313 314 314 315 313 315 316 317 318 318 317 315 314 312 309 309 308 306 306 303 304 304 303 304 300 299 300 302 301 300
311 311 311 311 312 313 313 313 314 314 316 315 315 313 311 312 313 313 313 313 316 317 318 317 315 313 312 311 309 308 306 307 306 303 300 300 301 302 300 300 299 301 302
311 312 312 310 310 311 311 310 312 313 315 314 311 311 309 310 309 310 312 312 312 315 316 317 316 315 314 312 311 310 308 307 306 304 303 303 302 301 300 299 300 300 301
310 310 309 308 308 308 308 309 310 311 313 314 313 311 311 310 310 310 311 309 311 311 314 315 314 315 315 314 313 311 310 308 309 308 307 306 305 305 303 301 300 299 299
310 310 311 310 309 309 309 310 309 310 310 312 312 313 311 312 312 311 310 310 310 311 313 315 316 317 317 316 314 314 313 312 311 310 309 307 306 304 303 303 301 294 295
309 310 311 311 310 309 308 309 309 310 310 310 311 312 313 311 311 312 311 311 311 312 312 314 316 315 315 314 313 314 313 312 312 310 309 305 305 304 303 302 301 299 293
308 310 311 311 311 310 309 309 310 309 310 309 310 311 311 312 312 311 311 312 312 313 313 314 315 313 313 313 313 314 312 310 310 309 307 306 303 303 301 301 299 298 296
307 310 312 312 311 310 308 309 309 309 309 309 310 310 312 313 314 315 315 314 314 314 315 316 316 315 314 313 312 312 309 307 307 305 305 305 303 300 299 298 297 296 295
306 309 312 312 310 309 308 308 309 309 311 312 313 313 315 316 316 316 317 317 315 315 316 316 316 316 314 312 311 309 306 306 304 303 303 301 300 298 297 296 295 295 294
305 307 308 310 312 311 310 309 309 310 311 313 314 314 315 315 315 315 316 315 316 315 316 317 316 316 312 310 309 308 305 305 304 302 302 301 299 296 296 295 295 294 295
303 304 306 309 311 312 312 312 312 312 312 313 314 314 316 316 316 313 313 314 316 316 316 316 314 311 308 307 306 304 302 302 303 302 302 299 298 296 295 295 294 294 291
300 302 304 305 309 309 310 312 312 313 314 314 314 314 315 317 315 313 313 313 314 315 314 310 307 305 304 303 302 302 300 299 299 299 299 297 296 293 293 295 288 287 285
299 301 303 304 305 306 308 309 309 311 313 313 314 315 313 313 313 310 309 309 308 307 306 305 304 302 300 294 295 298 299 299 298 293 290 289 288 287 287 287 286 285 282
299 302 304 306 309 308 307 307 309 307 311 312 312 311 308 307 305 304 303 302 301 301 299 299 299 298 297 295 295 294 297 296 292 289 287 286 286 285 284 283 283 282 282
300 300 303 306 307 307 306 309 311 310 309 309 307 307 306 304 302 302 301 298 298 298 297 297 297 296 294 292 291 290 290 287 286 285 285 284 283 283 282 280 280 280 280
302 301 302 305 308 308 308 309 308 308 307 306 305 305 304 302 301 299 297 297 296 296 296 297 296 294 292 289 288 287 285 283 282 282 282 282 281 282 282 280 280 279 280
302 304 306 307 307 307 308 307 306 306 304 304 303 303 303 301 298 296 296 297 297 295 292 290 292 290 289 288 287 285 283 281 280 280 281 281 280 281 282 280 279 277 277
304 305 306 306 306 308 308 305 305 304 303 302 302 301 300 298 297 296 296 296 291 287 285 284 284 285 285 286 286 285 282 281 280 278 277 278 280 281 282 280 279 277 277
305 304 304 305 306 308 307 304 302 302 302 301 298 297 297 296 295 293 292 290 287 284 283 282 281 281 282 283 283 282 282 281 279 278 277 278 280 281 280 278 278 277 276
305 304 303 302 304 305 305 301 301 300 298 297 295 294 293 293 293 290 288 287 286 284 282 281 280 278 279 280 281 280 279 279 278 278 278 279 279 279 278 277 277 276 274
302 303 302 300 299 300 299 298 298 298 296 292 291 290 288 287 287 287 287 286 284 283 282 281 279 278 277 277 277 277 278 279 278 277 278 277 278 276 276 276 275 274 273
299 299 298 296 296 296 296 295 295 294 291 290 288 286 285 284 282 282 282 282 283 284 282 280 279 277 276 277 278 278 277 277 278 276 276 274 274 273 273 273 273 272 272
293 292 291 290 288 287 288 290 291 290 287 283 281 281 281 281 280 280 279 283 283 283 283 282 280 279 279 280 279 279 279 278 278 275 273 270 270 270 271 271 270 271 270

GFSMW_sfc_thetae_081.txt.gz
Theta_e
318 319 317 317 317 319 319 318 317 318 319 318 319 319 318 320 320 321 320 321 320 318 317 317 316 316 316 316 316 314 312 309 310 308 308 308 309 309 310 312 311 311 316
316 316 317 317 316 317 319 319 318 318 319 319 319 320 319 320 320 321 320 320 321 319 318 318 317 317 317 318 315 314 312 313 312 310 310 308 309 309 309 309 309 308 308
315 315 315 315 315 316 318 318 318 318 318 320 319 318 318 318 318 318 318 321 321 320 320 320 319 319 319 318 317 316 316 313 312 313 314 308 308 310 311 310 308 308 306
318 317 315 315 315 316 319 319 319 318 319 319 318 317 316 315 317 317 318 320 322 321 320 320 320 320 320 319 319 318 317 316 313 311 312 314 313 310 309 307 311 310 308
318 317 316 316 315 316 317 318 319 319 319 319 318 317 317 318 319 319 320 322 323 322 320 321 322 322 321 321 320 319 317 318 317 315 313 311 312 311 310 308 306 308 308
316 318 318 317 314 315 315 317 317 319 320 319 320 318 319 319 317 317 320 321 322 323 324 323 322 323 323 322 321 321 320 318 318 317 314 314 311 308 308 305 306 310 312
315 316 316 313 312 313 313 314 315 317 319 318 318 319 319 320 319 320 321 321 321 321 323 324 324 324 324 323 323 322 320 320 319 318 317 314 310 311 308 306 309 305 308
314 316 316 316 314 312 312 313 315 316 318 318 317 317 319 318 318 318 320 319 321 321 322 323 324 324 324 324 324 324 323 322 321 319 318 316 309 309 310 308 306 298 301
312 315 316 317 316 314 313 313 316 317 318 318 319 318 317 318 318 318 319 320 320 319 320 322 322 323 324 324 324 323 322 321 321 320 319 313 314 312 309 309 307 305 297
312 314 315 316 317 316 316 316 317 316 317 318 319 318 318 319 319 319 319 319 320 320 320 320 321 322 323 323 323 321 322 320 318 317 315 314 311 309 307 306 304 307 305
311 314 316 317 317 317 315 315 316 316 316 316 317 318 318 319 320 319 319 319 321 321 320 320 321 321 322 322 320 319 316 315 315 312 309 309 311 306 304 304 301 303 301
312 314 316 316 316 316 315 314 315 315 317 316 316 316 318 319 318 317 319 321 321 321 319 320 320 321 320 318 315 316 314 311 310 309 308 309 304 301 300 300 299 299 300
310 314 315 315 315 315 314 314 314 316 316 316 315 314 315 315 315 316 318 321 321 320 319 319 319 320 320 319 315 315 313 311 310 310 307 305 301 299 299 298 299 296 296
308 312 314 316 316 315 315 314 314 316 316 314 315 314 314 316 315 315 318 320 320 320 320 320 318 320 320 318 316 314 312 310 308 306 305 303 301 299 298 297 296 297 295
304 308 312 314 316 316 315 315 315 315 315 315 315 315 317 317 318 319 319 320 320 320 321 320 320 320 316 312 310 309 306 305 302 300 300 299 299 297 296 298 295 294 290
304 306 308 310 313 314 316 315 315 315 315 314 315 316 317 318 318 319 319 318 317 319 319 318 315 309 307 300 298 302 302 300 299 293 293 291 290 289 289 288 288 289 287
304 304 307 309 311 313 315 315 316 316 315 315 315 316 317 317 318 318 314 314 314 309 307 304 303 301 300 294 295 295 300 297 293 290 288 287 286 287 285 284 284 283 283
306 305 305 308 312 313 313 315 315 316 316 316 316 317 316 314 309 308 307 303 302 301 300 299 298 297 294 292 292 291 292 289 288 287 286 285 284 284 283 282 281 282 282
307 308 308 308 312 313 313 313 313 314 314 313 311 310 310 307 306 304 300 299 298 298 297 297 296 293 290 289 288 288 286 284 283 283 284 283 283 283 283 281 281 281 281
304 304 306 310 312 312 313 312 310 310 308 308 308 308 307 305 302 299 298 298 297 293 292 291 291 289 288 288 287 286 284 282 281 281 281 282 282 282 282 282 281 280 281
308 308 309 309 311 312 312 309 309 306 305 305 303 302 301 299 298 297 296 293 290 287 286 284 285 286 286 286 286 285 283 282 280 279 279 280 282 283 281 281 282 280 280
305 308 308 307 308 310 310 307 304 303 303 301 299 298 297 297 296 293 291 289 287 285 283 282 282 282 283 284 284 284 283 282 280 278 279 281 282 282 280 280 279 277 277
304 305 305 305 306 307 306 301 300 300 298 296 295 294 294 293 292 290 288 287 286 285 283 282 280 279 280 281 281 281 281 280 280 281 280 280 281 280 279 278 277 276 278
303 302 301 299 298 300 301 300 299 298 296 293 292 291 289 288 288 288 288 287 285 284 283 281 279 278 278 278 279 280 281 280 280 279 280 279 279 278 278 278 277 278 277
300 300 298 296 295 296 296 297 297 297 293 291 289 287 286 284 283 283 284 283 284 285 282 281 280 279 280 280 280 280 280 280 279 279 279 279 278 277 277 277 276 276 275
292 291 289 288 287 289 290 291 293 292 288 285 285 284 283 283 283 282 281 284 283 283 283 283 282 281 281 280 280 280 279 279 278 278 277 276 276 275 274 275 274 274 273

GFSMW_sfc_thetae_084.txt.gz
Theta_e
322 325 321 321 321 322 320 319 317 321 323 320 319 320 318 320 320 320 320 320 318 318 319 319 320 319 317 319 320 318 316 314 315 312 312 312 315 315 315 316 318 319 320
321 323 321 322 321 322 321 318 317 318 320 322 322 321 320 320 320 320 320 320 319 317 319 321 320 319 319 320 320 320 317 317 316 313 315 312 312 314 314 316 316 317 316
321 322 321 321 323 322 320 319 318 318 320 321 321 320 320 321 319 320 319 320 322 320 319 321 322 321 324 322 322 321 320 317 318 318 317 314 313 316 317 316 315 316 314
321 323 322 321 322 322 321 321 320 319 320 321 319 318 315 314 318 320 320 320 323 322 321 322 323 324 323 323 324 323 322 321 318 318 317 321 321 315 313 317 316 315 310
321 323 323 322 323 321 320 321 321 320 319 320 320 318 316 317 321 318 317 317 323 324 323 324 324 324 323 324 325 324 323 322 321 321 320 318 318 319 316 313 314 316 316
320 323 325 324 323 321 319 321 320 319 319 320 320 320 318 317 317 316 315 315 321 323 326 324 325 325 324 325 326 326 325 324 324 323 322 320 318 317 316 314 314 314 318
319 322 323 323 322 320 319 319 319 319 319 319 320 321 320 319 317 319 316 315 320 320 324 325 324 324 326 326 327 328 327 327 325 325 323 324 322 323 318 313 310 309 314
319 321 323 324 322 321 320 318 318 318 320 320 321 323 324 322 320 319 317 321 322 323 325 327 327 328 328 328 329 329 328 328 327 326 326 325 325 322 318 314 309 304 305
317 320 323 324 323 322 321 318 318 320 321 320 322 323 324 324 324 324 323 324 326 324 326 327 328 328 329 329 329 327 327 328 328 328 327 325 325 325 322 319 315 307 299
315 320 322 324 324 323 322 321 322 322 324 324 323 323 323 324 324 325 324 325 326 326 326 326 327 327 327 327 327 327 328 327 328 328 325 323 324 322 319 314 312 309 307
315 319 321 324 325 325 323 321 322 323 323 324 325 324 324 323 324 325 325 325 327 326 325 325 325 324 324 325 326 327 327 326 325 325 321 321 320 312 311 312 308 307 308
316 319 320 322 323 324 323 322 322 322 323 324 324 324 325 324 324 325 326 327 326 326 325 324 323 323 323 324 324 324 325 323 321 318 317 314 312 311 310 308 305 304 307
315 319 320 320 322 323 323 322 322 322 323 323 323 324 324 324 325 325 326 326 325 325 324 323 323 322 322 322 323 324 323 321 317 319 314 313 309 308 308 307 305 303 302
312 317 319 320 321 322 323 323 322 323 322 322 321 322 323 323 324 324 324 323 323 322 323 323 322 322 322 321 322 322 321 320 318 316 314 312 307 306 303 301 302 299 297
310 313 317 320 321 322 323 323 323 323 323 321 320 320 322 322 322 322 323 321 321 322 323 323 323 324 322 323 323 323 320 319 316 310 307 304 303 300 299 300 299 297 293
310 311 313 319 321 321 322 322 322 322 323 321 320 321 321 321 321 321 321 321 321 322 322 322 323 324 323 306 300 310 314 307 303 296 294 292 293 291 289 289 289 291 291
309 309 311 314 319 322 322 322 322 323 322 321 321 320 321 320 321 321 321 321 322 322 321 323 323 319 310 295 295 296 302 298 293 290 290 288 287 287 285 285 285 284 284
308 308 310 313 315 320 322 323 323 322 321 320 320 321 320 320 321 320 320 321 319 316 310 304 301 300 295 292 292 291 291 289 289 288 287 286 285 285 284 283 283 283 283
310 311 311 311 315 317 320 321 322 321 320 319 320 320 320 320 320 317 315 311 304 301 299 299 296 293 290 289 289 288 286 285 284 285 285 285 285 284 285 283 282 281 282
314 311 312 310 312 316 317 319 320 320 319 320 320 319 318 315 313 307 301 299 297 294 293 290 290 288 288 288 288 287 285 283 282 283 283 283 283 282 283 283 283 282 284
312 312 312 311 313 316 318 317 318 317 316 315 314 312 311 305 301 298 296 293 290 288 286 285 285 286 287 286 287 286 284 282 281 280 280 282 283 283 282 283 284 283 284
308 310 311 310 313 316 316 313 310 308 307 305 301 300 299 298 296 293 291 289 287 285 284 283 282 282 283 284 285 284 284 283 281 280 281 282 283 281 281 282 279 278 279
305 307 306 305 308 311 310 303 301 301 299 298 296 295 294 294 293 291 289 287 287 284 283 282 280 280 281 281 282 282 282 282 282 283 282 282 282 280 280 278 277 277 282
302 301 300 298 298 300 300 300 299 298 295 293 292 291 290 289 290 289 289 287 286 284 283 281 279 279 279 280 281 281 281 281 281 281 282 282 282 280 280 280 280 282 280
298 297 295 294 294 296 297 297 296 294 291 289 288 286 286 285 283 284 285 284 284 285 282 281 280 280 280 281 283 284 284 283 282 283 283 283 282 282 281 281 279 280 279
291 290 289 288 288 289 291 294 294 292 290 287 286 285 284 284 284 282 281 284 283 284 284 284 283 282 281 281 281 280 280 279 279 282 281 280 279 279 278 278 277 278 277

GFSMW_sfc_thetae_087.txt.gz
Theta_e
322 325 327 326 327 326 323 322 320 320 322 320 318 317 317 318 317 317 318 319 320 319 319 317 318 316 316 317 321 321 320 317 318 314 314 315 318 319 319 321 321 320 322
321 324 326 325 326 325 324 321 320 321 321 321 319 318 317 317 317 318 319 319 318 318 320 321 319 320 318 319 320 321 318 316 319 313 314 311 312 315 317 318 318 322 321
320 322 324 324 323 323 322 321 321 321 323 322 321 319 319 319 318 317 316 318 318 317 320 325 321 322 321 321 323 324 321 317 318 320 318 314 313 317 317 318 318 321 319
320 323 324 324 324 325 323 324 322 320 322 323 320 317 314 313 316 315 315 318 321 319 317 320 323 321 322 323 323 324 325 324 318 319 318 322 320 315 314 318 319 320 318
319 323 325 325 326 327 322 323 322 320 321 322 320 318 315 314 315 316 317 320 322 322 320 319 323 326 325 326 327 327 324 324 322 320 320 319 319 321 315 311 316 318 318
319 322 326 327 327 327 325 323 321 320 321 321 320 318 317 315 316 315 316 318 319 320 321 322 326 326 327 327 328 328 326 326 326 324 324 321 318 316 317 315 317 316 318
317 321 325 325 326 325 323 321 320 319 320 320 321 320 318 317 318 316 316 314 315 317 320 323 327 326 327 327 327 328 327 328 326 327 324 325 323 323 322 319 318 317 320
317 320 324 325 325 325 323 320 319 319 320 320 321 322 321 318 319 320 317 314 315 317 322 327 326 326 327 327 328 328 329 330 329 329 327 326 326 326 324 321 318 311 313
316 319 323 326 326 326 324 322 319 320 321 321 321 321 322 323 321 320 319 316 316 316 318 327 325 327 328 329 329 328 329 330 330 330 329 327 328 328 326 324 321 314 306
315 319 321 326 327 326 326 324 323 322 322 322 322 323 324 324 325 324 321 322 319 321 323 325 327 327 328 330 329 328 329 328 329 329 328 328 328 327 327 326 321 315 310
315 318 321 325 327 326 326 324 323 322 324 322 323 323 323 326 327 326 325 325 323 324 325 325 326 327 328 329 327 328 328 326 327 327 327 326 327 326 325 319 315 313 310
317 318 322 324 325 325 326 324 323 322 326 327 325 324 323 324 324 327 328 328 326 327 326 326 326 326 326 327 326 326 325 325 325 325 325 324 323 321 319 314 311 309 310
317 319 321 322 324 325 325 324 323 324 325 326 328 328 327 326 326 327 329 329 328 327 327 326 326 326 326 326 326 325 325 325 325 324 324 322 319 317 315 310 309 308 307
313 317 320 321 323 324 325 325 325 326 326 324 325 326 328 328 328 328 326 326 326 326 326 327 327 327 326 325 324 323 324 324 324 324 321 320 318 315 313 308 306 302 299
311 313 318 321 322 323 325 326 326 326 326 324 324 325 328 327 327 328 328 326 324 326 327 326 326 326 325 324 325 324 323 323 322 320 316 311 309 303 304 303 301 299 297
311 312 314 319 322 322 323 326 326 327 326 325 325 324 325 325 327 327 327 327 327 326 326 325 325 325 323 307 302 310 323 319 315 300 295 293 294 291 291 290 290 295 293
311 312 313 314 318 323 324 324 325 328 326 325 324 323 323 323 325 324 323 324 324 325 324 324 324 323 324 297 297 297 305 300 295 292 290 289 288 288 288 287 287 286 286
312 313 313 314 316 319 324 325 325 325 326 325 324 324 323 322 322 322 322 324 324 323 321 319 316 308 298 295 295 293 293 290 289 288 288 287 286 286 286 285 283 283 284
315 315 316 317 315 315 319 324 324 324 323 323 324 324 324 323 323 323 323 324 322 310 305 302 297 293 290 290 289 289 288 286 285 286 286 286 285 285 286 284 282 282 282
316 316 317 316 316 315 318 319 321 322 321 323 322 324 324 323 323 323 314 309 304 296 293 290 290 289 288 288 288 288 286 284 283 283 283 284 283 283 285 284 283 282 283
314 316 316 315 316 317 317 317 319 321 322 323 323 323 322 321 312 304 300 295 291 290 288 286 286 286 287 287 287 287 285 283 282 281 281 282 283 283 284 284 283 280 284
313 313 311 311 314 317 317 316 314 312 312 308 304 302 300 299 298 294 292 290 290 286 284 283 282 283 284 285 285 284 284 283 281 280 282 282 282 282 282 280 279 279 281
309 308 305 303 303 308 309 303 302 302 300 297 295 294 293 293 292 291 290 288 286 284 283 281 280 280 281 282 283 284 284 283 282 283 283 282 281 280 280 279 278 279 282
303 301 299 296 296 298 299 299 297 295 293 290 289 289 288 288 289 289 288 286 285 283 282 281 279 279 280 281 282 282 282 282 281 282 283 282 282 279 280 280 280 282 281
295 295 293 291 290 294 294 294 293 292 289 288 287 285 284 284 283 283 284 283 283 284 281 280 281 280 279 281 283 284 284 284 283 283 283 283 282 282 282 281 281 281 280
290 289 288 288 287 287 287 291 291 290 287 285 284 284 283 282 282 281 281 283 283 283 283 282 281 281 281 281 281 281 280 280 281 283 281 280 280 279 278 278 278 278 277

GFSMW_sfc_thetae_090.txt.gz
Theta_e
320 324 326 326 326 326 323 320 320 322 322 318 316 315 314 315 316 317 317 317 317 317 317 317 316 316 315 316 316 317 316 313 316 312 312 312 315 316 316 316 316 317 318
317 322 325 325 325 324 322 320 320 322 321 319 318 316 315 314 315 316 316 316 316 317 316 315 314 314 313 314 316 315 313 313 313 309 309 305 308 311 313 314 315 315 316
316 320 323 323 325 322 320 320 319 321 321 320 318 317 315 314 312 313 314 315 316 317 316 315 314 314 314 314 315 317 312 310 312 314 312 309 306 307 311 312 312 311 314
317 321 323 323 323 324 321 320 321 321 321 319 316 314 311 310 312 312 313 315 317 316 316 315 317 315 316 317 317 320 316 316 311 313 316 315 315 311 308 311 312 313 313
315 320 323 324 324 324 321 320 321 321 321 319 317 314 312 313 314 314 313 313 314 315 316 320 319 319 318 319 319 320 321 319 318 314 313 313 313 314 311 307 309 312 312
315 321 324 325 324 325 322 320 319 319 321 320 318 315 313 313 313 312 312 313 314 316 316 318 319 319 319 320 321 321 321 320 319 318 317 315 312 311 310 308 309 310 312
315 318 323 323 323 324 321 320 319 317 320 320 319 316 314 314 313 312 312 312 314 317 318 318 317 319 321 322 323 321 321 320 319 319 317 318 317 317 314 312 310 310 313
316 318 323 323 324 324 322 319 319 318 319 320 320 318 316 315 315 314 314 314 314 315 318 319 320 320 321 322 322 321 321 321 320 319 320 319 318 318 316 314 311 307 308
315 316 322 324 324 324 322 320 319 319 319 319 320 320 318 316 316 315 316 315 315 316 317 319 319 321 321 322 321 320 321 321 322 322 322 321 320 319 319 318 316 312 307
313 316 320 324 325 325 323 321 319 319 319 319 320 320 320 319 318 318 315 316 315 315 316 318 319 319 320 322 322 321 321 321 322 323 322 321 321 321 321 319 317 315 313
314 316 319 325 325 326 323 321 320 319 319 320 320 320 320 320 318 318 319 317 316 315 315 316 317 319 320 321 321 322 321 322 321 322 320 320 321 320 319 319 319 316 314
315 316 319 324 324 324 324 322 321 320 320 320 320 320 321 321 320 319 319 320 318 317 316 316 316 317 320 321 320 321 321 320 319 319 319 319 320 319 319 318 316 314 314
316 317 319 322 324 324 324 322 322 321 322 321 321 320 321 321 321 321 321 321 320 318 318 316 316 319 320 320 321 321 320 320 320 319 318 318 318 317 318 315 314 313 311
314 317 319 320 323 324 324 324 322 322 322 323 321 320 320 321 322 323 323 323 322 321 319 318 319 319 320 321 321 321 320 319 319 319 319 318 316 314 313 313 313 311 307
311 314 317 319 321 323 324 325 323 322 322 322 322 321 322 322 322 322 323 324 324 323 322 321 321 321 321 321 320 320 319 318 317 316 314 304 299 298 304 310 307 303 301
310 312 314 318 320 322 324 325 324 323 323 322 321 323 324 324 322 322 322 322 322 323 322 321 321 320 321 307 303 311 316 316 312 302 294 293 292 291 291 291 290 293 295
311 312 312 314 317 321 323 324 325 325 323 322 322 323 323 323 323 324 324 322 321 321 321 321 321 320 319 296 297 296 307 301 296 293 291 289 289 289 288 288 287 286 286
312 313 314 315 315 316 322 324 326 325 323 322 322 323 322 322 322 322 322 322 322 321 320 319 319 305 296 292 292 291 292 290 290 290 288 287 286 287 286 285 284 284 284
314 314 316 316 316 316 315 322 323 324 324 322 322 322 322 321 321 320 320 320 319 319 310 302 299 293 290 290 290 290 288 287 287 287 287 286 285 286 287 284 283 282 282
314 314 316 316 316 316 315 315 321 321 321 323 323 323 323 321 319 319 317 307 300 295 292 290 289 289 288 289 290 288 286 284 284 283 283 284 284 285 285 283 283 281 282
313 314 313 312 312 315 317 315 316 317 321 322 319 314 314 313 306 300 297 295 291 289 287 285 286 286 286 287 288 287 285 284 282 282 281 282 284 283 283 282 280 280 282
309 308 307 304 305 309 312 307 304 306 306 303 300 300 300 298 296 293 291 290 288 286 284 283 282 283 284 285 285 285 284 284 282 281 281 281 283 281 281 280 281 282 282
301 301 299 297 297 299 301 301 298 298 297 295 294 294 293 292 293 291 290 287 285 283 282 281 280 280 282 283 284 284 284 283 282 282 282 282 282 281 280 280 281 281 280
292 293 292 290 289 293 293 293 293 293 291 290 288 288 287 287 288 287 287 285 284 282 281 280 279 280 281 281 282 281 282 283 282 281 282 281 281 281 279 280 281 280 278
289 288 288 288 288 289 289 290 290 289 286 286 285 284 283 283 283 283 283 282 283 283 281 281 281 280 279 281 283 283 282 282 281 281 281 281 281 280 279 279 279 278 277
286 286 286 286 286 287 287 287 287 287 285 283 283 282 282 281 281 280 280 283 282 283 282 282 280 280 282 282 282 282 282 283 283 281 279 277 277 276 276 276 275 275 274

GFSMW_sfc_thetae_093.txt.gz
Theta_e
313 318 320 319 319 319 317 317 318 321 319 318 316 315 314 315 316 319 321 323 325 324 323 321 320 321 318 316 315 315 313 312 312 310 310 311 313 313 314 316 315 315 315
312 318 318 319 319 317 317 317 318 321 319 318 317 316 315 315 315 316 316 318 320 321 320 318 316 317 316 314 313 314 311 311 312 308 307 303 306 309 312 312 315 314 316
312 317 317 318 317 316 315 317 319 320 319 318 316 315 314 314 312 312 313 315 317 319 318 316 314 313 313 312 312 313 311 309 309 311 308 304 302 304 307 309 311 312 312
315 317 317 317 316 316 317 317 319 320 319 318 315 312 311 309 312 312 312 314 316 316 316 314 314 313 312 311 313 315 311 309 307 309 315 314 313 305 304 307 308 309 310
316 317 317 318 317 317 316 317 319 320 318 317 315 312 310 311 312 312 311 313 314 316 315 315 314 314 314 313 314 315 313 313 310 310 310 310 311 312 308 304 305 308 309
315 318 319 319 317 317 316 317 319 319 318 316 315 311 309 310 310 310 311 311 313 313 314 314 314 313 314 316 316 317 316 316 315 315 314 311 309 308 308 305 306 306 308
314 317 317 317 317 315 315 316 318 318 318 316 314 313 313 312 311 310 312 310 311 312 314 314 315 316 317 318 317 317 318 318 317 317 315 316 313 313 311 309 307 306 310
315 318 318 318 318 316 315 316 317 318 318 317 315 313 314 314 313 311 312 312 311 311 314 315 317 317 317 318 318 319 319 318 317 317 317 316 315 315 314 312 308 304 305
313 318 318 319 319 316 316 316 316 317 319 318 316 314 314 314 313 312 311 313 313 313 315 315 315 316 319 319 319 319 318 318 318 318 317 316 316 316 315 314 312 309 304
312 318 319 319 320 318 317 316 317 317 318 319 319 316 315 315 314 314 311 313 313 314 314 316 316 316 317 319 319 318 318 318 317 319 318 317 317 316 315 315 315 314 313
306 312 319 320 321 319 317 316 316 317 317 318 319 319 317 316 315 315 313 315 314 315 315 315 315 315 317 319 318 317 317 318 318 318 316 318 316 317 316 316 317 315 314
307 309 320 320 320 319 317 316 316 317 318 319 319 319 319 318 315 315 315 314 314 314 315 315 316 316 317 317 318 318 318 317 317 317 315 317 317 316 317 316 316 316 316
308 310 319 319 320 319 317 317 316 316 317 318 318 318 319 318 316 315 316 316 315 313 314 314 314 315 317 318 318 318 317 317 318 318 316 317 316 316 316 314 315 315 313
308 310 318 319 320 320 319 318 317 317 317 318 318 317 318 319 318 316 316 317 317 315 313 313 313 313 314 316 318 318 317 317 318 317 317 317 315 316 314 313 313 312 311
307 310 312 318 319 319 319 319 318 318 318 317 317 316 318 318 319 319 318 317 317 317 316 315 314 313 313 314 316 317 317 317 316 315 310 300 298 296 300 308 309 308 306
307 308 310 314 320 320 320 320 319 318 319 319 317 318 318 318 319 319 320 319 318 318 317 316 315 314 315 306 302 310 317 315 314 302 295 293 292 291 291 290 290 294 297
308 310 311 311 311 314 320 320 320 320 319 318 320 319 319 318 318 319 319 319 319 320 319 318 318 316 315 302 301 300 313 308 303 297 292 290 290 290 289 288 288 287 287
309 310 311 311 311 312 312 314 321 320 319 318 318 320 320 319 319 319 318 318 318 318 319 319 319 312 297 293 293 293 295 292 292 291 290 288 287 288 287 286 285 285 285
310 310 311 310 310 310 313 313 315 321 319 318 319 319 320 320 320 319 319 319 319 317 312 303 299 295 291 290 290 293 291 288 287 287 287 287 285 287 288 285 283 282 282
307 306 305 304 302 303 309 310 307 311 316 319 320 320 319 319 319 318 314 302 303 294 292 289 290 289 288 289 289 289 287 284 283 284 284 285 284 285 285 284 282 280 281
301 302 301 298 298 299 305 301 301 300 302 302 315 318 317 318 313 303 299 295 291 289 286 285 286 287 287 288 288 288 286 283 282 282 282 283 283 283 283 283 282 281 283
296 297 296 294 295 295 298 295 294 297 298 298 298 299 302 300 298 295 293 292 289 286 284 283 282 284 285 286 286 286 285 284 281 281 281 281 282 282 283 282 282 282 281
291 293 292 291 292 293 292 290 290 292 293 292 292 292 294 295 295 291 288 287 287 285 283 282 281 281 283 284 285 284 283 282 281 282 282 282 282 282 282 281 281 280 279
288 290 290 289 289 290 290 289 288 288 286 285 286 287 287 286 287 288 288 286 285 283 282 281 280 280 281 281 282 282 282 283 282 282 282 281 280 280 280 280 280 279 277
286 286 285 285 285 288 288 288 287 286 284 283 283 282 283 282 281 282 282 282 282 283 281 281 281 280 280 282 283 283 281 281 281 280 280 280 279 278 277 277 277 276 275
283 283 283 283 283 284 285 287 288 286 284 282 281 280 280 280 281 280 280 283 282 283 283 282 282 282 283 284 284 284 284 283 282 279 277 276 275 275 274 274 273 273 273

GFSMW_sfc_thetae_096.txt.gz
Theta_e
306 318 319 319 319 318 317 317 317 320 320 319 317 317 316 317 319 323 327 327 328 325 322 320 318 312 316 317 315 313 313 312 312 311 311 311 314 314 314 315 314 315 314
310 316 317 317 317 316 316 316 318 318 319 319 317 316 316 315 317 318 320 327 327 325 322 320 318 314 318 315 314 313 310 310 312 310 307 304 307 310 312 313 313 313 314
310 314 316 315 315 315 315 316 317 318 318 318 316 315 314 313 312 314 315 318 325 324 323 319 319 318 317 314 314 313 312 310 309 312 307 302 302 305 308 310 313 313 313
312 315 316 314 314 314 315 316 317 318 318 316 315 313 311 310 312 312 313 316 320 323 322 320 319 318 316 314 314 313 311 311 309 308 313 312 309 304 302 307 309 312 312
310 314 315 315 315 315 315 316 317 318 317 315 314 313 312 312 312 312 312 314 315 318 319 318 317 314 314 313 314 312 311 310 309 308 309 310 311 311 307 302 305 307 309
311 315 317 316 315 315 315 315 317 316 317 315 314 313 312 311 310 310 311 312 314 315 315 315 315 315 313 313 313 314 313 312 311 311 311 310 309 308 308 306 305 305 306
309 314 314 313 314 313 313 315 316 314 316 315 314 310 310 310 311 311 311 311 312 313 313 314 313 313 314 315 315 315 316 314 313 313 311 313 312 313 311 308 306 306 307
313 314 315 314 314 313 313 315 315 314 315 314 313 311 310 311 312 312 312 312 312 313 313 313 314 314 314 315 316 315 315 317 315 314 315 314 314 314 311 309 306 303 304
313 315 316 315 314 314 314 315 315 315 316 314 314 312 312 312 312 312 312 312 311 313 312 313 313 315 314 315 316 315 315 316 316 315 316 315 316 314 314 312 311 307 301
314 316 316 316 316 315 315 315 316 316 316 315 315 313 313 312 313 312 310 311 311 312 313 313 314 316 315 316 316 316 316 316 316 316 315 315 314 314 314 314 312 310 310
312 316 317 317 317 316 315 314 315 316 316 316 316 314 313 314 313 312 312 312 312 312 314 313 314 314 315 316 316 315 317 316 315 315 315 315 316 315 314 313 314 313 312
308 316 317 318 316 315 315 314 314 315 316 317 318 315 314 314 314 313 312 313 313 313 314 314 313 313 313 314 315 316 317 316 315 316 316 316 315 313 315 315 314 314 314
306 308 317 317 316 315 315 314 315 315 316 318 318 318 316 314 314 314 314 313 314 313 313 314 313 313 313 314 315 316 316 316 316 316 315 315 313 314 315 314 315 314 314
307 311 316 317 317 316 315 315 315 316 316 316 317 317 317 316 315 315 314 314 313 312 312 313 313 313 313 313 314 315 316 316 317 317 316 316 315 314 314 314 314 314 312
306 311 314 316 317 316 316 316 315 316 316 316 315 315 317 319 318 316 315 315 313 313 313 312 312 312 312 313 314 315 314 315 315 314 314 311 306 297 300 311 314 311 311
308 309 311 315 318 317 316 317 316 315 316 315 314 315 316 318 318 317 316 315 315 314 313 312 311 310 311 303 300 307 314 313 313 312 297 294 293 291 290 291 291 293 301
308 308 308 309 310 313 319 317 317 318 316 315 316 316 316 315 317 318 317 316 315 315 314 313 313 311 311 300 299 298 312 313 312 305 295 292 290 290 289 288 288 288 287
304 304 303 304 304 306 310 313 320 318 317 316 316 316 316 315 315 316 317 318 318 316 315 314 314 315 313 299 298 296 303 295 293 294 293 291 289 289 288 287 285 285 285
302 300 301 300 300 302 304 305 305 312 318 317 317 318 317 316 316 315 316 317 318 317 317 318 316 315 296 292 293 295 291 288 287 288 288 288 287 288 289 284 282 281 282
300 299 298 298 297 298 301 300 300 300 301 303 305 314 319 318 317 316 316 316 316 313 301 295 293 292 290 290 292 292 288 285 284 284 285 285 285 285 285 283 282 280 281
296 298 297 295 294 295 298 295 295 295 297 298 299 303 305 312 315 316 308 299 296 295 292 290 288 287 288 289 290 290 289 285 283 283 283 284 285 284 284 283 282 281 282
292 293 293 291 292 292 293 291 290 292 292 292 291 291 294 299 299 297 295 293 291 287 285 284 284 285 285 286 286 286 285 285 281 280 281 283 284 284 283 282 282 282 281
288 290 289 289 289 290 289 288 288 288 288 287 286 287 287 288 291 293 291 288 289 287 285 283 281 282 283 284 284 285 284 282 281 282 283 283 283 282 281 281 281 279 278
285 286 286 285 286 288 288 287 287 286 285 284 283 283 283 283 285 285 287 286 285 284 283 282 281 280 281 281 282 282 282 283 282 281 280 280 280 279 279 277 277 277 276
283 284 283 283 284 286 286 287 286 286 283 283 282 282 282 281 281 282 283 283 283 284 282 281 281 280 279 281 282 282 281 281 281 280 280 278 277 276 275 275 275 275 274
281 281 282 282 282 284 284 285 285 283 282 280 280 280 281 281 281 280 280 284 283 284 284 284 283 283 284 284 284 284 283 282 281 278 276 274 274 273 273 272 272 272 271

GFSMW_sfc_thetae_099.txt.gz
Theta_e
302 307 315 319 319 319 319 318 317 320 320 318 318 318 319 319 322 326 327 327 328 324 321 318 316 313 313 314 312 312 311 310 315 312 310 309 312 312 314 314 314 315 315
306 313 316 317 317 318 317 316 317 320 319 319 318 315 317 317 319 321 323 327 327 324 322 319 315 311 313 314 312 312 309 309 314 311 309 305 307 310 311 312 313 312 314
303 312 315 316 316 317 316 316 318 318 318 316 314 314 314 314 314 315 319 321 327 324 322 319 316 311 315 314 312 313 312 310 309 313 308 303 303 306 307 309 311 312 311
304 312 315 315 316 316 316 317 317 316 317 316 314 313 312 311 312 313 315 317 322 324 323 321 317 313 317 314 313 314 313 313 309 308 312 310 308 305 301 306 311 311 311
301 311 314 316 316 316 315 317 317 316 316 316 312 311 312 313 312 312 313 316 318 323 323 320 316 314 317 315 314 312 311 313 310 309 309 311 310 309 304 301 303 307 310
300 311 316 316 315 315 315 316 316 316 316 315 311 311 312 311 310 311 311 313 314 318 320 319 316 317 316 315 313 312 311 311 311 310 311 310 309 308 308 305 304 305 307
301 308 313 313 314 313 314 315 315 315 315 313 311 311 311 312 311 311 312 312 313 313 315 318 316 315 315 316 315 313 312 312 310 310 311 312 312 313 311 309 307 306 307
306 309 314 314 314 313 314 315 315 314 314 313 311 312 311 312 312 312 313 313 313 314 315 315 316 315 315 316 315 314 314 313 312 311 311 312 312 312 313 310 308 303 304
308 309 314 314 314 314 313 314 314 314 314 313 310 309 310 311 311 311 312 312 314 314 314 316 316 316 316 315 314 314 313 315 314 313 313 312 313 314 314 313 310 307 302
307 312 315 314 314 314 314 315 315 314 314 313 310 309 310 311 311 313 312 311 312 313 313 313 315 315 315 315 314 313 314 314 315 315 314 313 314 313 314 313 312 310 308
306 314 315 315 314 314 314 314 315 315 314 314 311 310 310 310 311 311 311 310 311 312 312 312 314 313 313 313 313 313 313 314 314 314 314 314 315 313 312 313 314 312 310
306 307 316 315 314 314 314 314 315 314 315 315 313 310 311 311 310 310 311 312 310 311 313 313 312 313 313 313 313 312 313 313 313 314 313 314 315 314 315 312 312 311 311
307 307 315 315 314 314 314 313 314 315 315 315 313 311 310 311 310 310 311 312 311 311 312 313 312 312 313 313 313 313 313 313 313 314 314 314 314 314 315 313 312 311 311
308 308 311 315 315 314 314 314 314 315 316 315 314 312 311 311 312 312 312 312 313 311 310 312 313 312 312 313 313 314 313 314 314 315 315 315 315 315 314 313 311 311 310
306 306 311 315 314 313 314 314 314 315 316 315 315 314 313 313 312 313 313 312 312 312 311 311 311 312 311 311 311 312 312 312 312 312 315 315 312 305 306 311 311 310 310
305 304 305 306 313 315 314 315 314 315 315 314 314 315 316 315 314 313 314 313 312 312 312 311 311 310 311 302 300 306 310 309 310 310 310 300 296 294 293 294 294 300 310
302 301 301 302 303 306 310 314 316 317 316 315 315 315 315 314 317 316 315 313 313 313 311 311 310 310 310 299 298 298 310 310 310 310 305 296 293 291 289 288 288 287 287
299 299 299 299 301 303 304 306 313 317 316 315 315 315 314 314 314 317 316 315 314 313 313 311 310 310 309 299 298 296 305 306 301 304 303 299 290 290 289 286 284 284 284
299 298 299 297 297 300 300 301 301 307 314 309 314 316 316 315 314 314 315 316 315 314 314 314 313 311 310 298 297 297 300 292 289 289 291 291 289 289 289 284 282 281 282
295 296 295 294 293 295 299 298 298 298 298 299 300 303 308 316 315 315 314 315 316 315 314 310 301 303 311 292 294 298 295 287 285 285 286 287 287 285 285 283 282 281 280
292 293 292 290 290 292 294 292 292 291 294 294 294 294 296 300 304 315 315 315 314 299 294 289 288 288 290 290 291 292 292 287 284 283 283 284 285 285 285 284 282 280 281
288 289 289 288 289 290 290 287 286 289 289 289 289 288 289 291 294 294 294 293 293 289 286 286 285 285 285 286 287 288 286 286 283 282 283 284 284 284 283 283 282 281 279
286 287 287 287 287 288 287 285 285 286 286 285 284 285 286 287 287 288 288 287 287 285 285 284 283 283 283 283 285 284 284 284 282 282 283 283 283 282 280 280 279 278 277
284 285 284 284 284 286 287 286 285 285 284 283 282 283 283 283 284 285 286 285 284 282 282 281 280 281 281 282 283 283 283 283 282 281 280 279 278 277 276 276 276 276 275
282 283 283 282 283 284 284 284 284 284 282 282 282 282 282 282 282 282 283 283 284 285 282 281 281 280 279 281 283 282 281 280 279 279 278 276 275 274 274 274 274 274 273
281 280 281 281 282 283 282 282 282 281 280 280 280 280 281 281 281 281 281 284 284 284 284 284 283 283 283 284 283 283 282 281 280 276 274 273 273 272 272 271 271 271 271

GFSMW_sfc_thetae_102.txt.gz
Theta_e
301 303 307 303 315 317 318 319 320 318 319 320 320 320 321 321 323 325 327 327 327 324 321 319 316 317 316 314 314 313 313 313 314 311 309 309 312 313 313 315 314 315 316
300 303 312 312 315 317 318 320 319 319 320 320 321 319 319 319 321 324 326 327 327 324 321 318 316 316 315 313 313 313 312 313 314 311 308 306 309 311 312 313 313 312 314
299 300 311 312 313 316 318 319 318 319 320 320 318 315 315 315 316 317 321 324 326 324 322 319 316 315 315 313 312 313 313 311 313 314 308 304 303 306 309 311 312 312 312
304 300 306 311 314 316 319 318 318 319 319 318 315 313 311 311 313 316 317 319 324 324 323 319 316 314 314 313 312 314 314 314 310 312 311 311 310 305 302 307 310 312 311
304 302 303 313 315 316 317 318 318 318 317 316 316 314 313 314 313 313 315 316 318 323 322 319 316 312 314 314 312 313 312 314 312 311 309 309 310 308 305 302 305 309 311
305 306 306 312 314 316 316 317 317 316 316 315 314 312 310 312 311 312 313 315 316 320 322 321 317 313 315 314 312 314 313 313 313 311 311 310 309 308 308 304 304 306 307
304 305 306 311 313 314 315 316 315 313 314 313 313 309 309 311 311 311 312 313 314 315 320 319 317 314 317 315 313 312 312 312 312 311 310 312 312 313 311 309 307 305 307
304 306 307 310 313 314 315 315 315 314 314 313 313 310 310 311 311 312 313 313 314 315 317 318 315 315 316 315 314 314 312 312 311 310 311 312 313 313 313 311 308 305 305
304 305 308 311 314 314 314 315 315 315 314 313 312 310 310 311 311 311 312 313 315 315 315 317 315 316 315 315 314 312 313 312 312 310 311 312 312 313 313 312 311 309 304
303 305 308 312 315 315 315 316 315 314 314 313 311 309 309 309 309 310 310 313 314 315 315 315 315 315 315 314 314 314 314 312 312 313 312 312 313 313 313 313 312 310 309
303 305 309 314 315 315 314 314 314 314 314 313 311 309 308 309 309 310 310 311 313 313 314 315 314 314 314 315 314 313 313 312 312 313 313 313 314 313 312 313 313 312 311
304 306 309 313 314 314 313 313 314 314 315 313 311 308 309 309 309 309 310 311 310 313 314 314 315 315 314 314 314 313 313 312 312 313 313 313 314 313 313 312 312 312 312
305 307 307 313 313 314 313 313 314 314 315 314 312 309 308 309 308 308 309 310 309 310 312 313 313 313 313 313 313 313 313 312 312 313 313 313 313 313 313 313 312 312 312
306 304 305 314 314 314 313 313 314 315 315 314 312 310 309 309 309 309 308 309 309 310 310 312 312 312 312 313 313 313 312 312 312 312 312 313 313 313 313 313 313 312 310
304 302 303 304 312 314 314 314 315 316 315 314 313 311 309 310 310 309 308 309 309 309 311 311 311 311 311 312 312 313 312 312 311 312 312 313 311 306 309 313 312 312 310
301 300 300 301 302 305 313 314 314 316 316 314 314 314 313 310 310 310 309 308 310 310 311 310 310 309 310 302 300 306 311 311 310 310 310 311 304 302 294 292 290 292 308
298 298 297 298 299 301 303 310 315 316 316 316 316 315 314 313 311 310 311 311 310 311 310 310 310 310 310 298 299 298 310 309 309 310 308 302 297 294 290 288 287 286 286
295 295 295 294 295 298 300 304 313 316 315 314 315 316 315 315 315 313 312 312 312 311 310 310 310 310 310 298 297 295 306 306 306 307 307 304 297 293 290 286 284 284 283
293 293 293 292 292 294 297 298 299 303 303 304 306 307 312 314 314 314 314 314 312 312 312 311 310 309 309 297 297 296 303 303 297 296 297 301 294 290 290 285 282 282 282
291 291 291 290 290 292 293 292 292 292 293 294 296 298 299 304 309 313 314 315 314 312 312 310 307 303 308 298 297 297 305 297 288 286 287 289 289 288 286 284 282 279 279
289 290 289 288 288 289 290 288 288 287 289 290 290 290 291 294 295 299 309 312 312 305 294 287 287 287 287 288 290 292 302 294 285 284 284 285 285 286 285 284 282 280 279
287 288 287 287 287 288 288 285 284 286 287 286 286 286 287 288 290 290 290 291 291 287 286 285 284 284 285 287 288 287 286 286 284 283 284 284 285 284 283 282 282 280 278
284 286 286 285 286 286 285 283 284 285 285 284 284 284 284 285 286 286 286 287 287 285 284 283 281 281 283 284 285 286 285 285 283 283 283 283 282 281 280 280 279 277 276
282 283 283 283 283 284 283 283 284 284 283 282 282 283 283 283 283 284 285 284 284 283 282 282 280 280 281 282 282 282 281 280 278 277 277 277 277 276 275 275 275 275 274
281 282 282 281 282 282 282 281 281 283 282 282 282 282 282 282 281 282 283 282 283 284 282 281 281 280 279 281 281 280 279 278 278 277 276 275 274 273 273 273 273 273 273
280 280 280 280 281 281 280 280 280 280 280 280 280 280 281 280 280 279 279 283 283 284 284 284 282 282 283 282 282 281 280 280 278 275 273 272 271 271 271 270 270 271 270

GFSMW_sfc_thetae_105.txt.gz
Theta_e
308 309 311 314 316 317 323 326 327 328 327 323 322 323 324 325 326 328 328 327 328 328 327 325 322 324 320 316 316 317 315 317 321 317 316 318 320 321 322 323 324 323 324
306 309 311 315 319 319 323 325 326 325 328 326 326 327 326 325 325 327 327 327 328 327 324 321 319 320 319 317 315 316 315 315 317 315 314 308 311 318 320 322 322 322 323
306 311 311 311 317 320 322 323 325 323 328 328 326 325 322 322 321 322 325 326 328 325 324 320 318 316 316 315 316 316 316 313 315 318 316 308 307 312 318 319 320 321 321
310 310 311 312 313 318 323 323 323 322 325 325 322 322 320 318 319 320 323 326 328 324 323 320 319 318 317 315 316 317 316 315 313 317 316 319 315 311 308 315 317 320 319
309 309 310 312 315 318 321 322 321 321 323 323 323 321 318 319 319 320 319 323 325 325 322 320 318 317 317 316 316 316 316 317 317 315 313 313 315 317 312 309 312 317 318
308 309 312 313 314 320 322 321 319 319 321 322 320 317 317 319 318 316 316 319 319 321 323 319 318 316 316 315 316 317 317 317 318 318 316 314 312 311 312 311 312 312 314
307 309 310 311 312 316 320 320 318 317 319 319 317 316 318 318 317 316 315 317 317 319 321 319 317 316 315 315 314 315 318 320 318 317 316 317 316 317 317 316 313 312 316
307 308 309 310 312 317 319 318 317 316 318 317 315 315 319 319 319 318 317 317 319 319 323 321 318 316 315 315 314 314 315 315 317 317 317 317 317 317 318 317 316 312 314
307 308 310 311 312 315 319 318 316 316 316 316 316 316 318 319 319 318 316 316 319 319 322 321 318 315 315 315 313 313 314 314 315 315 316 316 314 316 316 319 318 315 310
306 308 310 311 313 315 319 318 317 316 316 315 318 316 317 319 319 318 314 316 319 319 320 318 316 315 316 314 314 313 314 314 313 313 312 314 315 317 319 315 314 316 316
306 308 310 311 312 314 319 317 317 316 315 316 317 314 315 317 318 317 317 317 319 318 317 317 315 315 315 314 312 311 312 312 312 312 312 312 315 316 317 314 313 313 315
307 307 307 307 312 314 317 316 316 316 315 316 315 312 314 316 316 316 317 319 317 317 317 316 315 315 315 314 312 310 311 312 311 311 312 312 313 314 315 313 314 314 319
306 306 304 304 309 315 314 315 315 315 315 315 313 311 312 314 315 316 317 317 318 315 317 316 314 314 315 313 313 312 311 311 313 312 312 312 312 312 314 313 313 314 315
305 303 301 301 304 315 314 314 314 315 315 314 312 310 311 314 315 316 316 316 317 317 315 315 315 315 315 314 313 314 313 312 312 313 313 313 312 312 313 313 313 314 313
301 300 299 298 299 303 311 314 315 315 316 314 312 311 312 312 314 315 315 315 315 316 316 316 316 315 314 314 313 313 313 313 312 313 313 314 312 306 309 313 313 312 311
297 297 296 295 295 297 301 314 314 315 316 314 313 313 312 312 313 314 314 315 315 315 315 314 315 316 316 302 301 308 312 312 311 311 312 312 304 304 298 295 294 305 312
294 294 293 292 293 295 299 303 312 317 315 315 315 314 312 312 313 314 314 314 314 315 314 314 313 313 315 298 299 299 317 314 313 312 312 311 308 301 295 289 288 287 287
292 292 291 291 291 293 295 298 310 316 315 316 315 315 314 313 313 313 314 314 314 313 313 313 312 312 311 297 297 296 316 316 316 317 317 316 312 302 295 290 286 286 286
290 291 290 290 290 291 292 293 294 296 297 297 298 301 304 310 314 312 312 315 314 313 312 312 311 311 311 297 296 297 308 311 310 313 315 316 316 295 292 288 285 283 283
289 289 289 288 288 289 290 290 289 289 290 291 292 293 295 297 298 300 310 314 314 313 312 301 292 290 299 290 294 297 306 302 297 288 287 288 298 289 288 289 284 280 280
287 289 288 286 286 287 288 286 286 286 287 288 289 289 290 291 292 294 294 296 308 293 288 286 286 287 287 289 291 292 300 291 286 285 284 285 286 286 286 285 282 279 278
285 286 286 285 285 286 286 284 283 286 286 287 286 286 287 288 289 289 290 290 289 287 285 284 284 284 285 287 288 289 288 287 286 284 284 284 284 283 282 281 281 279 278
283 285 284 284 284 284 284 283 283 285 285 285 284 284 285 285 286 286 286 286 286 284 283 283 282 282 283 284 285 286 285 285 283 283 283 283 282 281 280 279 279 277 275
281 283 283 282 282 283 282 283 284 285 285 283 283 283 283 283 284 284 284 284 284 284 283 282 281 281 281 281 280 280 279 280 279 277 277 276 276 276 275 275 275 275 275
281 281 281 281 281 281 281 282 283 284 283 283 282 282 282 282 281 282 282 282 283 283 282 281 281 279 278 279 280 281 280 279 279 280 279 277 276 275 274 273 273 273 273
279 279 279 280 280 280 280 281 281 282 283 281 281 281 281 281 281 280 280 283 283 283 283 283 281 281 282 282 281 281 281 280 280 279 277 276 275 274 273 273 272 273 272

GFSMW_sfc_thetae_108.txt.gz
Theta_e
313 313 315 320 321 323 323 323 327 333 334 333 330 328 327 330 331 334 335 336 334 336 332 331 329 324 319 319 320 319 317 317 320 319 320 322 324 323 323 324 324 324 323
308 312 317 320 322 324 325 326 328 332 334 331 330 331 329 329 331 332 335 333 334 333 329 328 327 323 320 320 321 319 317 317 320 317 315 311 314 320 322 323 323 324 324
309 313 316 319 322 323 325 326 328 331 333 334 329 330 330 329 328 329 330 331 332 331 329 328 326 324 321 317 318 318 317 314 318 321 317 309 308 315 320 321 321 323 322
313 315 316 318 321 323 325 327 328 330 332 333 328 328 327 324 328 327 328 329 330 329 329 329 327 323 321 318 317 318 317 317 315 318 321 322 319 313 311 318 320 322 321
314 314 316 318 320 322 326 327 328 329 329 330 328 329 330 330 331 330 328 326 328 329 329 324 321 319 319 318 318 318 317 317 316 316 316 319 318 319 314 311 313 319 321
313 314 316 318 319 322 325 328 327 327 327 326 328 330 331 330 327 324 323 322 324 327 325 323 321 320 319 318 318 318 317 317 317 317 317 318 316 315 314 312 312 313 317
311 313 314 316 317 319 322 325 326 324 324 324 325 329 331 329 328 327 324 320 322 324 325 320 320 318 318 321 319 319 318 318 317 316 317 320 319 318 318 314 313 312 316
311 312 313 315 317 318 320 323 324 322 321 321 322 326 328 329 327 326 323 322 322 326 323 321 322 319 319 319 319 318 318 319 318 317 317 320 321 319 317 314 317 314 315
311 312 314 316 317 317 320 322 322 321 321 320 320 321 325 328 326 326 325 323 324 324 325 320 319 318 317 317 316 316 316 318 318 318 319 320 319 321 318 319 321 314 310
311 312 313 314 315 315 318 322 324 319 321 319 318 318 325 327 327 325 320 322 322 324 323 323 320 317 316 316 315 314 315 315 317 318 317 316 320 320 322 322 320 320 315
311 311 312 312 311 314 312 322 320 318 319 318 317 320 324 325 325 323 320 320 323 323 323 324 320 317 316 315 314 313 314 314 315 315 314 314 315 316 316 318 318 318 317
311 310 310 308 307 305 302 317 318 318 319 318 318 320 321 324 321 321 319 320 321 322 322 320 318 315 315 315 313 312 313 313 313 314 313 312 313 314 314 318 315 318 319
309 309 308 306 303 300 300 315 318 318 318 318 317 318 318 320 319 320 320 320 321 322 321 320 318 316 315 314 313 313 312 313 313 313 313 312 312 312 312 314 316 318 315
305 304 305 304 299 298 298 303 317 318 317 316 316 316 316 318 319 319 319 319 319 319 318 317 319 318 317 316 314 312 311 311 312 313 312 313 313 313 313 313 314 315 313
300 299 298 299 296 295 296 298 316 315 315 314 314 314 315 317 319 318 319 319 318 318 320 318 318 319 317 316 315 313 312 311 311 313 312 313 311 305 308 311 312 313 313
296 297 295 294 293 293 294 296 312 315 315 314 313 314 314 314 316 318 318 318 317 318 318 317 317 316 316 301 301 309 312 311 311 311 312 312 305 304 299 298 297 304 311
293 293 291 291 291 292 293 294 300 315 314 314 314 314 315 314 315 316 316 316 317 318 317 317 317 316 316 298 299 299 315 312 312 312 312 310 308 305 306 292 290 288 287
290 291 290 289 289 290 292 293 301 311 310 309 311 314 314 314 316 315 315 316 317 316 317 317 317 316 316 297 298 297 315 312 312 312 312 311 309 306 299 294 289 287 287
288 289 290 289 288 288 289 289 291 294 295 295 296 298 302 307 312 313 314 317 316 317 318 317 316 314 313 295 295 297 311 316 316 317 317 316 314 301 294 292 285 283 283
288 288 288 287 286 286 288 288 287 288 288 290 291 293 296 297 297 298 301 311 315 314 311 296 293 291 298 290 293 296 307 305 299 292 292 288 300 292 290 291 285 281 279
286 287 287 286 286 286 286 286 286 285 286 288 289 289 290 291 292 293 293 296 299 291 288 286 287 287 288 290 290 293 304 293 287 286 285 286 287 287 287 286 282 278 278
284 285 285 285 285 286 287 285 284 285 286 286 287 287 288 288 289 289 289 290 288 286 285 284 284 284 285 287 288 289 289 288 286 284 284 284 285 284 283 281 281 280 278
283 284 284 284 285 285 285 284 286 287 286 285 285 285 286 286 287 287 287 286 286 285 283 283 281 280 281 282 284 285 285 284 283 283 282 282 282 281 280 279 279 278 277
281 282 282 281 282 284 284 284 286 287 286 285 284 284 283 283 284 284 284 284 284 283 282 281 279 279 279 279 280 280 279 280 278 278 277 277 278 278 278 278 278 279 279
281 281 280 280 280 281 282 284 285 287 286 285 285 284 283 282 282 282 282 281 282 283 281 281 281 279 278 280 281 282 281 280 280 281 282 281 280 281 280 279 279 279 279
281 280 280 279 279 280 280 281 284 285 287 285 284 283 283 283 282 281 281 283 283 283 283 283 282 282 282 282 282 282 282 282 283 284 282 281 281 280 279 278 278 278 277

GFSMW_sfc_thetae_111.txt.gz
Theta_e
316 318 320 319 320 323 323 323 324 331 338 336 338 340 333 334 335 339 339 339 337 336 335 334 334 333 328 325 324 322 321 320 322 320 320 321 325 326 324 326 324 325 324
314 316 316 318 321 323 324 326 326 327 330 334 336 338 332 332 334 336 339 338 337 335 334 334 330 326 324 323 322 319 317 318 321 318 316 312 317 322 322 323 324 323 323
310 312 313 319 322 323 325 325 327 328 330 334 337 334 333 331 330 331 334 336 336 334 335 334 331 325 323 320 320 319 318 315 319 320 316 310 309 315 321 322 322 325 323
309 312 316 318 321 323 325 328 328 328 330 335 334 330 328 326 328 331 333 333 336 334 333 332 329 325 322 320 320 322 319 317 315 318 320 319 317 312 311 319 322 325 322
314 314 316 317 318 321 324 328 329 329 330 332 334 331 328 331 333 333 332 330 333 331 333 331 327 325 322 321 319 319 317 317 315 315 316 316 317 319 314 310 315 320 320
313 314 316 317 318 320 323 326 327 328 330 331 333 331 328 332 331 332 331 328 331 332 330 329 328 327 325 321 319 320 318 317 316 317 317 316 314 315 315 313 314 314 319
311 312 313 314 316 318 321 322 323 326 329 330 329 330 330 332 333 333 331 328 327 328 328 325 326 325 324 323 320 319 318 317 317 317 317 318 318 319 317 317 314 312 316
312 312 313 315 317 318 320 321 322 323 327 328 325 329 329 330 331 331 330 328 327 328 326 324 323 322 322 323 320 318 318 318 317 317 317 317 318 319 320 317 315 311 313
310 312 314 316 316 316 317 319 319 321 325 327 325 327 328 328 329 333 332 328 327 326 327 326 324 323 321 322 320 318 317 317 317 318 318 317 318 319 320 319 319 316 310
310 312 313 314 314 314 315 317 319 321 324 325 324 325 324 329 330 332 328 327 325 326 325 323 321 320 318 318 318 318 318 317 317 318 316 317 317 318 318 317 317 321 317
310 312 311 312 312 312 312 313 314 321 324 323 323 323 322 326 328 329 327 326 325 325 325 325 322 320 318 317 315 316 316 316 316 317 316 316 316 316 317 317 318 314 317
309 310 311 312 311 309 308 307 306 316 323 321 321 320 321 324 326 326 324 325 325 325 324 324 321 319 317 316 314 313 314 314 314 315 315 315 314 313 315 314 314 316 316
307 308 308 307 308 307 306 302 301 302 320 319 318 318 319 322 323 323 322 322 324 322 323 321 321 318 316 315 315 314 313 313 314 315 314 314 313 312 312 313 313 315 316
304 304 304 304 305 305 302 298 298 299 318 319 318 317 319 321 321 321 322 320 322 321 320 320 320 318 316 315 314 313 312 313 313 314 314 313 313 312 312 312 312 312 312
299 300 300 299 301 301 299 296 297 299 316 317 316 316 318 319 321 319 320 320 321 321 320 319 319 320 318 316 315 314 312 312 312 312 313 313 311 305 309 312 312 312 311
295 296 296 296 296 296 293 293 294 296 302 314 313 315 316 318 320 319 318 318 320 321 320 318 318 317 317 301 301 309 312 311 311 310 311 312 304 304 300 301 301 308 310
293 292 292 292 293 292 291 291 292 293 303 313 313 314 314 316 317 317 317 318 317 319 319 320 320 318 320 299 299 299 315 312 312 311 311 310 311 306 310 294 292 289 288
291 289 289 289 290 290 291 291 291 293 306 308 310 314 315 315 315 316 316 317 318 317 317 317 318 319 318 297 297 296 315 314 314 313 313 312 310 309 305 296 288 286 286
289 288 289 288 288 287 289 289 288 288 292 293 295 299 304 309 315 314 316 317 317 317 316 317 318 317 307 292 294 299 314 312 312 312 313 312 311 300 297 292 285 283 282
288 287 287 287 286 285 287 286 285 286 286 288 290 292 295 297 298 299 303 307 316 311 300 294 292 289 297 289 291 298 310 304 295 290 288 288 296 293 292 290 286 281 279
286 287 287 286 285 285 285 285 285 284 285 287 288 288 289 291 292 294 295 296 293 290 288 286 285 286 287 289 290 292 306 296 287 286 285 286 288 288 288 287 284 280 279
284 285 285 285 285 285 285 285 284 285 285 285 285 286 285 286 289 289 289 289 288 286 285 283 282 283 284 286 287 288 288 288 286 284 284 285 286 285 284 282 281 280 278
283 284 283 283 284 285 285 285 285 286 285 284 284 284 285 285 286 286 286 286 285 284 283 281 280 279 280 281 284 284 284 283 281 282 282 282 282 281 280 280 280 279 278
283 283 282 281 281 283 284 285 288 288 286 284 283 283 282 282 283 283 283 283 283 282 281 280 279 279 280 279 280 279 279 280 279 279 279 279 279 279 279 280 280 279 279
283 282 281 281 280 281 282 284 286 288 285 285 284 284 283 282 281 281 281 281 282 282 280 280 280 279 278 281 282 281 280 280 281 282 282 281 280 279 279 280 280 280 280
284 283 281 281 281 281 282 283 284 285 285 283 283 283 282 282 281 280 280 283 283 283 283 283 282 282 283 283 284 284 284 284 284 284 283 282 282 281 280 279 279 280 279

GFSMW_sfc_thetae_114.txt.gz
Theta_e
316 318 319 320 324 322 322 324 328 338 340 340 340 339 338 337 336 337 338 336 336 337 335 334 333 333 330 327 327 325 323 322 324 321 320 321 323 323 322 323 323 322 323
314 316 318 320 320 321 325 326 326 326 332 337 337 339 339 337 335 335 337 337 337 336 333 333 330 330 327 325 324 322 319 320 323 318 317 313 315 319 321 322 322 320 322
312 314 316 319 322 323 325 324 325 326 328 327 334 336 335 332 330 331 331 336 336 335 334 331 330 328 326 323 323 322 319 316 319 321 316 310 308 314 318 318 320 320 320
311 311 314 317 320 323 326 325 327 327 327 331 329 333 329 327 329 330 330 333 334 333 333 332 328 326 325 322 322 322 320 319 316 318 319 317 316 310 308 316 317 319 318
308 310 315 317 319 322 325 325 327 328 328 329 330 333 330 330 329 328 328 329 331 332 331 331 328 325 323 322 321 320 319 319 318 317 315 315 315 315 312 307 312 317 318
312 313 316 317 319 321 323 324 324 323 328 329 330 332 329 328 327 328 326 328 330 330 331 330 328 325 323 321 321 320 319 318 319 318 316 315 313 313 313 309 311 312 315
312 311 312 313 316 318 320 320 320 319 323 329 328 331 331 329 328 329 329 327 327 327 328 329 326 325 323 321 321 320 319 318 316 316 316 317 317 317 315 312 311 311 313
312 312 313 315 315 316 316 316 315 316 320 320 327 328 331 329 328 330 330 327 326 327 329 328 326 324 324 322 320 320 318 318 317 316 317 318 318 318 316 314 311 308 309
310 311 313 314 313 313 313 313 313 314 317 318 321 326 327 328 327 331 329 328 327 327 327 327 324 323 322 321 320 318 317 317 317 317 318 317 318 319 318 317 316 311 304
310 311 311 311 312 313 312 312 311 311 314 315 319 325 324 326 328 329 327 327 327 325 325 324 322 321 321 320 319 318 318 316 317 317 317 317 317 317 317 316 315 315 310
310 310 311 311 311 312 310 309 307 306 307 309 316 324 323 325 327 327 326 326 326 325 325 323 322 321 319 319 318 317 317 316 316 316 316 316 316 316 316 316 314 313 313
307 308 308 307 307 308 307 305 304 303 303 305 319 322 323 324 325 325 325 324 323 324 324 322 320 319 317 317 317 316 316 315 315 315 316 315 316 315 316 315 313 313 313
303 303 304 303 303 304 304 302 302 300 300 303 314 319 320 321 322 323 322 323 323 322 321 323 320 318 317 316 315 315 315 315 316 316 315 315 315 314 314 314 312 311 313
300 300 300 300 300 300 300 299 298 299 298 301 312 317 317 319 320 321 321 321 321 320 319 322 319 317 316 315 314 314 313 314 314 315 316 315 314 312 312 313 312 311 311
297 297 296 296 296 296 296 295 295 296 296 297 305 316 318 319 320 319 319 320 320 319 319 319 318 317 316 315 314 313 312 312 312 313 314 314 312 306 309 312 311 311 310
294 294 293 292 292 292 291 292 292 293 294 297 303 317 317 317 318 318 318 319 318 318 318 316 317 316 316 301 301 309 312 312 311 310 311 310 304 303 300 301 302 307 309
291 290 290 289 289 289 290 290 292 293 292 299 311 315 316 316 317 317 317 317 317 318 317 316 316 315 315 299 299 300 313 311 310 310 310 309 308 304 307 294 291 289 289
289 288 288 287 287 288 288 290 290 290 290 291 296 307 314 315 317 316 316 316 317 316 317 316 316 316 308 296 297 296 313 311 310 310 310 310 307 307 303 294 287 286 286
288 287 288 287 287 287 288 288 288 288 288 287 289 292 298 313 315 315 315 316 315 315 312 307 303 302 293 291 294 299 310 310 308 307 297 306 308 298 296 291 286 283 283
287 286 287 286 285 285 287 286 285 285 284 285 286 289 292 296 301 305 308 307 307 299 293 289 289 288 291 289 292 297 308 298 290 288 288 288 296 292 291 291 286 282 280
285 286 286 285 284 286 285 285 284 284 284 285 286 287 287 289 291 293 295 295 292 288 286 284 284 285 286 288 291 293 301 291 286 285 285 286 287 289 288 289 287 281 279
284 284 283 283 284 285 284 284 284 284 285 284 284 284 285 285 288 288 288 289 287 285 283 282 281 281 283 286 287 288 288 287 284 283 284 284 285 285 284 283 282 281 279
283 283 282 282 282 283 283 283 284 285 285 283 282 283 284 284 285 285 285 285 284 283 282 280 279 279 280 281 284 284 284 283 281 282 282 282 282 282 281 281 281 279 278
282 283 282 281 280 282 283 284 285 286 285 283 282 282 281 281 283 283 283 282 282 281 280 280 278 279 279 279 280 280 280 281 280 279 280 280 280 279 279 279 280 279 278
284 282 281 280 280 282 282 283 284 286 284 283 283 281 281 280 280 281 281 281 282 282 280 280 280 279 279 280 282 281 281 281 281 281 281 280 280 279 279 279 279 279 279
283 281 281 281 280 281 281 282 284 284 283 282 282 282 281 280 279 278 279 283 283 284 284 284 283 283 284 285 285 285 285 285 284 282 280 279 279 278 278 278 277 278 277

GFSMW_sfc_thetae_117.txt.gz
Theta_e
309 311 310 310 308 311 314 324 336 337 338 335 333 331 334 333 330 333 335 336 336 337 335 333 331 332 329 327 327 327 325 322 323 322 322 322 324 324 324 325 324 324 323
307 310 310 309 310 313 315 316 327 337 338 337 336 334 332 332 334 330 332 334 332 334 336 334 330 329 327 327 326 324 321 321 324 319 317 313 316 321 323 322 323 322 323
305 308 311 309 310 313 314 315 317 320 329 335 332 329 328 326 326 326 328 331 332 332 333 332 330 328 325 324 324 323 322 318 322 322 317 310 309 314 319 320 321 320 321
307 308 312 310 310 312 315 317 320 320 321 320 326 327 326 322 324 325 326 330 333 333 334 332 329 325 324 324 324 323 321 319 316 320 319 315 315 311 309 316 319 319 319
305 307 311 311 311 313 314 316 319 319 320 320 321 327 324 327 324 324 324 325 331 333 332 331 328 325 323 321 322 322 321 320 318 318 317 314 315 315 312 309 313 317 318
307 311 311 311 312 312 312 312 312 313 316 319 319 326 325 324 322 323 324 326 327 330 329 330 327 326 325 322 322 322 320 320 319 319 318 315 314 313 312 311 312 312 315
307 308 309 309 309 309 309 310 311 310 311 313 315 317 325 324 323 324 324 324 325 327 329 329 326 324 323 322 322 320 320 319 318 318 317 317 316 317 315 312 311 311 314
308 309 308 307 307 308 308 307 308 308 309 311 313 314 316 326 325 326 327 325 326 328 329 328 326 325 323 322 322 320 320 319 318 318 317 317 317 318 317 313 312 308 310
307 306 307 307 306 306 307 306 305 306 306 306 308 309 314 322 326 326 327 327 329 328 328 327 325 324 323 321 321 320 319 318 317 317 317 318 318 318 318 316 314 311 306
306 306 305 306 307 307 305 305 303 303 303 303 303 306 309 313 326 324 323 326 327 327 327 326 325 323 322 321 320 319 318 317 317 317 316 317 318 318 317 316 315 314 310
302 302 303 303 303 303 303 302 301 300 300 301 300 302 303 311 323 322 322 324 326 325 326 324 322 321 321 320 319 318 317 316 316 316 316 316 317 317 316 316 314 313 312
300 300 300 299 299 299 299 298 298 297 298 298 298 301 303 319 321 321 322 325 324 324 323 321 321 320 319 319 318 316 316 315 315 315 316 315 316 316 316 316 314 313 312
297 297 296 295 296 296 296 295 295 295 295 296 296 299 302 320 320 321 321 324 323 323 323 321 320 319 318 317 317 317 316 316 315 315 315 315 315 314 315 314 313 313 313
295 294 293 292 292 293 293 292 293 294 294 294 294 297 300 317 320 321 319 322 322 321 321 320 320 318 317 317 316 316 315 316 315 316 316 316 315 315 314 313 313 312 312
291 291 290 290 290 290 290 290 291 292 293 293 294 296 300 315 319 320 320 321 321 319 320 321 319 317 316 316 315 315 314 313 313 314 315 316 314 307 311 314 314 312 311
289 289 289 289 288 288 288 289 290 290 292 292 293 295 304 315 317 318 318 319 318 318 318 317 316 315 316 301 301 309 313 312 312 311 311 311 305 304 300 301 302 310 311
288 288 287 286 287 287 288 287 289 290 290 291 292 293 295 316 317 318 318 317 317 317 315 316 316 314 315 298 299 300 312 311 311 310 310 308 308 305 306 292 291 290 290
286 286 286 286 286 287 287 288 288 288 288 288 289 290 291 300 317 317 316 317 316 315 314 314 315 313 303 297 297 297 311 310 310 310 310 309 306 306 298 292 288 286 286
286 286 287 286 285 286 286 287 286 286 285 285 286 288 290 292 313 315 315 316 316 314 308 308 305 299 295 292 296 301 310 308 304 301 298 308 307 295 295 290 285 283 283
285 285 286 285 284 284 285 285 285 284 283 284 285 287 288 289 291 308 314 313 304 296 293 289 289 289 291 290 293 301 306 295 290 287 287 287 296 291 291 290 287 283 281
284 284 284 283 283 284 284 283 284 283 283 284 284 285 286 288 287 291 300 296 291 288 285 284 284 285 286 288 293 296 299 290 286 285 285 285 288 289 289 290 288 283 280
282 283 282 282 283 283 283 282 283 284 284 283 282 282 284 285 286 286 288 288 287 284 283 281 280 282 284 286 288 289 288 288 285 282 283 285 286 285 284 283 283 282 280
282 283 282 281 282 282 282 281 283 284 284 282 281 280 282 283 285 284 284 283 284 283 281 280 279 278 280 282 285 285 284 284 282 282 283 283 283 282 282 282 281 280 279
281 281 281 279 279 280 282 283 284 285 284 282 281 280 280 281 282 283 283 282 282 281 280 279 278 279 279 279 281 280 281 282 280 280 280 280 280 280 279 279 279 279 278
281 280 280 278 278 280 281 283 283 284 283 283 282 280 279 279 280 281 282 282 282 282 280 280 281 280 279 280 282 282 281 281 281 281 280 279 279 278 278 278 278 278 278
280 279 278 279 278 280 281 282 283 283 282 282 282 281 281 279 279 279 279 283 284 284 284 284 283 284 285 285 285 285 284 284 283 280 278 278 277 277 277 276 276 277 277

GFSMW_sfc_thetae_120.txt.gz
Theta_e
307 306 307 308 306 305 308 328 330 334 337 336 334 331 332 332 333 335 337 336 336 336 334 333 333 333 329 326 325 325 325 324 326 322 322 323 324 324 324 325 325 325 324
304 306 307 304 306 309 311 326 331 333 336 336 336 333 331 330 333 333 334 336 334 335 335 333 331 333 329 325 325 326 323 322 325 320 317 313 317 322 323 323 324 323 324
302 305 307 306 310 311 317 329 334 335 336 335 331 328 328 326 326 325 330 333 334 334 334 333 332 331 330 328 327 326 324 320 323 322 317 311 310 315 321 321 323 322 322
303 305 306 307 310 310 315 318 321 322 324 327 328 324 327 327 326 328 329 330 332 332 332 331 329 330 329 328 326 325 324 322 319 321 320 316 315 311 309 318 320 322 320
303 309 309 309 309 309 309 311 312 313 317 318 320 326 325 326 323 323 326 328 330 332 333 331 331 329 327 326 324 323 322 322 319 319 318 315 315 315 311 309 314 318 320
309 309 309 308 306 307 307 308 308 308 311 313 314 317 320 323 322 322 323 323 326 331 331 331 329 329 327 323 323 323 322 321 320 319 319 317 315 313 312 310 313 313 316
307 306 305 305 305 304 305 306 306 306 307 307 307 309 310 313 321 323 325 325 324 322 326 328 328 327 326 324 323 322 321 320 319 319 319 320 319 317 316 314 313 312 314
305 304 304 304 304 304 303 303 303 303 304 304 303 304 306 308 313 323 324 325 325 326 328 327 328 327 325 324 323 322 321 321 320 319 319 318 318 318 317 315 313 310 311
302 302 303 303 302 301 301 301 301 301 301 301 301 301 302 304 308 312 325 326 326 325 327 328 327 325 324 323 322 321 320 319 319 319 318 317 318 318 318 317 317 313 307
298 298 298 299 300 300 299 299 299 298 298 298 298 299 299 301 304 308 313 325 326 325 326 327 327 324 323 322 321 320 320 318 318 318 317 317 318 318 317 316 316 315 311
296 295 296 297 297 297 296 296 295 295 295 295 296 296 297 299 303 305 310 323 325 326 325 327 326 324 322 321 320 319 318 318 317 316 316 316 318 317 317 316 315 313 312
294 294 293 294 293 293 293 292 293 293 294 294 295 295 296 298 301 305 315 323 324 324 325 327 325 323 322 321 319 318 317 317 315 315 315 315 316 316 316 315 314 314 313
293 292 291 290 291 291 290 290 291 291 293 294 294 294 295 297 299 302 320 322 323 322 325 325 322 321 320 319 319 318 317 316 316 316 315 315 315 315 315 314 313 314 313
291 290 289 288 289 289 289 289 290 291 291 292 293 292 294 296 298 303 315 322 322 322 323 322 321 320 319 318 318 317 316 316 316 316 316 316 316 315 315 314 313 313 312
288 288 287 287 287 287 288 289 289 289 290 290 291 292 293 295 298 304 313 320 321 322 322 320 320 319 317 317 317 316 315 315 314 315 315 316 314 308 311 314 313 313 312
287 287 287 286 286 286 286 287 288 288 288 288 289 290 292 294 296 300 314 319 319 321 321 319 317 316 316 301 302 310 314 314 313 313 314 314 306 305 300 301 302 309 312
285 285 285 285 285 285 286 286 287 288 287 287 287 289 290 291 294 296 315 318 318 318 318 317 316 315 315 299 299 300 313 312 312 311 311 309 310 306 307 292 292 291 292
285 285 285 284 284 285 285 286 287 286 285 285 285 287 288 289 292 295 303 317 317 316 316 315 315 314 307 297 297 297 311 310 310 310 310 309 306 303 298 292 288 287 287
284 284 285 284 284 284 284 284 285 285 284 283 283 284 286 287 290 291 294 317 316 315 315 314 311 306 298 294 295 302 308 307 303 301 297 308 306 293 294 290 285 284 284
283 283 283 283 282 282 283 283 283 282 282 283 282 283 284 285 287 289 290 315 310 299 296 291 292 292 294 292 295 303 304 295 290 288 289 288 299 290 290 291 288 284 281
282 282 282 281 281 282 283 282 282 281 283 283 282 282 283 284 286 288 288 294 292 290 287 285 285 286 287 290 293 296 299 291 286 285 285 286 289 290 290 290 289 285 281
281 282 280 280 281 281 282 281 281 283 283 282 280 280 282 283 284 285 285 286 287 285 284 284 282 283 285 287 290 291 290 288 285 283 284 285 287 286 286 284 283 282 281
280 280 280 280 281 281 282 280 282 284 283 281 280 280 281 282 283 283 283 283 284 283 283 283 280 279 282 284 285 286 285 284 283 283 284 284 284 283 283 283 282 281 280
278 277 278 278 278 281 281 282 282 283 282 281 280 280 279 280 282 283 283 282 281 281 281 280 279 280 280 280 281 282 282 282 281 280 280 280 280 279 279 279 279 279 279
277 276 275 276 277 279 280 282 282 282 282 281 281 280 280 279 280 281 282 282 283 283 281 281 281 280 279 281 282 282 281 281 281 281 280 279 279 278 278 278 278 278 278
277 276 276 276 276 277 279 281 282 281 281 281 280 279 279 279 279 280 280 283 283 284 284 284 283 283 284 284 284 284 284 283 282 279 277 277 277 276 276 276 276 277 277

GFSMW_sfc_thetae_123.txt.gz
Theta_e
304 306 306 305 304 307 318 328 329 334 336 335 331 330 332 333 333 335 335 335 335 334 334 332 330 330 329 326 325 323 324 324 327 322 322 322 324 324 325 325 326 325 325
302 304 305 304 304 303 306 322 327 331 334 336 335 334 334 332 334 334 335 335 335 335 334 332 331 332 330 327 326 327 323 324 326 320 318 314 317 322 323 324 325 325 325
302 304 305 305 302 303 305 317 325 328 333 334 331 327 327 326 325 327 332 334 333 335 335 333 332 330 330 327 326 327 325 321 323 322 316 311 309 313 320 322 323 323 323
299 302 307 309 308 308 316 318 321 322 327 328 327 326 326 324 328 329 332 331 333 333 334 332 331 331 331 329 328 328 327 324 320 322 320 317 314 311 309 318 321 323 322
300 305 306 306 306 307 308 309 311 312 314 319 322 323 323 325 324 324 326 326 330 331 333 333 331 331 330 330 328 327 325 324 322 320 318 315 311 315 311 309 314 320 322
304 304 306 305 304 305 305 306 306 306 307 310 310 310 310 314 319 321 322 323 326 329 330 331 331 332 329 328 327 326 325 323 322 321 319 317 315 313 312 310 313 314 317
303 302 301 301 301 301 302 303 303 302 304 304 305 306 307 308 310 317 322 323 321 324 328 328 328 329 328 327 327 325 324 322 321 320 319 319 317 317 316 314 313 312 315
300 299 299 300 299 299 298 299 299 299 300 300 300 301 302 304 307 312 318 323 325 326 328 327 328 328 327 324 324 324 323 322 321 319 319 319 320 320 318 316 313 310 311
297 296 298 298 297 297 297 297 296 297 297 298 298 298 299 299 300 304 308 311 324 326 326 326 328 328 326 325 324 323 322 321 320 320 319 319 319 319 319 318 317 314 307
293 294 295 294 294 295 295 295 295 294 295 296 296 297 296 297 298 301 303 307 311 323 324 324 326 326 326 325 324 323 321 320 320 319 318 318 319 317 318 317 317 317 313
291 291 292 293 292 292 292 292 292 292 293 293 294 294 294 295 297 298 301 304 309 313 324 324 324 325 324 323 322 322 320 319 318 318 317 317 318 317 317 317 316 313 314
290 290 290 291 290 290 290 289 290 290 291 292 292 293 294 295 295 297 300 304 308 314 322 325 324 325 323 322 321 320 319 318 317 316 316 316 317 316 317 316 315 314 313
290 289 289 288 288 289 289 289 290 290 290 290 291 292 292 293 294 295 298 302 305 318 321 325 324 324 323 322 321 320 318 318 317 317 316 316 316 315 316 316 315 315 314
288 288 287 287 287 287 287 288 289 289 289 289 289 290 291 291 292 294 297 301 306 318 322 323 324 323 323 322 320 319 317 317 317 316 316 316 315 315 315 314 314 313 312
287 286 286 286 286 286 286 287 288 288 288 288 287 289 290 291 292 294 296 299 305 317 322 322 323 322 321 320 319 318 317 316 315 315 315 316 314 307 311 314 313 312 312
286 286 286 285 285 285 285 286 287 287 288 287 286 288 288 289 290 292 295 298 301 316 320 321 321 319 319 303 303 311 316 315 314 313 313 314 306 305 300 302 302 309 311
285 285 284 283 283 283 284 284 286 287 286 286 286 286 287 287 288 290 293 296 298 313 319 320 320 318 318 300 300 301 316 314 313 313 313 312 311 306 309 295 296 292 294
283 283 283 282 283 283 283 285 286 285 284 284 284 284 285 285 287 289 291 293 297 307 317 318 318 317 314 298 298 298 314 313 312 312 312 311 309 308 300 295 289 287 288
282 283 283 282 282 282 283 284 284 283 283 282 282 282 283 284 285 287 288 291 294 300 316 317 315 314 306 296 296 303 310 309 306 305 305 309 306 293 295 291 286 285 284
282 281 281 281 281 281 283 282 282 282 281 281 281 282 282 283 284 285 287 289 292 304 299 293 298 298 300 294 295 304 304 297 292 290 290 288 299 290 290 291 289 285 283
281 281 281 280 281 281 282 280 281 281 283 282 280 280 282 283 284 284 286 287 288 289 288 287 287 287 291 294 296 297 301 293 288 287 286 286 289 290 290 291 290 287 283
279 279 278 279 281 281 281 280 280 282 283 282 279 279 281 282 283 283 284 285 285 286 285 285 285 285 285 290 292 293 291 290 288 284 285 286 288 287 287 285 284 283 282
277 277 276 277 278 280 281 280 280 281 281 279 278 278 279 281 281 282 282 283 283 282 282 284 284 282 283 285 286 287 286 285 284 284 285 285 285 284 283 283 283 282 281
274 274 274 275 276 279 280 281 281 282 281 278 278 278 278 279 280 281 282 281 282 282 281 281 281 281 281 281 281 282 283 283 281 280 280 280 280 280 279 279 280 279 280
275 274 274 274 275 277 279 281 281 281 281 280 278 278 278 278 279 280 280 280 281 282 281 281 281 281 280 282 283 282 280 280 281 281 280 279 279 278 278 278 278 278 278
275 275 275 275 275 276 278 279 281 281 280 279 278 278 278 278 278 278 278 281 281 282 283 283 281 281 283 283 283 283 283 282 281 279 277 276 276 276 276 276 276 277 277